Time,TemperatureF,DewpointF,PressureIn,WindDirection,WindDirectionDegrees,WindSpeedMPH,WindSpeedGustMPH,Humidity,HourlyPrecipIn,Conditions,Clouds,dailyrainin,SoftwareType,DateUTC
2013-03-21 00:00:00,65.2,51.4,29.95,WNW,283,0.0,0.0,61,3.08,,SKC,0.00,VWS V14.01,2013-03-21 04:00:00,
2013-03-21 00:01:00,65.2,51.4,29.95,WNW,283,0.0,0.0,61,0.12,,SKC,0.00,VWS V14.01,2013-03-21 04:01:00,
2013-03-21 00:02:00,65.3,51.5,29.95,West,281,0.0,0.0,61,0.12,,SKC,0.00,VWS V14.01,2013-03-21 04:02:00,
2013-03-21 00:03:00,65.4,52.1,29.95,WNW,300,0.0,0.0,62,0.15,,SKC,0.03,VWS V14.01,2013-03-21 04:03:00,
2013-03-21 00:04:00,65.5,52.2,29.95,West,281,0.0,0.0,62,0.18,,SKC,0.06,VWS V14.01,2013-03-21 04:04:00,
2013-03-21 00:05:00,65.5,51.7,29.95,NW,306,0.0,0.0,61,0.18,,SKC,0.06,VWS V14.01,2013-03-21 04:05:00,
2013-03-21 00:06:00,65.5,51.7,29.95,NW,306,0.0,0.0,61,0.18,,SKC,0.06,VWS V14.01,2013-03-21 04:06:00,
2013-03-21 00:07:00,65.5,51.7,29.95,WNW,290,0.0,0.0,61,0.18,,SKC,0.06,VWS V14.01,2013-03-21 04:07:00,
2013-03-21 00:08:00,65.4,51.6,29.95,West,275,0.0,0.0,61,0.18,,SKC,0.06,VWS V14.01,2013-03-21 04:08:00,
2013-03-21 00:09:00,65.4,51.6,29.95,WNW,292,0.0,0.0,61,0.18,,SKC,0.06,VWS V14.01,2013-03-21 04:09:00,
2013-03-21 00:10:00,65.4,51.6,29.95,WNW,292,0.0,0.0,61,0.18,,SKC,0.06,VWS V14.01,2013-03-21 04:10:00,
2013-03-21 00:11:00,65.4,51.6,29.95,WNW,292,0.0,0.0,61,0.18,,SKC,0.06,VWS V14.01,2013-03-21 04:11:00,
2013-03-21 00:12:00,65.5,51.7,29.95,WNW,303,0.0,0.0,61,0.21,,SKC,0.09,VWS V14.01,2013-03-21 04:12:00,
2013-03-21 00:13:00,65.5,51.7,29.95,WNW,287,0.0,0.0,61,0.21,,SKC,0.09,VWS V14.01,2013-03-21 04:13:00,
2013-03-21 00:14:00,65.5,51.7,29.95,WNW,288,0.0,0.0,61,0.21,,SKC,0.09,VWS V14.01,2013-03-21 04:14:00,
2013-03-21 00:15:00,65.4,51.6,29.95,WNW,286,0.0,0.0,61,0.21,,SKC,0.09,VWS V14.01,2013-03-21 04:15:00,
2013-03-21 00:16:00,65.5,51.7,29.95,WNW,286,0.0,0.0,61,0.21,,SKC,0.09,VWS V14.01,2013-03-21 04:16:00,
2013-03-21 00:17:00,65.6,51.8,29.95,WNW,286,0.0,0.0,61,0.21,,SKC,0.09,VWS V14.01,2013-03-21 04:17:00,
2013-03-21 00:18:00,65.8,52.4,29.95,NW,314,0.0,0.0,62,0.21,,SKC,0.09,VWS V14.01,2013-03-21 04:18:00,
2013-03-21 00:19:00,65.9,52.1,29.95,NW,314,0.0,0.0,61,0.27,,SKC,0.15,VWS V14.01,2013-03-21 04:19:00,
2013-03-21 00:20:00,66.0,52.2,29.95,NW,305,0.0,0.0,61,0.28,,SKC,0.16,VWS V14.01,2013-03-21 04:20:00,
2013-03-21 00:21:00,66.1,52.3,29.95,NW,305,0.0,0.0,61,0.28,,SKC,0.16,VWS V14.01,2013-03-21 04:21:00,
2013-03-21 00:22:00,66.1,52.3,29.95,WNW,292,0.0,0.0,61,0.28,,SKC,0.16,VWS V14.01,2013-03-21 04:22:00,
2013-03-21 00:23:00,66.1,51.8,29.95,WNW,291,0.0,0.0,60,0.28,,SKC,0.16,VWS V14.01,2013-03-21 04:23:00,
2013-03-21 00:24:00,66.2,51.9,29.95,WNW,291,0.0,0.0,60,0.28,,SKC,0.16,VWS V14.01,2013-03-21 04:24:00,
2013-03-21 00:25:00,66.2,51.9,29.95,WNW,291,0.0,0.0,60,0.28,,SKC,0.16,VWS V14.01,2013-03-21 04:25:00,
2013-03-21 00:26:00,66.4,52.6,29.95,WNW,288,0.0,0.0,61,0.28,,SKC,0.16,VWS V14.01,2013-03-21 04:26:00,
2013-03-21 00:27:00,66.5,52.2,29.95,WNW,288,0.0,0.0,60,0.28,,SKC,0.16,VWS V14.01,2013-03-21 04:27:00,
2013-03-21 00:28:00,66.6,52.3,29.95,WNW,288,0.0,0.0,60,0.28,,SKC,0.16,VWS V14.01,2013-03-21 04:28:00,
2013-03-21 00:29:00,66.7,52.4,29.95,WNW,288,0.0,0.0,60,0.28,,SKC,0.16,VWS V14.01,2013-03-21 04:29:00,
2013-03-21 00:30:00,66.8,52.5,29.95,NNW,340,0.0,0.0,60,0.28,,SKC,0.16,VWS V14.01,2013-03-21 04:30:00,
2013-03-21 00:31:00,66.9,52.1,29.95,NNW,339,0.0,0.0,59,0.27,,SKC,0.16,VWS V14.01,2013-03-21 04:31:00,
2013-03-21 00:32:00,67.0,52.2,29.95,WNW,288,0.0,0.0,59,0.27,,SKC,0.16,VWS V14.01,2013-03-21 04:32:00,
2013-03-21 00:33:00,67.0,52.2,29.95,West,270,0.0,0.0,59,0.27,,SKC,0.16,VWS V14.01,2013-03-21 04:33:00,
2013-03-21 00:34:00,67.1,51.4,29.95,West,270,0.0,0.0,57,0.27,,SKC,0.16,VWS V14.01,2013-03-21 04:34:00,
2013-03-21 00:35:00,67.2,52.4,29.95,West,269,0.0,0.0,59,0.27,,SKC,0.16,VWS V14.01,2013-03-21 04:35:00,
2013-03-21 00:36:00,67.2,52.4,29.95,NW,306,0.0,0.0,59,0.27,,SKC,0.16,VWS V14.01,2013-03-21 04:36:00,
2013-03-21 00:37:00,67.3,52.5,29.95,WNW,298,0.0,0.0,59,0.27,,SKC,0.16,VWS V14.01,2013-03-21 04:37:00,
2013-03-21 00:38:00,67.3,52.0,29.95,NW,311,0.0,0.0,58,0.27,,SKC,0.16,VWS V14.01,2013-03-21 04:38:00,
2013-03-21 00:39:00,67.3,52.0,29.95,WNW,290,0.0,0.0,58,0.27,,SKC,0.16,VWS V14.01,2013-03-21 04:39:00,
2013-03-21 00:40:00,67.3,51.6,29.94,WNW,284,0.0,0.0,57,0.27,,SKC,0.16,VWS V14.01,2013-03-21 04:40:00,
2013-03-21 00:41:00,67.2,51.9,29.95,WNW,285,0.0,0.0,58,0.27,,SKC,0.16,VWS V14.01,2013-03-21 04:41:00,
2013-03-21 00:42:00,67.2,51.5,29.95,WNW,285,0.0,0.0,57,0.27,,SKC,0.16,VWS V14.01,2013-03-21 04:42:00,
2013-03-21 00:43:00,67.2,51.9,29.94,WNW,284,0.0,0.0,58,0.27,,SKC,0.16,VWS V14.01,2013-03-21 04:43:00,
2013-03-21 00:44:00,67.2,52.4,29.94,WNW,284,0.0,0.0,59,0.27,,SKC,0.16,VWS V14.01,2013-03-21 04:44:00,
2013-03-21 00:45:00,67.3,52.5,29.94,West,267,0.0,0.0,59,0.27,,SKC,0.16,VWS V14.01,2013-03-21 04:45:00,
2013-03-21 00:46:00,67.5,52.7,29.94,West,267,0.0,0.0,59,0.27,,SKC,0.16,VWS V14.01,2013-03-21 04:46:00,
2013-03-21 00:47:00,67.7,53.3,29.94,West,267,0.0,0.0,60,0.27,,SKC,0.16,VWS V14.01,2013-03-21 04:47:00,
2013-03-21 00:48:00,67.9,53.1,29.94,West,267,0.0,0.0,59,0.27,,SKC,0.16,VWS V14.01,2013-03-21 04:48:00,
2013-03-21 00:49:00,68.2,53.3,29.94,West,267,0.0,0.0,59,0.27,,SKC,0.16,VWS V14.01,2013-03-21 04:49:00,
2013-03-21 00:50:00,68.4,53.5,29.94,West,267,0.0,0.0,59,0.27,,SKC,0.16,VWS V14.01,2013-03-21 04:50:00,
2013-03-21 00:51:00,68.6,53.7,29.94,West,263,0.0,0.0,59,0.27,,SKC,0.16,VWS V14.01,2013-03-21 04:51:00,
2013-03-21 00:52:00,69.0,53.6,29.94,WNW,284,0.0,0.0,58,0.27,,SKC,0.16,VWS V14.01,2013-03-21 04:52:00,
2013-03-21 00:53:00,69.2,51.9,29.95,WNW,284,0.0,0.0,54,0.27,,SKC,0.16,VWS V14.01,2013-03-21 04:53:00,
2013-03-21 00:54:00,69.3,52.0,29.95,WSW,248,0.0,0.0,54,0.27,,SKC,0.16,VWS V14.01,2013-03-21 04:54:00,
2013-03-21 00:55:00,69.3,52.5,29.94,West,281,0.0,0.0,55,0.27,,SKC,0.16,VWS V14.01,2013-03-21 04:55:00,
2013-03-21 00:56:00,69.3,52.5,29.94,West,281,0.0,0.0,55,0.27,,SKC,0.16,VWS V14.01,2013-03-21 04:56:00,
2013-03-21 00:57:00,69.2,51.4,29.94,West,281,0.0,0.0,53,0.27,,SKC,0.16,VWS V14.01,2013-03-21 04:57:00,
2013-03-21 00:58:00,69.1,51.8,29.94,West,281,0.0,0.0,54,0.27,,SKC,0.16,VWS V14.01,2013-03-21 04:58:00,
2013-03-21 00:59:00,69.0,52.2,29.94,WNW,297,0.0,0.0,55,0.27,,SKC,0.16,VWS V14.01,2013-03-21 04:59:00,
2013-03-21 01:00:00,69.0,52.2,29.94,West,267,0.0,0.0,55,0.16,,SKC,0.16,VWS V14.01,2013-03-21 05:00:00,
2013-03-21 01:01:00,69.0,52.2,29.94,NNW,335,0.0,0.0,55,0.16,,SKC,0.16,VWS V14.01,2013-03-21 05:01:00,
2013-03-21 01:02:00,69.0,52.2,29.94,West,279,0.0,0.0,55,0.16,,SKC,0.16,VWS V14.01,2013-03-21 05:02:00,
2013-03-21 01:03:00,68.9,52.1,29.94,WNW,284,0.0,0.0,55,0.16,,SKC,0.16,VWS V14.01,2013-03-21 05:03:00,
2013-03-21 01:04:00,68.8,51.5,29.94,West,279,0.0,0.0,54,0.16,,SKC,0.16,VWS V14.01,2013-03-21 05:04:00,
2013-03-21 01:05:00,68.8,52.5,29.94,West,276,0.0,0.0,56,0.16,,SKC,0.16,VWS V14.01,2013-03-21 05:05:00,
2013-03-21 01:06:00,68.8,52.5,29.94,West,277,0.0,0.0,56,0.16,,SKC,0.16,VWS V14.01,2013-03-21 05:06:00,
2013-03-21 01:07:00,68.8,52.5,29.94,West,277,0.0,0.0,56,0.16,,SKC,0.16,VWS V14.01,2013-03-21 05:07:00,
2013-03-21 01:08:00,68.9,52.6,29.94,West,277,0.0,0.0,56,0.16,,SKC,0.16,VWS V14.01,2013-03-21 05:08:00,
2013-03-21 01:09:00,68.9,52.6,29.94,WNW,282,0.0,0.0,56,0.16,,SKC,0.16,VWS V14.01,2013-03-21 05:09:00,
2013-03-21 01:10:00,69.1,52.3,29.94,West,281,0.0,0.0,55,0.16,,SKC,0.16,VWS V14.01,2013-03-21 05:10:00,
2013-03-21 01:11:00,69.2,52.8,29.94,WNW,284,0.0,0.0,56,0.16,,SKC,0.16,VWS V14.01,2013-03-21 05:11:00,
2013-03-21 01:12:00,69.4,53.0,29.94,WNW,284,0.0,0.0,56,0.16,,SKC,0.16,VWS V14.01,2013-03-21 05:12:00,
2013-03-21 01:13:00,69.5,53.1,29.94,WNW,283,0.0,0.0,56,0.16,,SKC,0.16,VWS V14.01,2013-03-21 05:13:00,
2013-03-21 01:14:00,69.7,53.3,29.94,WNW,283,0.0,0.0,56,0.16,,SKC,0.16,VWS V14.01,2013-03-21 05:14:00,
2013-03-21 01:15:00,69.8,53.9,29.94,WNW,283,0.0,0.0,57,0.16,,SKC,0.16,VWS V14.01,2013-03-21 05:15:00,
2013-03-21 01:16:00,70.0,52.6,29.94,WNW,284,0.0,0.0,54,0.16,,SKC,0.16,VWS V14.01,2013-03-21 05:16:00,
2013-03-21 01:17:00,70.2,52.8,29.94,WNW,284,0.0,0.0,54,0.16,,SKC,0.16,VWS V14.01,2013-03-21 05:17:00,
2013-03-21 01:18:00,70.3,52.4,29.94,WNW,284,0.0,0.0,53,0.16,,SKC,0.16,VWS V14.01,2013-03-21 05:18:00,
2013-03-21 01:19:00,70.5,52.6,29.94,WNW,284,0.0,0.0,53,0.16,,SKC,0.16,VWS V14.01,2013-03-21 05:19:00,
2013-03-21 01:20:00,70.6,52.1,29.94,West,281,0.0,0.0,52,0.16,,SKC,0.16,VWS V14.01,2013-03-21 05:20:00,
2013-03-21 01:21:00,70.8,54.3,29.94,West,281,0.0,0.0,56,0.16,,SKC,0.16,VWS V14.01,2013-03-21 05:21:00,
2013-03-21 01:22:00,71.0,54.0,29.94,West,281,0.0,0.0,55,0.16,,SKC,0.16,VWS V14.01,2013-03-21 05:22:00,
2013-03-21 01:23:00,71.2,54.2,29.94,West,281,0.0,0.0,55,0.16,,SKC,0.16,VWS V14.01,2013-03-21 05:23:00,
2013-03-21 01:24:00,71.6,55.1,29.94,West,281,0.0,0.0,56,0.16,,SKC,0.16,VWS V14.01,2013-03-21 05:24:00,
2013-03-21 01:25:00,71.6,53.6,29.94,West,281,0.0,0.0,53,0.16,,SKC,0.16,VWS V14.01,2013-03-21 05:25:00,
2013-03-21 01:26:00,71.7,53.2,29.94,West,281,0.0,0.0,52,0.16,,SKC,0.16,VWS V14.01,2013-03-21 05:26:00,
2013-03-21 01:27:00,71.8,54.3,29.94,West,281,0.0,0.0,54,0.16,,SKC,0.16,VWS V14.01,2013-03-21 05:27:00,
2013-03-21 01:28:00,71.9,53.9,29.94,WSW,257,0.0,0.0,53,0.16,,SKC,0.16,VWS V14.01,2013-03-21 05:28:00,
2013-03-21 01:29:00,72.0,54.0,29.94,WNW,303,0.0,0.0,53,0.16,,SKC,0.16,VWS V14.01,2013-03-21 05:29:00,
2013-03-21 01:30:00,72.0,52.4,29.94,WNW,290,0.0,0.0,50,0.16,,SKC,0.16,VWS V14.01,2013-03-21 05:30:00,
2013-03-21 01:31:00,71.8,51.6,29.94,WNW,282,0.0,0.0,49,0.00,,SKC,0.16,VWS V14.01,2013-03-21 05:31:00,
2013-03-21 01:32:00,71.7,52.1,29.94,WNW,298,0.0,0.0,50,0.00,,SKC,0.16,VWS V14.01,2013-03-21 05:32:00,
2013-03-21 01:33:00,71.5,51.4,29.94,WNW,284,0.0,0.0,49,0.00,,SKC,0.16,VWS V14.01,2013-03-21 05:33:00,
2013-03-21 01:34:00,71.1,51.5,29.94,NW,315,0.0,0.0,50,0.00,,SKC,0.16,VWS V14.01,2013-03-21 05:34:00,
2013-03-21 01:35:00,71.0,52.5,29.93,NW,312,0.0,0.0,52,0.00,,SKC,0.16,VWS V14.01,2013-03-21 05:35:00,
2013-03-21 01:36:00,70.9,52.9,29.93,West,280,0.0,0.0,53,0.00,,SKC,0.16,VWS V14.01,2013-03-21 05:36:00,
2013-03-21 01:37:00,70.7,51.2,29.94,NNW,330,0.0,0.0,50,0.00,,SKC,0.16,VWS V14.01,2013-03-21 05:37:00,
2013-03-21 01:38:00,70.6,52.1,29.94,NW,310,0.0,0.0,52,0.00,,SKC,0.16,VWS V14.01,2013-03-21 05:38:00,
2013-03-21 01:39:00,70.5,52.0,29.94,WNW,286,0.0,0.0,52,0.00,,SKC,0.16,VWS V14.01,2013-03-21 05:39:00,
2013-03-21 01:40:00,70.4,52.0,29.94,West,265,0.0,0.0,52,0.00,,SKC,0.16,VWS V14.01,2013-03-21 05:40:00,
2013-03-21 01:41:00,70.2,51.8,29.93,WNW,283,0.0,0.0,52,0.00,,SKC,0.16,VWS V14.01,2013-03-21 05:41:00,
2013-03-21 01:42:00,70.2,52.8,29.93,WNW,284,0.0,0.0,54,0.00,,SKC,0.16,VWS V14.01,2013-03-21 05:42:00,
2013-03-21 01:43:00,70.1,52.7,29.93,NW,310,0.0,0.0,54,0.00,,SKC,0.16,VWS V14.01,2013-03-21 05:43:00,
2013-03-21 01:44:00,69.9,51.5,29.93,WNW,286,0.0,0.0,52,0.00,,SKC,0.16,VWS V14.01,2013-03-21 05:44:00,
2013-03-21 01:45:00,69.8,51.4,29.93,West,281,0.0,0.0,52,0.00,,SKC,0.16,VWS V14.01,2013-03-21 05:45:00,
2013-03-21 01:46:00,69.8,52.4,29.93,NW,317,0.0,0.0,54,0.00,,SKC,0.16,VWS V14.01,2013-03-21 05:46:00,
2013-03-21 01:47:00,69.8,52.4,29.93,WNW,288,0.0,0.0,54,0.00,,SKC,0.16,VWS V14.01,2013-03-21 05:47:00,
2013-03-21 01:48:00,69.8,51.9,29.94,NW,309,0.0,0.0,53,0.00,,SKC,0.16,VWS V14.01,2013-03-21 05:48:00,
2013-03-21 01:49:00,69.9,51.5,29.93,WNW,288,0.0,0.0,52,0.00,,SKC,0.16,VWS V14.01,2013-03-21 05:49:00,
2013-03-21 01:50:00,70.1,51.7,29.93,NNW,327,0.0,0.0,52,0.00,,SKC,0.16,VWS V14.01,2013-03-21 05:50:00,
2013-03-21 01:51:00,70.2,52.8,29.94,NW,310,0.0,0.0,54,0.00,,SKC,0.16,VWS V14.01,2013-03-21 05:51:00,
2013-03-21 01:52:00,70.4,52.0,29.94,WNW,297,0.0,0.0,52,0.00,,SKC,0.16,VWS V14.01,2013-03-21 05:52:00,
2013-03-21 01:53:00,70.5,52.0,29.94,WNW,297,0.0,0.0,52,0.00,,SKC,0.16,VWS V14.01,2013-03-21 05:53:00,
2013-03-21 01:54:00,70.7,52.8,29.93,WNW,297,0.0,0.0,53,0.00,,SKC,0.16,VWS V14.01,2013-03-21 05:54:00,
2013-03-21 01:55:00,70.8,52.8,29.93,WNW,294,0.0,0.0,53,0.00,,SKC,0.16,VWS V14.01,2013-03-21 05:55:00,
2013-03-21 01:56:00,71.0,52.0,29.93,SW,231,0.0,0.0,51,0.00,,SKC,0.16,VWS V14.01,2013-03-21 05:56:00,
2013-03-21 01:57:00,71.0,52.0,29.93,West,269,0.0,0.0,51,0.00,,SKC,0.16,VWS V14.01,2013-03-21 05:57:00,
2013-03-21 01:58:00,70.9,51.3,29.94,NW,307,0.0,0.0,50,0.00,,SKC,0.16,VWS V14.01,2013-03-21 05:58:00,
2013-03-21 01:59:00,70.8,51.8,29.94,WNW,293,0.0,0.0,51,0.00,,SKC,0.16,VWS V14.01,2013-03-21 05:59:00,
2013-03-21 02:00:00,70.8,51.8,29.94,West,271,0.0,0.0,51,0.00,,SKC,0.16,VWS V14.01,2013-03-21 06:00:00,
2013-03-21 02:01:00,70.7,51.7,29.94,WNW,284,0.0,0.0,51,0.00,,SKC,0.16,VWS V14.01,2013-03-21 06:01:00,
2013-03-21 02:02:00,70.6,51.6,29.94,West,281,0.0,0.0,51,0.00,,SKC,0.16,VWS V14.01,2013-03-21 06:02:00,
2013-03-21 02:03:00,70.6,51.6,29.94,NW,323,0.0,0.0,51,0.00,,SKC,0.16,VWS V14.01,2013-03-21 06:03:00,
2013-03-21 02:04:00,70.5,51.0,29.94,West,276,0.0,0.0,50,0.00,,SKC,0.16,VWS V14.01,2013-03-21 06:04:00,
2013-03-21 02:05:00,70.5,51.5,29.93,SW,230,0.0,0.0,51,0.00,,SKC,0.16,VWS V14.01,2013-03-21 06:05:00,
2013-03-21 02:06:00,70.6,51.6,29.93,SW,225,0.0,0.0,51,0.00,,SKC,0.16,VWS V14.01,2013-03-21 06:06:00,
2013-03-21 02:07:00,70.7,52.8,29.94,WNW,284,0.0,0.0,53,0.00,,SKC,0.16,VWS V14.01,2013-03-21 06:07:00,
2013-03-21 02:08:00,70.8,52.3,29.94,WNW,302,0.0,0.0,52,0.00,,SKC,0.16,VWS V14.01,2013-03-21 06:08:00,
2013-03-21 02:09:00,71.0,52.5,29.94,WNW,287,0.0,0.0,52,0.00,,SKC,0.16,VWS V14.01,2013-03-21 06:09:00,
2013-03-21 02:10:00,71.1,52.1,29.94,WNW,301,0.0,0.0,51,0.00,,SKC,0.16,VWS V14.01,2013-03-21 06:10:00,
2013-03-21 02:11:00,71.2,52.2,29.94,NW,309,0.0,0.0,51,0.00,,SKC,0.16,VWS V14.01,2013-03-21 06:11:00,
2013-03-21 02:12:00,71.3,51.7,29.94,NW,319,0.0,0.0,50,0.00,,SKC,0.16,VWS V14.01,2013-03-21 06:12:00,
2013-03-21 02:13:00,71.4,52.3,29.93,NW,319,0.0,0.0,51,0.00,,SKC,0.16,VWS V14.01,2013-03-21 06:13:00,
2013-03-21 02:14:00,71.6,53.6,29.93,WNW,302,0.0,0.0,53,0.00,,SKC,0.16,VWS V14.01,2013-03-21 06:14:00,
2013-03-21 02:15:00,71.7,52.6,29.93,WNW,284,0.0,0.0,51,0.00,,SKC,0.16,VWS V14.01,2013-03-21 06:15:00,
2013-03-21 02:16:00,71.7,51.5,29.93,West,272,0.0,0.0,49,0.00,,SKC,0.16,VWS V14.01,2013-03-21 06:16:00,
2013-03-21 02:17:00,71.7,51.5,29.93,West,271,0.0,0.0,49,0.00,,SKC,0.16,VWS V14.01,2013-03-21 06:17:00,
2013-03-21 02:18:00,71.7,51.5,29.93,West,274,0.0,0.0,49,0.00,,SKC,0.16,VWS V14.01,2013-03-21 06:18:00,
2013-03-21 02:19:00,71.7,51.5,29.93,NNW,333,0.0,0.0,49,0.00,,SKC,0.16,VWS V14.01,2013-03-21 06:19:00,
2013-03-21 02:20:00,71.6,50.9,29.93,West,279,0.0,0.0,48,0.00,,SKC,0.16,VWS V14.01,2013-03-21 06:20:00,
2013-03-21 02:21:00,71.5,50.8,29.93,WNW,290,0.0,0.0,48,0.00,,SKC,0.16,VWS V14.01,2013-03-21 06:21:00,
2013-03-21 02:22:00,71.4,51.8,29.93,WNW,287,0.0,0.0,50,0.00,,SKC,0.16,VWS V14.01,2013-03-21 06:22:00,
2013-03-21 02:23:00,71.3,51.7,29.93,WNW,288,0.0,0.0,50,0.00,,SKC,0.16,VWS V14.01,2013-03-21 06:23:00,
2013-03-21 02:24:00,71.4,51.8,29.93,West,275,0.0,0.0,50,0.00,,SKC,0.16,VWS V14.01,2013-03-21 06:24:00,
2013-03-21 02:25:00,71.4,51.3,29.93,WNW,289,0.0,0.0,49,0.00,,SKC,0.16,VWS V14.01,2013-03-21 06:25:00,
2013-03-21 02:26:00,71.5,51.4,29.93,West,259,0.0,0.0,49,0.00,,SKC,0.16,VWS V14.01,2013-03-21 06:26:00,
2013-03-21 02:27:00,71.6,51.5,29.93,West,259,0.0,0.0,49,0.00,,SKC,0.16,VWS V14.01,2013-03-21 06:27:00,
2013-03-21 02:28:00,71.7,52.1,29.93,West,259,0.0,0.0,50,0.00,,SKC,0.16,VWS V14.01,2013-03-21 06:28:00,
2013-03-21 02:29:00,71.9,51.7,29.93,West,259,0.0,0.0,49,0.00,,SKC,0.16,VWS V14.01,2013-03-21 06:29:00,
2013-03-21 02:30:00,72.0,51.3,29.93,West,275,0.0,0.0,48,0.00,,SKC,0.16,VWS V14.01,2013-03-21 06:30:00,
2013-03-21 02:31:00,72.1,50.2,29.93,West,275,0.0,0.0,46,0.00,,SKC,0.16,VWS V14.01,2013-03-21 06:31:00,
2013-03-21 02:32:00,72.1,51.3,29.93,West,275,0.0,0.0,48,0.00,,SKC,0.16,VWS V14.01,2013-03-21 06:32:00,
2013-03-21 02:33:00,72.2,51.4,29.93,West,275,0.0,0.0,48,0.00,,SKC,0.16,VWS V14.01,2013-03-21 06:33:00,
2013-03-21 02:34:00,72.3,51.5,29.93,WSW,249,0.0,0.0,48,0.00,,SKC,0.16,VWS V14.01,2013-03-21 06:34:00,
2013-03-21 02:35:00,72.3,52.1,29.93,WNW,288,0.0,0.0,49,0.00,,SKC,0.16,VWS V14.01,2013-03-21 06:35:00,
2013-03-21 02:36:00,72.4,51.6,29.93,NW,309,0.0,0.0,48,0.00,,SKC,0.16,VWS V14.01,2013-03-21 06:36:00,
2013-03-21 02:37:00,72.4,50.5,29.93,NNW,327,0.0,0.0,46,0.00,,SKC,0.16,VWS V14.01,2013-03-21 06:37:00,
2013-03-21 02:38:00,72.4,51.6,29.93,West,263,0.0,0.0,48,0.00,,SKC,0.16,VWS V14.01,2013-03-21 06:38:00,
2013-03-21 02:39:00,72.4,51.6,29.93,WNW,291,0.0,0.0,48,0.00,,SKC,0.16,VWS V14.01,2013-03-21 06:39:00,
2013-03-21 02:40:00,72.4,51.0,29.93,WNW,293,0.0,0.0,47,0.00,,SKC,0.16,VWS V14.01,2013-03-21 06:40:00,
2013-03-21 02:41:00,72.4,52.2,29.93,WNW,292,0.0,0.0,49,0.00,,SKC,0.16,VWS V14.01,2013-03-21 06:41:00,
2013-03-21 02:42:00,72.5,51.7,29.92,NW,304,0.0,0.0,48,0.00,,SKC,0.16,VWS V14.01,2013-03-21 06:42:00,
2013-03-21 02:43:00,72.6,53.5,29.92,West,267,0.0,0.0,51,0.00,,SKC,0.16,VWS V14.01,2013-03-21 06:43:00,
2013-03-21 02:44:00,72.7,50.2,29.92,WNW,302,0.0,0.0,45,0.00,,SKC,0.16,VWS V14.01,2013-03-21 06:44:00,
2013-03-21 02:45:00,72.5,50.0,29.92,West,279,0.0,0.0,45,0.00,,SKC,0.16,VWS V14.01,2013-03-21 06:45:00,
2013-03-21 02:46:00,72.4,51.0,29.92,WNW,286,0.0,0.0,47,0.00,,SKC,0.16,VWS V14.01,2013-03-21 06:46:00,
2013-03-21 02:47:00,72.3,51.5,29.92,WNW,284,0.0,0.0,48,0.00,,SKC,0.16,VWS V14.01,2013-03-21 06:47:00,
2013-03-21 02:48:00,72.2,51.4,29.92,NNW,334,0.0,0.0,48,0.00,,SKC,0.16,VWS V14.01,2013-03-21 06:48:00,
2013-03-21 02:49:00,72.2,50.3,29.92,WNW,282,0.0,0.0,46,0.00,,SKC,0.16,VWS V14.01,2013-03-21 06:49:00,
2013-03-21 02:50:00,72.2,51.4,29.92,WNW,292,0.0,0.0,48,0.00,,SKC,0.16,VWS V14.01,2013-03-21 06:50:00,
2013-03-21 02:51:00,72.2,51.4,29.92,WNW,296,0.0,0.0,48,0.00,,SKC,0.16,VWS V14.01,2013-03-21 06:51:00,
2013-03-21 02:52:00,72.3,51.5,29.92,WNW,298,0.0,0.0,48,0.00,,SKC,0.16,VWS V14.01,2013-03-21 06:52:00,
2013-03-21 02:53:00,72.4,51.6,29.92,WNW,294,0.0,0.0,48,0.00,,SKC,0.16,VWS V14.01,2013-03-21 06:53:00,
2013-03-21 02:54:00,72.5,51.2,29.92,WNW,287,0.0,0.0,47,0.00,,SKC,0.16,VWS V14.01,2013-03-21 06:54:00,
2013-03-21 02:55:00,72.5,51.7,29.92,West,268,0.0,0.0,48,0.00,,SKC,0.16,VWS V14.01,2013-03-21 06:55:00,
2013-03-21 02:56:00,72.5,51.2,29.92,WNW,288,0.0,0.0,47,0.00,,SKC,0.16,VWS V14.01,2013-03-21 06:56:00,
2013-03-21 02:57:00,72.5,51.7,29.92,WNW,289,0.0,0.0,48,0.00,,SKC,0.16,VWS V14.01,2013-03-21 06:57:00,
2013-03-21 02:58:00,72.5,51.2,29.92,NW,311,0.0,0.0,47,0.00,,SKC,0.16,VWS V14.01,2013-03-21 06:58:00,
2013-03-21 02:59:00,72.6,52.4,29.92,West,273,0.0,0.0,49,0.00,,SKC,0.16,VWS V14.01,2013-03-21 06:59:00,
2013-03-21 03:00:00,72.7,51.9,29.92,WNW,284,0.0,0.0,48,0.00,,SKC,0.16,VWS V14.01,2013-03-21 07:00:00,
2013-03-21 03:01:00,72.8,52.5,29.92,WNW,282,0.0,0.0,49,0.00,,SKC,0.16,VWS V14.01,2013-03-21 07:01:00,
2013-03-21 03:02:00,72.9,51.5,29.92,NW,304,0.0,0.0,47,0.00,,SKC,0.16,VWS V14.01,2013-03-21 07:02:00,
2013-03-21 03:03:00,73.0,52.2,29.92,NW,304,0.0,0.0,48,0.00,,SKC,0.16,VWS V14.01,2013-03-21 07:03:00,
2013-03-21 03:04:00,73.1,52.3,29.92,NW,304,0.0,0.0,48,0.00,,SKC,0.16,VWS V14.01,2013-03-21 07:04:00,
2013-03-21 03:05:00,73.2,51.2,29.92,WNW,293,0.0,0.0,46,0.00,,SKC,0.16,VWS V14.01,2013-03-21 07:05:00,
2013-03-21 03:06:00,73.3,51.9,29.92,NW,325,0.0,0.0,47,0.00,,SKC,0.16,VWS V14.01,2013-03-21 07:06:00,
2013-03-21 03:07:00,73.3,50.7,29.92,West,272,0.0,0.0,45,0.00,,SKC,0.16,VWS V14.01,2013-03-21 07:07:00,
2013-03-21 03:08:00,73.2,50.6,29.92,NW,322,0.0,0.0,45,0.00,,SKC,0.16,VWS V14.01,2013-03-21 07:08:00,
2013-03-21 03:09:00,73.0,50.4,29.92,West,278,0.0,0.0,45,0.00,,SKC,0.16,VWS V14.01,2013-03-21 07:09:00,
2013-03-21 03:10:00,72.9,50.9,29.92,NE,48,0.0,0.0,46,0.00,,SKC,0.16,VWS V14.01,2013-03-21 07:10:00,
2013-03-21 03:11:00,72.9,50.9,29.92,WNW,292,0.0,0.0,46,0.00,,SKC,0.16,VWS V14.01,2013-03-21 07:11:00,
2013-03-21 03:12:00,72.9,50.9,29.92,NW,314,0.0,0.0,46,0.00,,SKC,0.16,VWS V14.01,2013-03-21 07:12:00,
2013-03-21 03:13:00,72.9,50.3,29.92,West,271,0.0,0.0,45,0.00,,SKC,0.16,VWS V14.01,2013-03-21 07:13:00,
2013-03-21 03:14:00,72.8,49.6,29.92,WNW,292,0.0,0.0,44,0.00,,SKC,0.16,VWS V14.01,2013-03-21 07:14:00,
2013-03-21 03:15:00,72.8,51.4,29.92,West,281,0.0,0.0,47,0.00,,SKC,0.16,VWS V14.01,2013-03-21 07:15:00,
2013-03-21 03:16:00,72.9,51.5,29.92,WNW,296,0.0,0.0,47,0.00,,SKC,0.16,VWS V14.01,2013-03-21 07:16:00,
2013-03-21 03:17:00,73.0,52.2,29.92,North,349,0.0,0.0,48,0.00,,SKC,0.16,VWS V14.01,2013-03-21 07:17:00,
2013-03-21 03:18:00,73.1,51.7,29.92,WNW,288,0.0,0.0,47,0.00,,SKC,0.16,VWS V14.01,2013-03-21 07:18:00,
2013-03-21 03:19:00,73.3,50.7,29.92,West,269,0.0,0.0,45,0.00,,SKC,0.16,VWS V14.01,2013-03-21 07:19:00,
2013-03-21 03:20:00,73.2,49.4,29.91,WNW,298,0.0,0.0,43,0.00,,SKC,0.16,VWS V14.01,2013-03-21 07:20:00,
2013-03-21 03:21:00,73.2,50.6,29.91,WNW,298,0.0,0.0,45,0.00,,SKC,0.16,VWS V14.01,2013-03-21 07:21:00,
2013-03-21 03:22:00,73.1,51.1,29.91,NW,305,0.0,0.0,46,0.00,,SKC,0.16,VWS V14.01,2013-03-21 07:22:00,
2013-03-21 03:23:00,73.1,51.1,29.91,NW,305,0.0,0.0,46,0.00,,SKC,0.16,VWS V14.01,2013-03-21 07:23:00,
2013-03-21 03:24:00,73.2,50.0,29.91,NW,306,0.0,0.0,44,0.00,,SKC,0.16,VWS V14.01,2013-03-21 07:24:00,
2013-03-21 03:25:00,73.2,50.6,29.91,NW,304,0.0,0.0,45,0.00,,SKC,0.16,VWS V14.01,2013-03-21 07:25:00,
2013-03-21 03:26:00,73.3,50.1,29.91,West,271,0.0,0.0,44,0.00,,SKC,0.16,VWS V14.01,2013-03-21 07:26:00,
2013-03-21 03:27:00,73.2,49.4,29.91,NW,309,0.0,0.0,43,0.00,,SKC,0.16,VWS V14.01,2013-03-21 07:27:00,
2013-03-21 03:28:00,73.1,49.9,29.91,NW,310,0.0,0.0,44,0.00,,SKC,0.16,VWS V14.01,2013-03-21 07:28:00,
2013-03-21 03:29:00,72.9,49.1,29.91,WNW,302,0.0,0.0,43,0.00,,SKC,0.16,VWS V14.01,2013-03-21 07:29:00,
2013-03-21 03:30:00,72.8,49.0,29.91,WNW,284,0.0,0.0,43,0.00,,SKC,0.16,VWS V14.01,2013-03-21 07:30:00,
2013-03-21 03:31:00,72.6,48.8,29.91,WNW,282,0.0,0.0,43,0.00,,SKC,0.16,VWS V14.01,2013-03-21 07:31:00,
2013-03-21 03:32:00,72.5,49.4,29.91,WNW,282,0.0,0.0,44,0.00,,SKC,0.16,VWS V14.01,2013-03-21 07:32:00,
2013-03-21 03:33:00,72.5,48.8,29.91,West,280,0.0,0.0,43,0.00,,SKC,0.16,VWS V14.01,2013-03-21 07:33:00,
2013-03-21 03:34:00,72.6,50.7,29.91,WSW,247,0.0,0.0,46,0.00,,SKC,0.16,VWS V14.01,2013-03-21 07:34:00,
2013-03-21 03:35:00,72.7,50.8,29.91,North,5,0.0,0.0,46,0.00,,SKC,0.16,VWS V14.01,2013-03-21 07:35:00,
2013-03-21 03:36:00,72.8,49.6,29.91,WNW,291,0.0,0.0,44,0.00,,SKC,0.16,VWS V14.01,2013-03-21 07:36:00,
2013-03-21 03:37:00,72.8,49.0,29.91,NW,307,0.0,0.0,43,0.00,,SKC,0.16,VWS V14.01,2013-03-21 07:37:00,
2013-03-21 03:38:00,72.8,49.6,29.91,West,278,0.0,0.0,44,0.00,,SKC,0.16,VWS V14.01,2013-03-21 07:38:00,
2013-03-21 03:39:00,72.7,49.5,29.91,WNW,300,0.0,0.0,44,0.00,,SKC,0.16,VWS V14.01,2013-03-21 07:39:00,
2013-03-21 03:40:00,72.6,48.8,29.91,WNW,297,0.0,0.0,43,0.00,,SKC,0.16,VWS V14.01,2013-03-21 07:40:00,
2013-03-21 03:41:00,72.6,49.5,29.91,WNW,290,0.0,0.0,44,0.00,,SKC,0.16,VWS V14.01,2013-03-21 07:41:00,
2013-03-21 03:42:00,72.6,48.8,29.91,WNW,294,0.0,0.0,43,0.00,,SKC,0.16,VWS V14.01,2013-03-21 07:42:00,
2013-03-21 03:43:00,72.6,48.8,29.90,WNW,292,0.0,0.0,43,0.00,,SKC,0.16,VWS V14.01,2013-03-21 07:43:00,
2013-03-21 03:44:00,72.7,49.5,29.90,WNW,293,0.0,0.0,44,0.00,,SKC,0.16,VWS V14.01,2013-03-21 07:44:00,
2013-03-21 03:45:00,72.7,50.2,29.90,WNW,292,0.0,0.0,45,0.00,,SKC,0.16,VWS V14.01,2013-03-21 07:45:00,
2013-03-21 03:46:00,72.9,49.1,29.90,WNW,300,0.0,0.0,43,0.00,,SKC,0.16,VWS V14.01,2013-03-21 07:46:00,
2013-03-21 03:47:00,73.0,49.2,29.90,West,265,0.0,0.0,43,0.00,,SKC,0.16,VWS V14.01,2013-03-21 07:47:00,
2013-03-21 03:48:00,73.2,49.4,29.90,West,275,0.0,0.0,43,0.00,,SKC,0.16,VWS V14.01,2013-03-21 07:48:00,
2013-03-21 03:49:00,73.4,50.2,29.90,West,275,0.0,0.0,44,0.00,,SKC,0.16,VWS V14.01,2013-03-21 07:49:00,
2013-03-21 03:50:00,73.5,50.3,29.90,West,275,0.0,0.0,44,0.00,,SKC,0.16,VWS V14.01,2013-03-21 07:50:00,
2013-03-21 03:51:00,73.7,50.5,29.90,West,280,0.0,0.0,44,0.00,,SKC,0.16,VWS V14.01,2013-03-21 07:51:00,
2013-03-21 03:52:00,73.9,52.4,29.90,NW,306,0.0,0.0,47,0.00,,SKC,0.16,VWS V14.01,2013-03-21 07:52:00,
2013-03-21 03:53:00,73.9,50.0,29.90,WNW,292,0.0,0.0,43,0.00,,SKC,0.16,VWS V14.01,2013-03-21 07:53:00,
2013-03-21 03:54:00,74.0,50.1,29.90,WNW,286,0.0,0.0,43,0.00,,SKC,0.16,VWS V14.01,2013-03-21 07:54:00,
2013-03-21 03:55:00,74.0,49.5,29.90,WNW,297,0.0,0.0,42,0.00,,SKC,0.16,VWS V14.01,2013-03-21 07:55:00,
2013-03-21 03:56:00,73.8,49.3,29.90,WNW,302,0.0,0.0,42,0.00,,SKC,0.16,VWS V14.01,2013-03-21 07:56:00,
2013-03-21 03:57:00,73.7,49.2,29.90,West,276,0.0,0.0,42,0.00,,SKC,0.16,VWS V14.01,2013-03-21 07:57:00,
2013-03-21 03:58:00,73.4,48.3,29.90,WNW,283,0.0,0.0,41,0.00,,SKC,0.16,VWS V14.01,2013-03-21 07:58:00,
2013-03-21 03:59:00,73.3,48.8,29.90,WNW,290,0.0,0.0,42,0.00,,SKC,0.16,VWS V14.01,2013-03-21 07:59:00,
2013-03-21 04:00:00,73.2,49.4,29.90,WNW,285,0.0,0.0,43,0.00,,SKC,0.16,VWS V14.01,2013-03-21 08:00:00,
2013-03-21 04:01:00,73.2,49.4,29.89,WNW,282,0.0,0.0,43,0.00,,SKC,0.16,VWS V14.01,2013-03-21 08:01:00,
2013-03-21 04:02:00,73.3,50.7,29.90,WNW,282,0.0,0.0,45,0.00,,SKC,0.16,VWS V14.01,2013-03-21 08:02:00,
2013-03-21 04:03:00,73.4,50.2,29.90,WNW,299,0.0,0.0,44,0.00,,SKC,0.16,VWS V14.01,2013-03-21 08:03:00,
2013-03-21 04:04:00,73.5,49.7,29.90,WNW,297,0.0,0.0,43,0.00,,SKC,0.16,VWS V14.01,2013-03-21 08:04:00,
2013-03-21 04:05:00,73.6,50.4,29.90,West,273,0.0,0.0,44,0.00,,SKC,0.16,VWS V14.01,2013-03-21 08:05:00,
2013-03-21 04:06:00,73.7,50.5,29.90,West,281,0.0,0.0,44,0.00,,SKC,0.16,VWS V14.01,2013-03-21 08:06:00,
2013-03-21 04:07:00,73.7,49.2,29.89,NNW,328,0.0,0.0,42,0.00,,SKC,0.16,VWS V14.01,2013-03-21 08:07:00,
2013-03-21 04:08:00,73.7,49.8,29.90,West,280,0.0,0.0,43,0.00,,SKC,0.16,VWS V14.01,2013-03-21 08:08:00,
2013-03-21 04:09:00,73.7,49.2,29.89,WNW,292,0.0,0.0,42,0.00,,SKC,0.16,VWS V14.01,2013-03-21 08:09:00,
2013-03-21 04:10:00,73.7,49.8,29.90,WNW,285,0.0,0.0,43,0.00,,SKC,0.16,VWS V14.01,2013-03-21 08:10:00,
2013-03-21 04:11:00,73.7,49.8,29.90,NW,309,0.0,0.0,43,0.00,,SKC,0.16,VWS V14.01,2013-03-21 08:11:00,
2013-03-21 04:12:00,73.7,49.2,29.90,WNW,286,0.0,0.0,42,0.00,,SKC,0.16,VWS V14.01,2013-03-21 08:12:00,
2013-03-21 04:13:00,73.7,49.8,29.89,WNW,288,0.0,0.0,43,0.00,,SKC,0.16,VWS V14.01,2013-03-21 08:13:00,
2013-03-21 04:14:00,73.7,49.8,29.90,NW,304,0.0,0.0,43,0.00,,SKC,0.16,VWS V14.01,2013-03-21 08:14:00,
2013-03-21 04:15:00,73.8,49.9,29.90,NW,309,0.0,0.0,43,0.00,,SKC,0.16,VWS V14.01,2013-03-21 08:15:00,
2013-03-21 04:16:00,73.9,48.7,29.90,WNW,294,0.0,0.0,41,0.00,,SKC,0.16,VWS V14.01,2013-03-21 08:16:00,
2013-03-21 04:17:00,73.9,48.7,29.90,WNW,294,0.0,0.0,41,0.00,,SKC,0.16,VWS V14.01,2013-03-21 08:17:00,
2013-03-21 04:18:00,73.9,50.6,29.89,WNW,294,0.0,0.0,44,0.00,,SKC,0.16,VWS V14.01,2013-03-21 08:18:00,
2013-03-21 04:19:00,74.0,50.7,29.90,WNW,294,0.0,0.0,44,0.00,,SKC,0.16,VWS V14.01,2013-03-21 08:19:00,
2013-03-21 04:20:00,74.1,50.8,29.89,WSW,248,0.0,0.0,44,0.00,,SKC,0.16,VWS V14.01,2013-03-21 08:20:00,
2013-03-21 04:21:00,74.3,51.0,29.89,NNW,341,0.0,0.0,44,0.00,,SKC,0.16,VWS V14.01,2013-03-21 08:21:00,
2013-03-21 04:22:00,74.5,53.0,29.90,WNW,298,0.0,0.0,47,0.00,,SKC,0.16,VWS V14.01,2013-03-21 08:22:00,
2013-03-21 04:23:00,74.7,51.4,29.90,WNW,299,0.0,0.0,44,0.00,,SKC,0.16,VWS V14.01,2013-03-21 08:23:00,
2013-03-21 04:24:00,74.8,50.2,29.90,WNW,299,0.0,0.0,42,0.00,,SKC,0.16,VWS V14.01,2013-03-21 08:24:00,
2013-03-21 04:25:00,75.0,50.4,29.90,WNW,299,0.0,0.0,42,0.00,,SKC,0.16,VWS V14.01,2013-03-21 08:25:00,
2013-03-21 04:26:00,75.0,49.1,29.89,WNW,299,0.0,0.0,40,0.00,,SKC,0.16,VWS V14.01,2013-03-21 08:26:00,
2013-03-21 04:27:00,75.0,51.0,29.89,WNW,298,0.0,0.0,43,0.00,,SKC,0.16,VWS V14.01,2013-03-21 08:27:00,
2013-03-21 04:28:00,75.0,52.8,29.89,NW,305,0.0,0.0,46,0.00,,SKC,0.16,VWS V14.01,2013-03-21 08:28:00,
2013-03-21 04:29:00,75.0,49.7,29.89,NW,305,0.0,0.0,41,0.00,,SKC,0.16,VWS V14.01,2013-03-21 08:29:00,
2013-03-21 04:30:00,75.0,49.7,29.89,WNW,300,0.0,0.0,41,0.00,,SKC,0.16,VWS V14.01,2013-03-21 08:30:00,
2013-03-21 04:31:00,75.0,50.4,29.89,WNW,299,0.0,0.0,42,0.00,,SKC,0.16,VWS V14.01,2013-03-21 08:31:00,
2013-03-21 04:32:00,75.1,51.7,29.89,WNW,293,0.0,0.0,44,0.00,,SKC,0.16,VWS V14.01,2013-03-21 08:32:00,
2013-03-21 04:33:00,75.1,50.5,29.89,WNW,282,0.0,0.0,42,0.00,,SKC,0.16,VWS V14.01,2013-03-21 08:33:00,
2013-03-21 04:34:00,74.9,49.6,29.89,West,269,0.0,0.0,41,0.00,,SKC,0.16,VWS V14.01,2013-03-21 08:34:00,
2013-03-21 04:35:00,74.8,48.9,29.89,NNW,338,0.0,0.0,40,0.00,,SKC,0.16,VWS V14.01,2013-03-21 08:35:00,
2013-03-21 04:36:00,74.6,48.7,29.89,WNW,301,0.0,0.0,40,0.00,,SKC,0.16,VWS V14.01,2013-03-21 08:36:00,
2013-03-21 04:37:00,74.5,49.3,29.89,WNW,294,0.0,0.0,41,0.00,,SKC,0.16,VWS V14.01,2013-03-21 08:37:00,
2013-03-21 04:38:00,74.4,48.5,29.89,WNW,290,0.0,0.0,40,0.00,,SKC,0.16,VWS V14.01,2013-03-21 08:38:00,
2013-03-21 04:39:00,74.3,49.8,29.89,NW,304,0.0,0.0,42,0.00,,SKC,0.16,VWS V14.01,2013-03-21 08:39:00,
2013-03-21 04:40:00,74.4,51.1,29.89,NW,304,0.0,0.0,44,0.00,,SKC,0.16,VWS V14.01,2013-03-21 08:40:00,
2013-03-21 04:41:00,74.6,50.7,29.89,WNW,289,0.0,0.0,43,0.00,,SKC,0.16,VWS V14.01,2013-03-21 08:41:00,
2013-03-21 04:42:00,74.7,49.5,29.89,NW,310,0.0,0.0,41,0.00,,SKC,0.16,VWS V14.01,2013-03-21 08:42:00,
2013-03-21 04:43:00,74.7,50.1,29.89,WNW,285,0.0,0.0,42,0.00,,SKC,0.16,VWS V14.01,2013-03-21 08:43:00,
2013-03-21 04:44:00,74.8,50.2,29.89,West,277,0.0,0.0,42,0.00,,SKC,0.16,VWS V14.01,2013-03-21 08:44:00,
2013-03-21 04:45:00,74.8,50.2,29.89,West,277,0.0,0.0,42,0.00,,SKC,0.16,VWS V14.01,2013-03-21 08:45:00,
2013-03-21 04:46:00,74.8,49.5,29.88,West,281,0.0,0.0,41,0.00,,SKC,0.16,VWS V14.01,2013-03-21 08:46:00,
2013-03-21 04:47:00,74.8,49.5,29.89,North,360,0.0,0.0,41,0.00,,SKC,0.16,VWS V14.01,2013-03-21 08:47:00,
2013-03-21 04:48:00,74.8,49.5,29.89,WNW,294,0.0,0.0,41,0.00,,SKC,0.16,VWS V14.01,2013-03-21 08:48:00,
2013-03-21 04:49:00,74.8,48.9,29.88,NW,317,0.0,0.0,40,0.00,,SKC,0.16,VWS V14.01,2013-03-21 08:49:00,
2013-03-21 04:50:00,74.8,50.2,29.88,WNW,285,0.0,0.0,42,0.00,,SKC,0.16,VWS V14.01,2013-03-21 08:50:00,
2013-03-21 04:51:00,74.7,49.5,29.88,WNW,284,0.0,0.0,41,0.00,,SKC,0.16,VWS V14.01,2013-03-21 08:51:00,
2013-03-21 04:52:00,74.8,50.8,29.88,NNW,336,0.0,0.0,43,0.00,,SKC,0.16,VWS V14.01,2013-03-21 08:52:00,
2013-03-21 04:53:00,74.9,50.9,29.88,ENE,69,0.0,0.0,43,0.00,,SKC,0.16,VWS V14.01,2013-03-21 08:53:00,
2013-03-21 04:54:00,75.0,50.4,29.88,ENE,59,0.0,0.0,42,0.00,,SKC,0.16,VWS V14.01,2013-03-21 08:54:00,
2013-03-21 04:55:00,75.1,51.1,29.88,WNW,294,0.0,0.0,43,0.00,,SKC,0.16,VWS V14.01,2013-03-21 08:55:00,
2013-03-21 04:56:00,75.2,51.2,29.88,WNW,288,0.0,0.0,43,0.00,,SKC,0.16,VWS V14.01,2013-03-21 08:56:00,
2013-03-21 04:57:00,75.3,50.7,29.88,WNW,296,0.0,0.0,42,0.00,,SKC,0.16,VWS V14.01,2013-03-21 08:57:00,
2013-03-21 04:58:00,75.4,51.4,29.88,WNW,287,0.0,0.0,43,0.00,,SKC,0.16,VWS V14.01,2013-03-21 08:58:00,
2013-03-21 04:59:00,75.5,50.8,29.88,WNW,287,0.0,0.0,42,0.00,,SKC,0.16,VWS V14.01,2013-03-21 08:59:00,
2013-03-21 05:00:00,75.5,50.2,29.88,West,277,0.0,0.0,41,0.00,,SKC,0.16,VWS V14.01,2013-03-21 09:00:00,
2013-03-21 05:01:00,75.5,50.2,29.88,WNW,287,0.0,0.0,41,0.00,,SKC,0.16,VWS V14.01,2013-03-21 09:01:00,
2013-03-21 05:02:00,75.5,50.8,29.88,WNW,288,0.0,0.0,42,0.00,,SKC,0.16,VWS V14.01,2013-03-21 09:02:00,
2013-03-21 05:03:00,75.6,49.6,29.87,WNW,288,0.0,0.0,40,0.00,,SKC,0.16,VWS V14.01,2013-03-21 09:03:00,
2013-03-21 05:04:00,75.6,50.3,29.88,WNW,298,0.0,0.0,41,0.00,,SKC,0.16,VWS V14.01,2013-03-21 09:04:00,
2013-03-21 05:05:00,75.6,49.6,29.88,WNW,298,0.0,0.0,40,0.00,,SKC,0.16,VWS V14.01,2013-03-21 09:05:00,
2013-03-21 05:06:00,75.7,51.0,29.87,WNW,298,0.0,0.0,42,0.00,,SKC,0.16,VWS V14.01,2013-03-21 09:06:00,
2013-03-21 05:07:00,75.8,50.5,29.87,WNW,298,0.0,0.0,41,0.00,,SKC,0.16,VWS V14.01,2013-03-21 09:07:00,
2013-03-21 05:08:00,75.9,49.9,29.87,WNW,298,0.0,0.0,40,0.00,,SKC,0.16,VWS V14.01,2013-03-21 09:08:00,
2013-03-21 05:09:00,76.0,51.3,29.87,WNW,298,0.0,0.0,42,0.00,,SKC,0.16,VWS V14.01,2013-03-21 09:09:00,
2013-03-21 05:10:00,76.1,51.4,29.88,WNW,298,0.0,0.0,42,0.00,,SKC,0.16,VWS V14.01,2013-03-21 09:10:00,
2013-03-21 05:11:00,76.2,49.5,29.88,WNW,284,0.0,0.0,39,0.00,,SKC,0.16,VWS V14.01,2013-03-21 09:11:00,
2013-03-21 05:12:00,76.2,48.8,29.88,WNW,296,0.0,0.0,38,0.00,,SKC,0.16,VWS V14.01,2013-03-21 09:12:00,
2013-03-21 05:13:00,76.0,47.9,29.87,WNW,296,0.0,0.0,37,0.00,,SKC,0.16,VWS V14.01,2013-03-21 09:13:00,
2013-03-21 05:14:00,75.9,48.5,29.88,West,276,0.0,0.0,38,0.00,,SKC,0.16,VWS V14.01,2013-03-21 09:14:00,
2013-03-21 05:15:00,75.8,48.4,29.88,WNW,286,0.0,0.0,38,0.00,,SKC,0.16,VWS V14.01,2013-03-21 09:15:00,
2013-03-21 05:16:00,75.6,48.2,29.87,WNW,286,0.0,0.0,38,0.00,,SKC,0.16,VWS V14.01,2013-03-21 09:16:00,
2013-03-21 05:17:00,75.5,47.4,29.87,West,279,0.0,0.0,37,0.00,,SKC,0.16,VWS V14.01,2013-03-21 09:17:00,
2013-03-21 05:18:00,75.4,48.0,29.87,WNW,292,0.0,0.0,38,0.00,,SKC,0.16,VWS V14.01,2013-03-21 09:18:00,
2013-03-21 05:19:00,75.3,49.3,29.87,WNW,286,0.0,0.0,40,0.00,,SKC,0.16,VWS V14.01,2013-03-21 09:19:00,
2013-03-21 05:20:00,75.3,49.3,29.88,WNW,286,0.0,0.0,40,0.00,,SKC,0.16,VWS V14.01,2013-03-21 09:20:00,
2013-03-21 05:21:00,75.3,48.7,29.88,NW,313,0.0,0.0,39,0.00,,SKC,0.16,VWS V14.01,2013-03-21 09:21:00,
2013-03-21 05:22:00,75.3,48.0,29.87,NW,309,0.0,0.0,38,0.00,,SKC,0.16,VWS V14.01,2013-03-21 09:22:00,
2013-03-21 05:23:00,75.3,48.0,29.87,NW,306,0.0,0.0,38,0.00,,SKC,0.16,VWS V14.01,2013-03-21 09:23:00,
2013-03-21 05:24:00,75.2,47.9,29.87,West,279,0.0,0.0,38,0.00,,SKC,0.16,VWS V14.01,2013-03-21 09:24:00,
2013-03-21 05:25:00,75.1,47.8,29.87,West,276,0.0,0.0,38,0.00,,SKC,0.16,VWS V14.01,2013-03-21 09:25:00,
2013-03-21 05:26:00,75.0,47.0,29.87,SSW,213,0.0,0.0,37,0.00,,SKC,0.16,VWS V14.01,2013-03-21 09:26:00,
2013-03-21 05:27:00,75.0,47.0,29.87,SW,215,0.0,0.0,37,0.00,,SKC,0.16,VWS V14.01,2013-03-21 09:27:00,
2013-03-21 05:28:00,75.0,47.7,29.87,WNW,283,0.0,0.0,38,0.00,,SKC,0.16,VWS V14.01,2013-03-21 09:28:00,
2013-03-21 05:29:00,75.0,48.4,29.88,WNW,297,0.0,0.0,39,0.00,,SKC,0.16,VWS V14.01,2013-03-21 09:29:00,
2013-03-21 05:30:00,75.1,49.2,29.88,WNW,297,0.0,0.0,40,0.00,,SKC,0.16,VWS V14.01,2013-03-21 09:30:00,
2013-03-21 05:31:00,75.2,49.2,29.87,NW,311,0.0,0.0,40,0.00,,SKC,0.16,VWS V14.01,2013-03-21 09:31:00,
2013-03-21 05:32:00,75.3,48.7,29.88,West,277,0.0,0.0,39,0.00,,SKC,0.16,VWS V14.01,2013-03-21 09:32:00,
2013-03-21 05:33:00,75.5,49.5,29.87,West,279,0.0,0.0,40,0.00,,SKC,0.16,VWS V14.01,2013-03-21 09:33:00,
2013-03-21 05:34:00,75.6,48.2,29.87,West,279,0.0,0.0,38,0.00,,SKC,0.16,VWS V14.01,2013-03-21 09:34:00,
2013-03-21 05:35:00,75.7,49.0,29.87,West,279,0.0,0.0,39,0.00,,SKC,0.16,VWS V14.01,2013-03-21 09:35:00,
2013-03-21 05:36:00,75.9,49.2,29.87,West,279,0.0,0.0,39,0.00,,SKC,0.16,VWS V14.01,2013-03-21 09:36:00,
2013-03-21 05:37:00,76.0,47.9,29.87,West,279,0.0,0.0,37,0.00,,SKC,0.16,VWS V14.01,2013-03-21 09:37:00,
2013-03-21 05:38:00,76.2,48.0,29.87,West,279,0.0,0.0,37,0.00,,SKC,0.16,VWS V14.01,2013-03-21 09:38:00,
2013-03-21 05:39:00,76.4,46.0,29.87,NW,313,0.0,0.0,34,0.00,,SKC,0.16,VWS V14.01,2013-03-21 09:39:00,
2013-03-21 05:40:00,76.4,46.0,29.87,NNW,329,0.0,0.0,34,0.00,,SKC,0.16,VWS V14.01,2013-03-21 09:40:00,
2013-03-21 05:41:00,76.4,45.2,29.87,NW,309,0.0,0.0,33,0.00,,SKC,0.16,VWS V14.01,2013-03-21 09:41:00,
2013-03-21 05:42:00,76.4,45.2,29.88,WNW,301,0.0,0.0,33,0.00,,SKC,0.16,VWS V14.01,2013-03-21 09:42:00,
2013-03-21 05:43:00,76.3,45.9,29.88,NW,310,0.0,0.0,34,0.00,,SKC,0.16,VWS V14.01,2013-03-21 09:43:00,
2013-03-21 05:44:00,76.3,44.3,29.87,WNW,295,0.0,0.0,32,0.00,,SKC,0.16,VWS V14.01,2013-03-21 09:44:00,
2013-03-21 05:45:00,76.3,45.1,29.87,WNW,294,0.0,0.0,33,0.00,,SKC,0.16,VWS V14.01,2013-03-21 09:45:00,
2013-03-21 05:46:00,76.3,43.5,29.87,WNW,295,0.0,0.0,31,0.00,,SKC,0.16,VWS V14.01,2013-03-21 09:46:00,
2013-03-21 05:47:00,76.3,45.1,29.87,WNW,299,0.0,0.0,33,0.00,,SKC,0.16,VWS V14.01,2013-03-21 09:47:00,
2013-03-21 05:48:00,76.3,43.5,29.87,WNW,289,0.0,0.0,31,0.00,,SKC,0.16,VWS V14.01,2013-03-21 09:48:00,
2013-03-21 05:50:00,76.2,42.5,29.87,West,276,0.0,0.0,30,0.00,,SKC,0.16,VWS V14.01,2013-03-21 09:50:00,
2013-03-21 05:51:00,76.0,42.4,29.87,WNW,286,0.0,0.0,30,0.00,,SKC,0.16,VWS V14.01,2013-03-21 09:51:00,
2013-03-21 05:52:00,76.0,43.2,29.87,West,281,0.0,0.0,31,0.00,,SKC,0.16,VWS V14.01,2013-03-21 09:52:00,
2013-03-21 05:53:00,75.9,44.8,29.87,WNW,284,0.0,0.0,33,0.00,,SKC,0.16,VWS V14.01,2013-03-21 09:53:00,
2013-03-21 05:54:00,75.9,44.0,29.87,WNW,283,0.0,0.0,32,0.00,,SKC,0.16,VWS V14.01,2013-03-21 09:54:00,
2013-03-21 05:55:00,75.9,44.0,29.87,WNW,282,0.0,0.0,32,0.00,,SKC,0.16,VWS V14.01,2013-03-21 09:55:00,
2013-03-21 05:56:00,76.0,45.6,29.87,WNW,292,0.0,0.0,34,0.00,,SKC,0.16,VWS V14.01,2013-03-21 09:56:00,
2013-03-21 05:57:00,76.1,43.3,29.87,WNW,297,0.0,0.0,31,0.00,,SKC,0.16,VWS V14.01,2013-03-21 09:57:00,
2013-03-21 05:58:00,76.2,43.4,29.87,NW,314,0.0,0.0,31,0.00,,SKC,0.16,VWS V14.01,2013-03-21 09:58:00,
2013-03-21 05:59:00,76.3,42.6,29.87,NW,314,0.0,0.0,30,0.00,,SKC,0.16,VWS V14.01,2013-03-21 09:59:00,
2013-03-21 06:00:00,76.4,44.4,29.87,NW,322,0.0,0.0,32,0.00,,SKC,0.16,VWS V14.01,2013-03-21 10:00:00,
2013-03-21 06:01:00,76.3,42.6,29.87,WNW,290,0.0,0.0,30,0.00,,SKC,0.16,VWS V14.01,2013-03-21 10:01:00,
2013-03-21 06:02:00,76.2,45.0,29.87,NW,325,0.0,0.0,33,0.00,,SKC,0.16,VWS V14.01,2013-03-21 10:02:00,
2013-03-21 06:03:00,76.1,44.1,29.87,NW,325,0.0,0.0,32,0.00,,SKC,0.16,VWS V14.01,2013-03-21 10:03:00,
2013-03-21 06:04:00,76.1,43.3,29.87,NW,325,0.0,0.0,31,0.00,,SKC,0.16,VWS V14.01,2013-03-21 10:04:00,
2013-03-21 06:05:00,76.2,41.7,29.87,NW,304,0.0,0.0,29,0.00,,SKC,0.16,VWS V14.01,2013-03-21 10:05:00,
2013-03-21 06:06:00,76.1,42.5,29.88,West,272,0.0,0.0,30,0.00,,SKC,0.16,VWS V14.01,2013-03-21 10:06:00,
2013-03-21 06:07:00,76.1,42.5,29.87,West,271,0.0,0.0,30,0.00,,SKC,0.16,VWS V14.01,2013-03-21 10:07:00,
2013-03-21 06:08:00,76.2,44.2,29.87,West,272,0.0,0.0,32,0.00,,SKC,0.16,VWS V14.01,2013-03-21 10:08:00,
2013-03-21 06:09:00,76.3,41.7,29.87,WSW,241,0.0,0.0,29,0.00,,SKC,0.16,VWS V14.01,2013-03-21 10:09:00,
2013-03-21 06:10:00,76.4,42.7,29.87,WSW,241,0.0,0.0,30,0.00,,SKC,0.16,VWS V14.01,2013-03-21 10:10:00,
2013-03-21 06:11:00,76.5,42.8,29.87,WNW,301,0.0,0.0,30,0.00,,SKC,0.16,VWS V14.01,2013-03-21 10:11:00,
2013-03-21 06:12:00,76.4,41.8,29.88,WNW,284,0.0,0.0,29,0.00,,SKC,0.16,VWS V14.01,2013-03-21 10:12:00,
2013-03-21 06:13:00,76.2,42.5,29.88,WNW,284,0.0,0.0,30,0.00,,SKC,0.16,VWS V14.01,2013-03-21 10:13:00,
2013-03-21 06:14:00,76.1,43.3,29.87,WNW,284,0.0,0.0,31,0.00,,SKC,0.16,VWS V14.01,2013-03-21 10:14:00,
2013-03-21 06:15:00,76.1,43.3,29.87,WNW,284,0.0,0.0,31,0.00,,SKC,0.16,VWS V14.01,2013-03-21 10:15:00,
2013-03-21 06:16:00,76.0,43.2,29.88,WNW,294,0.0,0.0,31,0.00,,SKC,0.16,VWS V14.01,2013-03-21 10:16:00,
2013-03-21 06:17:00,75.9,41.4,29.88,WNW,285,0.0,0.0,29,0.00,,SKC,0.16,VWS V14.01,2013-03-21 10:17:00,
2013-03-21 06:18:00,75.9,41.4,29.88,WNW,285,0.0,0.0,29,0.00,,SKC,0.16,VWS V14.01,2013-03-21 10:18:00,
2013-03-21 06:19:00,75.9,42.3,29.87,WNW,286,0.0,0.0,30,0.00,,SKC,0.16,VWS V14.01,2013-03-21 10:19:00,
2013-03-21 06:20:00,76.0,43.2,29.87,WSW,237,0.0,0.0,31,0.00,,SKC,0.16,VWS V14.01,2013-03-21 10:20:00,
2013-03-21 06:21:00,76.1,43.3,29.87,SW,235,0.0,0.0,31,0.00,,SKC,0.16,VWS V14.01,2013-03-21 10:21:00,
2013-03-21 06:22:00,76.2,41.7,29.87,SW,234,0.0,0.0,29,0.00,,SKC,0.16,VWS V14.01,2013-03-21 10:22:00,
2013-03-21 06:23:00,76.4,41.8,29.87,WSW,239,0.0,0.0,29,0.00,,SKC,0.16,VWS V14.01,2013-03-21 10:23:00,
2013-03-21 06:24:00,76.5,41.9,29.87,NW,308,0.0,0.0,29,0.00,,SKC,0.16,VWS V14.01,2013-03-21 10:24:00,
2013-03-21 06:25:00,76.6,42.0,29.87,NW,307,0.0,0.0,29,0.00,,SKC,0.16,VWS V14.01,2013-03-21 10:25:00,
2013-03-21 06:26:00,76.6,42.0,29.87,WNW,289,0.0,0.0,29,0.00,,SKC,0.16,VWS V14.01,2013-03-21 10:26:00,
2013-03-21 06:27:00,76.7,43.0,29.87,WNW,289,0.0,0.0,30,0.00,,SKC,0.16,VWS V14.01,2013-03-21 10:27:00,
2013-03-21 06:28:00,76.8,42.2,29.87,WNW,289,0.0,0.0,29,0.00,,SKC,0.16,VWS V14.01,2013-03-21 10:28:00,
2013-03-21 06:29:00,76.9,44.0,29.87,WNW,289,0.0,0.0,31,0.00,,SKC,0.16,VWS V14.01,2013-03-21 10:29:00,
2013-03-21 06:30:00,77.0,44.1,29.87,WNW,289,0.0,0.0,31,0.00,,SKC,0.16,VWS V14.01,2013-03-21 10:30:00,
2013-03-21 06:31:00,77.2,43.4,29.87,WNW,289,0.0,0.0,30,0.00,,SKC,0.16,VWS V14.01,2013-03-21 10:31:00,
2013-03-21 06:32:00,77.3,45.2,29.88,SSE,147,0.0,0.0,32,0.00,,SKC,0.16,VWS V14.01,2013-03-21 10:32:00,
2013-03-21 06:33:00,77.4,49.8,29.88,SE,145,0.0,0.0,38,0.00,,SKC,0.16,VWS V14.01,2013-03-21 10:33:00,
2013-03-21 06:34:00,77.4,51.2,29.88,SE,134,0.0,0.0,40,0.00,,SKC,0.16,VWS V14.01,2013-03-21 10:34:00,
2013-03-21 06:35:00,77.3,51.1,29.87,SE,136,0.0,0.0,40,0.00,,SKC,0.16,VWS V14.01,2013-03-21 10:35:00,
2013-03-21 06:36:00,77.3,51.8,29.88,SE,136,0.0,0.0,41,0.00,,SKC,0.16,VWS V14.01,2013-03-21 10:36:00,
2013-03-21 06:37:00,77.3,52.5,29.88,SE,136,0.0,0.0,42,0.00,,SKC,0.16,VWS V14.01,2013-03-21 10:37:00,
2013-03-21 06:38:00,77.2,51.7,29.88,SE,135,0.0,0.0,41,0.00,,SKC,0.16,VWS V14.01,2013-03-21 10:38:00,
2013-03-21 06:39:00,77.2,51.7,29.88,SE,136,0.0,0.0,41,0.00,,SKC,0.16,VWS V14.01,2013-03-21 10:39:00,
2013-03-21 06:40:00,77.2,53.0,29.88,SE,136,0.0,0.0,43,0.00,,SKC,0.16,VWS V14.01,2013-03-21 10:40:00,
2013-03-21 06:41:00,77.2,51.7,29.88,SE,136,0.0,0.0,41,0.00,,SKC,0.16,VWS V14.01,2013-03-21 10:41:00,
2013-03-21 06:42:00,77.2,53.0,29.88,SE,136,0.0,0.0,43,0.00,,SKC,0.16,VWS V14.01,2013-03-21 10:42:00,
2013-03-21 06:43:00,77.1,51.6,29.88,SE,135,0.0,0.0,41,0.00,,SKC,0.16,VWS V14.01,2013-03-21 10:43:00,
2013-03-21 06:44:00,77.1,52.9,29.88,SE,136,0.0,0.0,43,0.00,,SKC,0.16,VWS V14.01,2013-03-21 10:44:00,
2013-03-21 06:45:00,77.0,52.8,29.88,SE,136,0.0,0.0,43,0.00,,SKC,0.16,VWS V14.01,2013-03-21 10:45:00,
2013-03-21 06:46:00,77.0,53.4,29.88,SE,136,0.0,0.0,44,0.00,,SKC,0.16,VWS V14.01,2013-03-21 10:46:00,
2013-03-21 06:47:00,77.0,52.8,29.88,SE,136,0.0,0.0,43,0.00,,SKC,0.16,VWS V14.01,2013-03-21 10:47:00,
2013-03-21 06:48:00,76.9,52.7,29.87,SE,133,0.0,0.0,43,0.00,,SKC,0.16,VWS V14.01,2013-03-21 10:48:00,
2013-03-21 06:49:00,76.8,53.3,29.88,SE,133,0.0,0.0,44,0.00,,SKC,0.16,VWS V14.01,2013-03-21 10:49:00,
2013-03-21 06:50:00,76.8,53.9,29.88,SE,133,0.0,0.0,45,0.00,,SKC,0.16,VWS V14.01,2013-03-21 10:50:00,
2013-03-21 06:51:00,76.7,52.5,29.88,SE,133,0.0,0.0,43,0.00,,SKC,0.16,VWS V14.01,2013-03-21 10:51:00,
2013-03-21 06:52:00,76.7,53.2,29.88,SE,133,0.0,0.0,44,0.00,,SKC,0.16,VWS V14.01,2013-03-21 10:52:00,
2013-03-21 06:53:00,76.6,51.8,29.88,SSE,147,0.0,0.0,42,0.00,,SKC,0.16,VWS V14.01,2013-03-21 10:53:00,
2013-03-21 06:54:00,76.5,52.4,29.88,SE,146,0.0,0.0,43,0.00,,SKC,0.16,VWS V14.01,2013-03-21 10:54:00,
2013-03-21 06:55:00,76.4,52.9,29.88,SSE,147,0.0,0.0,44,0.00,,SKC,0.16,VWS V14.01,2013-03-21 10:55:00,
2013-03-21 06:56:00,76.3,52.2,29.88,SE,146,0.0,0.0,43,0.00,,SKC,0.16,VWS V14.01,2013-03-21 10:56:00,
2013-03-21 06:57:00,76.2,52.7,29.88,SE,138,0.0,0.0,44,0.00,,SKC,0.16,VWS V14.01,2013-03-21 10:57:00,
2013-03-21 06:58:00,76.0,52.5,29.88,SE,138,0.0,0.0,44,0.00,,SKC,0.16,VWS V14.01,2013-03-21 10:58:00,
2013-03-21 06:59:00,76.0,53.2,29.88,SE,138,0.0,0.0,45,0.21,,SKC,0.37,VWS V14.01,2013-03-21 10:59:00,
2013-03-21 07:00:00,75.9,53.1,29.88,SE,138,0.0,0.0,45,0.45,,SKC,0.61,VWS V14.01,2013-03-21 11:00:00,
2013-03-21 07:01:00,75.8,53.0,29.88,SE,138,0.0,0.0,45,0.73,,SKC,0.89,VWS V14.01,2013-03-21 11:01:00,
2013-03-21 07:02:00,75.7,52.3,29.88,SE,138,0.0,0.0,44,0.97,,SKC,1.13,VWS V14.01,2013-03-21 11:02:00,
2013-03-21 07:03:00,75.6,52.8,29.88,SE,138,0.0,0.0,45,1.21,,SKC,1.37,VWS V14.01,2013-03-21 11:03:00,
2013-03-21 07:04:00,75.3,50.7,29.88,SE,138,0.0,0.0,42,1.49,,SKC,1.65,VWS V14.01,2013-03-21 11:04:00,
2013-03-21 07:05:00,75.2,50.6,29.88,SE,138,0.0,0.0,42,1.73,,SKC,1.89,VWS V14.01,2013-03-21 11:05:00,
2013-03-21 07:06:00,75.1,51.7,29.88,SE,138,0.0,0.0,44,1.85,,SKC,2.01,VWS V14.01,2013-03-21 11:06:00,
2013-03-21 07:07:00,75.0,52.2,29.88,SE,138,0.0,0.0,45,2.09,,SKC,2.25,VWS V14.01,2013-03-21 11:07:00,
2013-03-21 07:08:00,74.9,52.2,29.88,SE,138,0.0,0.0,45,2.33,,SKC,2.49,VWS V14.01,2013-03-21 11:08:00,
2013-03-21 07:09:00,74.7,52.0,29.88,SE,138,0.0,0.0,45,2.69,,SKC,2.85,VWS V14.01,2013-03-21 11:09:00,
2013-03-21 07:10:00,74.6,52.5,29.88,SE,138,0.0,0.0,46,2.81,,SKC,2.97,VWS V14.01,2013-03-21 11:10:00,
2013-03-21 07:11:00,74.5,51.8,29.88,SE,138,0.0,0.0,45,3.05,,SKC,3.21,VWS V14.01,2013-03-21 11:11:00,
2013-03-21 07:12:00,74.4,51.7,29.88,SE,138,0.0,0.0,45,3.29,,SKC,3.45,VWS V14.01,2013-03-21 11:12:00,
2013-03-21 07:13:00,74.3,51.6,29.88,SE,138,0.0,0.0,45,3.53,,SKC,3.69,VWS V14.01,2013-03-21 11:13:00,
2013-03-21 07:14:00,74.2,52.1,29.88,SE,138,0.0,0.0,46,3.65,,SKC,3.81,VWS V14.01,2013-03-21 11:14:00,
2013-03-21 07:15:00,74.1,52.6,29.88,SE,138,0.0,0.0,47,3.65,,SKC,3.81,VWS V14.01,2013-03-21 11:15:00,
2013-03-21 07:16:00,74.0,51.3,29.88,SE,138,0.0,0.0,45,3.65,,SKC,3.81,VWS V14.01,2013-03-21 11:16:00,
2013-03-21 07:17:00,73.9,51.2,29.88,SE,137,0.0,0.0,45,3.65,,SKC,3.81,VWS V14.01,2013-03-21 11:17:00,
2013-03-21 07:18:00,73.8,51.8,29.88,SE,137,0.0,0.0,46,3.65,,SKC,3.81,VWS V14.01,2013-03-21 11:18:00,
2013-03-21 07:19:00,73.8,53.5,29.88,SE,137,0.0,0.0,49,3.65,,SKC,3.81,VWS V14.01,2013-03-21 11:19:00,
2013-03-21 07:20:00,73.7,51.7,29.88,SE,138,0.0,0.0,46,3.65,,SKC,3.81,VWS V14.01,2013-03-21 11:20:00,
2013-03-21 07:21:00,73.6,51.6,29.88,SE,138,0.0,0.0,46,3.65,,SKC,3.81,VWS V14.01,2013-03-21 11:21:00,
2013-03-21 07:22:00,73.5,53.2,29.88,SE,138,0.0,0.0,49,3.65,,SKC,3.81,VWS V14.01,2013-03-21 11:22:00,
2013-03-21 07:23:00,73.5,52.6,29.88,SE,132,0.0,0.0,48,3.65,,SKC,3.81,VWS V14.01,2013-03-21 11:23:00,
2013-03-21 07:24:00,73.4,52.0,29.88,SE,131,0.0,0.0,47,3.65,,SKC,3.81,VWS V14.01,2013-03-21 11:24:00,
2013-03-21 07:25:00,73.3,51.9,29.88,SE,131,0.0,0.0,47,3.65,,SKC,3.81,VWS V14.01,2013-03-21 11:25:00,
2013-03-21 07:26:00,73.3,51.9,29.88,SE,131,0.0,0.0,47,3.65,,SKC,3.81,VWS V14.01,2013-03-21 11:26:00,
2013-03-21 07:27:00,73.2,52.4,29.88,SE,131,0.0,0.0,48,3.65,,SKC,3.81,VWS V14.01,2013-03-21 11:27:00,
2013-03-21 07:28:00,73.2,51.2,29.88,SE,131,0.0,0.0,46,3.65,,SKC,3.81,VWS V14.01,2013-03-21 11:28:00,
2013-03-21 07:29:00,73.1,51.1,29.88,SE,131,0.0,0.0,46,3.65,,SKC,3.81,VWS V14.01,2013-03-21 11:29:00,
2013-03-21 07:30:00,73.0,52.2,29.88,SE,131,0.0,0.0,48,3.65,,SKC,3.81,VWS V14.01,2013-03-21 11:30:00,
2013-03-21 07:31:00,73.0,51.6,29.88,SE,131,0.0,0.0,47,3.65,,SKC,3.81,VWS V14.01,2013-03-21 11:31:00,
2013-03-21 07:32:00,72.9,50.3,29.88,SE,131,0.0,0.0,45,3.65,,SKC,3.81,VWS V14.01,2013-03-21 11:32:00,
2013-03-21 07:33:00,72.9,52.1,29.88,SE,130,0.0,0.0,48,3.65,,SKC,3.81,VWS V14.01,2013-03-21 11:33:00,
2013-03-21 07:34:00,72.8,51.4,29.88,SE,131,0.0,0.0,47,3.65,,SKC,3.81,VWS V14.01,2013-03-21 11:34:00,
2013-03-21 07:35:00,72.7,50.8,29.88,SE,131,0.0,0.0,46,3.65,,SKC,3.81,VWS V14.01,2013-03-21 11:35:00,
2013-03-21 07:36:00,72.6,50.1,29.88,SE,131,0.0,0.0,45,3.65,,SKC,3.81,VWS V14.01,2013-03-21 11:36:00,
2013-03-21 07:37:00,72.5,50.0,29.88,SE,131,0.0,0.0,45,3.65,,SKC,3.81,VWS V14.01,2013-03-21 11:37:00,
2013-03-21 07:38:00,72.5,51.7,29.88,SE,131,0.0,0.0,48,3.65,,SKC,3.81,VWS V14.01,2013-03-21 11:38:00,
2013-03-21 07:39:00,72.4,52.2,29.88,SE,131,0.0,0.0,49,3.65,,SKC,3.81,VWS V14.01,2013-03-21 11:39:00,
2013-03-21 07:40:00,72.4,51.6,29.88,SE,131,0.0,0.0,48,3.65,,SKC,3.81,VWS V14.01,2013-03-21 11:40:00,
2013-03-21 07:41:00,72.3,51.0,29.89,SE,131,0.0,0.0,47,3.65,,SKC,3.81,VWS V14.01,2013-03-21 11:41:00,
2013-03-21 07:42:00,72.2,50.9,29.89,SE,131,0.0,0.0,47,3.65,,SKC,3.81,VWS V14.01,2013-03-21 11:42:00,
2013-03-21 07:43:00,72.2,51.4,29.89,SE,131,0.0,0.0,48,3.65,,SKC,3.81,VWS V14.01,2013-03-21 11:43:00,
2013-03-21 07:44:00,72.1,49.6,29.89,SE,130,0.0,0.0,45,3.65,,SKC,3.81,VWS V14.01,2013-03-21 11:44:00,
2013-03-21 07:45:00,72.1,51.3,29.89,SE,130,0.0,0.0,48,3.65,,SKC,3.81,VWS V14.01,2013-03-21 11:45:00,
2013-03-21 07:46:00,72.0,51.3,29.89,SE,130,0.0,0.0,48,3.65,,SKC,3.81,VWS V14.01,2013-03-21 11:46:00,
2013-03-21 07:47:00,72.0,50.1,29.89,SE,131,0.0,0.0,46,3.65,,SKC,3.81,VWS V14.01,2013-03-21 11:47:00,
2013-03-21 07:48:00,71.9,50.0,29.89,SE,131,0.0,0.0,46,3.65,,SKC,3.81,VWS V14.01,2013-03-21 11:48:00,
2013-03-21 07:49:00,71.9,51.2,29.89,SE,131,0.0,0.0,48,3.65,,SKC,3.81,VWS V14.01,2013-03-21 11:49:00,
2013-03-21 07:50:00,71.9,51.2,29.89,SE,131,0.0,0.0,48,3.65,,SKC,3.81,VWS V14.01,2013-03-21 11:50:00,
2013-03-21 07:51:00,71.8,51.1,29.89,SE,131,0.0,0.0,48,3.65,,SKC,3.81,VWS V14.01,2013-03-21 11:51:00,
2013-03-21 07:52:00,71.7,51.5,29.89,SE,131,0.0,0.0,49,3.65,,SKC,3.81,VWS V14.01,2013-03-21 11:52:00,
2013-03-21 07:53:00,71.7,52.6,29.89,SE,131,0.0,0.0,51,3.65,,SKC,3.81,VWS V14.01,2013-03-21 11:53:00,
2013-03-21 07:54:00,71.7,51.5,29.89,SE,131,0.0,0.0,49,3.65,,SKC,3.81,VWS V14.01,2013-03-21 11:54:00,
2013-03-21 07:55:00,71.6,50.9,29.89,SE,131,0.0,0.0,48,3.65,,SKC,3.81,VWS V14.01,2013-03-21 11:55:00,
2013-03-21 07:56:00,71.6,51.5,29.89,SE,131,0.0,0.0,49,3.65,,SKC,3.81,VWS V14.01,2013-03-21 11:56:00,
2013-03-21 07:57:00,71.5,51.4,29.89,SE,130,0.0,0.0,49,3.65,,SKC,3.81,VWS V14.01,2013-03-21 11:57:00,
2013-03-21 07:58:00,71.5,50.2,29.89,SE,130,0.0,0.0,47,3.65,,SKC,3.81,VWS V14.01,2013-03-21 11:58:00,
2013-03-21 07:59:00,71.4,51.8,29.89,SE,130,0.0,0.0,50,3.65,,SKC,3.81,VWS V14.01,2013-03-21 11:59:00,
2013-03-21 08:00:00,71.4,51.8,29.89,SE,130,0.0,0.0,50,3.65,,SKC,3.81,VWS V14.01,2013-03-21 12:00:00,
2013-03-21 08:01:00,71.3,51.7,29.89,SE,130,0.0,0.0,50,3.20,,SKC,3.81,VWS V14.01,2013-03-21 12:01:00,
2013-03-21 08:02:00,71.3,51.2,29.89,SE,131,0.0,0.0,49,3.20,,SKC,3.81,VWS V14.01,2013-03-21 12:02:00,
2013-03-21 08:03:00,71.2,51.1,29.89,SE,130,0.0,0.0,49,3.20,,SKC,3.81,VWS V14.01,2013-03-21 12:03:00,
2013-03-21 08:04:00,71.2,51.1,29.89,SE,130,0.0,0.0,49,3.20,,SKC,3.81,VWS V14.01,2013-03-21 12:04:00,
2013-03-21 08:05:00,71.1,51.0,29.89,SE,130,0.0,0.0,49,3.20,,SKC,3.81,VWS V14.01,2013-03-21 12:05:00,
2013-03-21 08:06:00,71.1,51.5,29.89,SE,130,0.0,0.0,50,3.20,,SKC,3.81,VWS V14.01,2013-03-21 12:06:00,
2013-03-21 08:07:00,71.0,50.9,29.89,SE,130,0.0,0.0,49,3.20,,SKC,3.81,VWS V14.01,2013-03-21 12:07:00,
2013-03-21 08:08:00,71.0,50.9,29.89,SE,130,0.0,0.0,49,3.20,,SKC,3.81,VWS V14.01,2013-03-21 12:08:00,
2013-03-21 08:09:00,71.0,50.9,29.89,SE,130,0.0,0.0,49,3.20,,SKC,3.81,VWS V14.01,2013-03-21 12:09:00,
2013-03-21 08:10:00,71.0,52.0,29.89,SE,130,0.0,0.0,51,3.20,,SKC,3.81,VWS V14.01,2013-03-21 12:10:00,
2013-03-21 08:11:00,70.9,51.9,29.89,SE,130,0.0,0.0,51,3.20,,SKC,3.81,VWS V14.01,2013-03-21 12:11:00,
2013-03-21 08:12:00,70.9,52.4,29.89,SE,130,0.0,0.0,52,3.20,,SKC,3.81,VWS V14.01,2013-03-21 12:12:00,
2013-03-21 08:13:00,70.9,51.9,29.89,SE,130,0.0,0.0,51,3.20,,SKC,3.81,VWS V14.01,2013-03-21 12:13:00,
2013-03-21 08:14:00,70.8,50.2,29.89,SE,130,0.0,0.0,48,3.20,,SKC,3.81,VWS V14.01,2013-03-21 12:14:00,
2013-03-21 08:15:00,70.8,50.7,29.89,SE,130,0.0,0.0,49,3.20,,SKC,3.81,VWS V14.01,2013-03-21 12:15:00,
2013-03-21 08:16:00,70.7,52.8,29.89,SE,130,0.0,0.0,53,3.20,,SKC,3.81,VWS V14.01,2013-03-21 12:16:00,
2013-03-21 08:17:00,70.7,51.2,29.89,SE,130,0.0,0.0,50,3.20,,SKC,3.81,VWS V14.01,2013-03-21 12:17:00,
2013-03-21 08:18:00,70.6,51.6,29.89,SE,130,0.0,0.0,51,3.20,,SKC,3.81,VWS V14.01,2013-03-21 12:18:00,
2013-03-21 08:19:00,70.6,52.1,29.90,SE,130,0.0,0.0,52,3.20,,SKC,3.81,VWS V14.01,2013-03-21 12:19:00,
2013-03-21 08:20:00,70.6,52.1,29.90,SE,130,0.0,0.0,52,3.20,,SKC,3.81,VWS V14.01,2013-03-21 12:20:00,
2013-03-21 08:21:00,70.5,50.4,29.90,SE,130,0.0,0.0,49,3.20,,SKC,3.81,VWS V14.01,2013-03-21 12:21:00,
2013-03-21 08:22:00,70.5,51.0,29.90,SE,130,0.0,0.0,50,3.20,,SKC,3.81,VWS V14.01,2013-03-21 12:22:00,
2013-03-21 08:23:00,70.5,52.6,29.90,SE,130,0.0,0.0,53,3.20,,SKC,3.81,VWS V14.01,2013-03-21 12:23:00,
2013-03-21 08:24:00,70.4,52.0,29.90,SE,130,0.0,0.0,52,3.20,,SKC,3.81,VWS V14.01,2013-03-21 12:24:00,
2013-03-21 08:25:00,70.4,52.5,29.90,SE,130,0.0,0.0,53,3.20,,SKC,3.81,VWS V14.01,2013-03-21 12:25:00,
2013-03-21 08:26:00,70.3,51.3,29.90,SE,130,0.0,0.0,51,3.20,,SKC,3.81,VWS V14.01,2013-03-21 12:26:00,
2013-03-21 08:27:00,70.3,51.3,29.90,SE,130,0.0,0.0,51,3.20,,SKC,3.81,VWS V14.01,2013-03-21 12:27:00,
2013-03-21 08:28:00,70.2,51.2,29.90,SE,130,0.0,0.0,51,3.20,,SKC,3.81,VWS V14.01,2013-03-21 12:28:00,
2013-03-21 08:29:00,70.2,52.3,29.90,SE,130,0.0,0.0,53,3.20,,SKC,3.81,VWS V14.01,2013-03-21 12:29:00,
2013-03-21 08:30:00,70.1,51.7,29.90,SE,130,0.0,0.0,52,3.20,,SKC,3.81,VWS V14.01,2013-03-21 12:30:00,
2013-03-21 08:31:00,70.1,52.2,29.90,SE,130,0.0,0.0,53,0.00,,SKC,3.81,VWS V14.01,2013-03-21 12:31:00,
2013-03-21 08:32:00,70.0,52.6,29.90,SE,130,0.0,0.0,54,0.00,,SKC,3.81,VWS V14.01,2013-03-21 12:32:00,
2013-03-21 08:33:00,70.0,53.1,29.90,SE,130,0.0,0.0,55,0.00,,SKC,3.81,VWS V14.01,2013-03-21 12:33:00,
2013-03-21 08:34:00,70.0,53.1,29.90,SE,130,0.0,0.0,55,0.00,,SKC,3.81,VWS V14.01,2013-03-21 12:34:00,
2013-03-21 08:35:00,69.9,53.0,29.90,SE,130,0.0,0.0,55,0.00,,SKC,3.81,VWS V14.01,2013-03-21 12:35:00,
2013-03-21 08:36:00,69.9,52.5,29.90,SE,130,0.0,0.0,54,0.00,,SKC,3.81,VWS V14.01,2013-03-21 12:36:00,
2013-03-21 08:37:00,69.8,51.9,29.90,SE,130,0.0,0.0,53,0.00,,SKC,3.81,VWS V14.01,2013-03-21 12:37:00,
2013-03-21 08:38:00,69.7,51.3,29.90,SE,130,0.0,0.0,52,0.00,,SKC,3.81,VWS V14.01,2013-03-21 12:38:00,
2013-03-21 08:39:00,69.7,52.8,29.90,SE,130,0.0,0.0,55,0.00,,SKC,3.81,VWS V14.01,2013-03-21 12:39:00,
2013-03-21 08:40:00,69.6,52.2,29.90,SE,130,0.0,0.0,54,0.00,,SKC,3.81,VWS V14.01,2013-03-21 12:40:00,
2013-03-21 08:41:00,69.5,52.2,29.90,SE,130,0.0,0.0,54,0.00,,SKC,3.81,VWS V14.01,2013-03-21 12:41:00,
2013-03-21 08:42:00,69.4,52.5,29.90,SE,130,0.0,0.0,55,0.00,,SKC,3.81,VWS V14.01,2013-03-21 12:42:00,
2013-03-21 08:43:00,69.4,51.0,29.90,SE,130,0.0,0.0,52,0.00,,SKC,3.81,VWS V14.01,2013-03-21 12:43:00,
2013-03-21 08:44:00,69.3,52.0,29.90,SE,130,0.0,0.0,54,0.00,,SKC,3.81,VWS V14.01,2013-03-21 12:44:00,
2013-03-21 08:45:00,69.2,52.4,29.90,SE,130,0.0,0.0,55,0.00,,SKC,3.81,VWS V14.01,2013-03-21 12:45:00,
2013-03-21 08:46:00,69.1,51.8,29.90,SE,130,0.0,0.0,54,0.00,,SKC,3.81,VWS V14.01,2013-03-21 12:46:00,
2013-03-21 08:47:00,69.0,52.7,29.90,SE,130,0.0,0.0,56,0.00,,SKC,3.81,VWS V14.01,2013-03-21 12:47:00,
2013-03-21 08:48:00,69.0,53.2,29.90,SE,130,0.0,0.0,57,0.00,,SKC,3.81,VWS V14.01,2013-03-21 12:48:00,
2013-03-21 08:49:00,68.9,52.6,29.91,SE,130,0.0,0.0,56,0.00,,SKC,3.81,VWS V14.01,2013-03-21 12:49:00,
2013-03-21 08:50:00,68.8,52.0,29.91,SE,130,0.0,0.0,55,0.00,,SKC,3.81,VWS V14.01,2013-03-21 12:50:00,
2013-03-21 08:51:00,68.7,52.9,29.91,SE,130,0.0,0.0,57,0.00,,SKC,3.81,VWS V14.01,2013-03-21 12:51:00,
2013-03-21 08:52:00,68.7,52.9,29.91,SE,130,0.0,0.0,57,0.03,,SKC,3.84,VWS V14.01,2013-03-21 12:52:00,
2013-03-21 08:53:00,68.6,52.8,29.91,SE,130,0.0,0.0,57,0.03,,SKC,3.84,VWS V14.01,2013-03-21 12:53:00,
2013-03-21 08:54:00,68.5,52.7,29.91,SE,130,0.0,0.0,57,0.03,,SKC,3.84,VWS V14.01,2013-03-21 12:54:00,
2013-03-21 08:55:00,68.5,52.2,29.91,SE,130,0.0,0.0,56,0.03,,SKC,3.84,VWS V14.01,2013-03-21 12:55:00,
2013-03-21 08:56:00,68.4,52.1,29.91,SE,130,0.0,0.0,56,0.03,,SKC,3.84,VWS V14.01,2013-03-21 12:56:00,
2013-03-21 08:57:00,68.3,52.0,29.91,SE,130,0.0,0.0,56,0.03,,SKC,3.84,VWS V14.01,2013-03-21 12:57:00,
2013-03-21 08:58:00,68.2,51.9,29.91,SE,130,0.0,0.0,56,0.03,,SKC,3.84,VWS V14.01,2013-03-21 12:58:00,
2013-03-21 08:59:00,68.1,51.8,29.91,SE,130,0.0,0.0,56,0.03,,SKC,3.84,VWS V14.01,2013-03-21 12:59:00,
2013-03-21 09:00:00,68.1,52.3,29.91,SE,130,0.0,0.0,57,0.03,,SKC,3.84,VWS V14.01,2013-03-21 13:00:00,
2013-03-21 09:01:00,68.0,52.2,29.91,SE,130,0.0,0.0,57,0.03,,SKC,3.84,VWS V14.01,2013-03-21 13:01:00,
2013-03-21 09:02:00,67.9,52.1,29.91,SE,130,0.0,0.0,57,0.03,,SKC,3.84,VWS V14.01,2013-03-21 13:02:00,
2013-03-21 09:03:00,67.9,52.1,29.91,SE,130,0.0,0.0,57,0.03,,SKC,3.84,VWS V14.01,2013-03-21 13:03:00,
2013-03-21 09:04:00,67.7,51.9,29.91,SE,130,0.0,0.0,57,0.03,,SKC,3.84,VWS V14.01,2013-03-21 13:04:00,
2013-03-21 09:05:00,67.6,51.8,29.91,SE,130,0.0,0.0,57,0.03,,SKC,3.84,VWS V14.01,2013-03-21 13:05:00,
2013-03-21 09:06:00,67.5,51.8,29.91,SE,130,0.0,0.0,57,0.03,,SKC,3.84,VWS V14.01,2013-03-21 13:06:00,
2013-03-21 09:07:00,67.4,51.7,29.91,SE,130,0.0,0.0,57,0.03,,SKC,3.84,VWS V14.01,2013-03-21 13:07:00,
2013-03-21 09:08:00,67.2,51.5,29.91,SE,130,0.0,0.0,57,0.03,,SKC,3.84,VWS V14.01,2013-03-21 13:08:00,
2013-03-21 09:09:00,67.1,51.4,29.91,SE,130,0.0,0.0,57,0.03,,SKC,3.84,VWS V14.01,2013-03-21 13:09:00,
2013-03-21 09:10:00,67.0,52.2,29.91,SE,130,0.0,0.0,59,0.03,,SKC,3.84,VWS V14.01,2013-03-21 13:10:00,
2013-03-21 09:11:00,66.9,51.7,29.91,SE,130,0.0,0.0,58,0.03,,SKC,3.84,VWS V14.01,2013-03-21 13:11:00,
2013-03-21 09:12:00,66.9,51.7,29.91,SE,130,0.0,0.0,58,0.03,,SKC,3.84,VWS V14.01,2013-03-21 13:12:00,
2013-03-21 09:13:00,66.7,51.9,29.91,SE,130,0.0,0.0,59,0.03,,SKC,3.84,VWS V14.01,2013-03-21 13:13:00,
2013-03-21 09:14:00,66.7,52.4,29.91,SE,130,0.0,0.0,60,0.03,,SKC,3.84,VWS V14.01,2013-03-21 13:14:00,
2013-03-21 09:15:00,66.6,52.3,29.91,SE,130,0.0,0.0,60,0.12,,SKC,3.93,VWS V14.01,2013-03-21 13:15:00,
2013-03-21 09:16:00,66.5,52.2,29.91,SE,130,0.0,0.0,60,0.12,,SKC,3.93,VWS V14.01,2013-03-21 13:16:00,
2013-03-21 09:17:00,66.5,52.7,29.91,SE,130,0.0,0.0,61,0.12,,SKC,3.93,VWS V14.01,2013-03-21 13:17:00,
2013-03-21 09:18:00,66.4,52.6,29.92,SE,130,0.0,0.0,61,0.12,,SKC,3.93,VWS V14.01,2013-03-21 13:18:00,
2013-03-21 09:19:00,66.3,52.5,29.92,SE,130,0.0,0.0,61,0.12,,SKC,3.93,VWS V14.01,2013-03-21 13:19:00,
2013-03-21 09:20:00,66.2,52.4,29.92,SE,130,0.0,0.0,61,0.12,,SKC,3.93,VWS V14.01,2013-03-21 13:20:00,
2013-03-21 09:21:00,66.2,52.4,29.92,SE,130,0.0,0.0,61,0.12,,SKC,3.93,VWS V14.01,2013-03-21 13:21:00,
2013-03-21 09:22:00,66.1,52.3,29.92,SE,130,0.0,0.0,61,0.12,,SKC,3.93,VWS V14.01,2013-03-21 13:22:00,
2013-03-21 09:23:00,65.9,52.1,29.91,SE,130,0.0,0.0,61,0.12,,SKC,3.93,VWS V14.01,2013-03-21 13:23:00,
2013-03-21 09:24:00,65.8,52.0,29.92,SE,130,0.0,0.0,61,0.12,,SKC,3.93,VWS V14.01,2013-03-21 13:24:00,
2013-03-21 09:25:00,65.8,52.0,29.92,SE,130,0.0,0.0,61,0.12,,SKC,3.93,VWS V14.01,2013-03-21 13:25:00,
2013-03-21 09:26:00,65.7,51.9,29.92,SE,130,0.0,0.0,61,0.12,,SKC,3.93,VWS V14.01,2013-03-21 13:26:00,
2013-03-21 09:27:00,65.5,51.7,29.92,SE,130,0.0,0.0,61,0.12,,SKC,3.93,VWS V14.01,2013-03-21 13:27:00,
2013-03-21 09:28:00,65.4,51.6,29.92,SE,130,0.0,0.0,61,0.12,,SKC,3.93,VWS V14.01,2013-03-21 13:28:00,
2013-03-21 09:29:00,65.3,51.5,29.92,SE,130,0.0,0.0,61,0.12,,SKC,3.93,VWS V14.01,2013-03-21 13:29:00,
2013-03-21 09:30:00,65.2,51.9,29.92,SE,130,0.0,0.0,62,0.12,,SKC,3.93,VWS V14.01,2013-03-21 13:30:00,
2013-03-21 09:31:00,65.1,51.8,29.92,SE,130,0.0,0.0,62,0.12,,SKC,3.93,VWS V14.01,2013-03-21 13:31:00,
2013-03-21 09:32:00,65.0,51.7,29.92,SE,130,0.0,0.0,62,0.12,,SKC,3.93,VWS V14.01,2013-03-21 13:32:00,
2013-03-21 09:33:00,64.9,51.6,29.92,SE,130,0.0,0.0,62,0.12,,SKC,3.93,VWS V14.01,2013-03-21 13:33:00,
2013-03-21 09:34:00,64.7,51.4,29.92,SE,130,0.0,0.0,62,0.12,,SKC,3.93,VWS V14.01,2013-03-21 13:34:00,
2013-03-21 09:35:00,64.6,51.3,29.92,SE,130,0.0,0.0,62,0.12,,SKC,3.93,VWS V14.01,2013-03-21 13:35:00,
2013-03-21 09:36:00,64.5,51.2,29.92,SE,130,0.0,0.0,62,0.12,,SKC,3.93,VWS V14.01,2013-03-21 13:36:00,
2013-03-21 09:37:00,64.4,51.1,29.92,SE,130,0.0,0.0,62,0.12,,SKC,3.93,VWS V14.01,2013-03-21 13:37:00,
2013-03-21 09:38:00,64.2,50.9,29.92,SE,130,0.0,0.0,62,0.12,,SKC,3.93,VWS V14.01,2013-03-21 13:38:00,
2013-03-21 09:39:00,64.1,50.8,29.92,SE,130,0.0,0.0,62,0.12,,SKC,3.93,VWS V14.01,2013-03-21 13:39:00,
2013-03-21 09:40:00,64.0,50.7,29.92,SE,130,0.0,0.0,62,0.12,,SKC,3.93,VWS V14.01,2013-03-21 13:40:00,
2013-03-21 09:41:00,63.9,50.6,29.92,SE,130,0.0,0.0,62,0.12,,SKC,3.93,VWS V14.01,2013-03-21 13:41:00,
2013-03-21 09:42:00,63.8,50.5,29.92,SE,130,0.0,0.0,62,0.12,,SKC,3.93,VWS V14.01,2013-03-21 13:42:00,
2013-03-21 09:43:00,63.7,50.5,29.92,SE,130,0.0,0.0,62,0.12,,SKC,3.93,VWS V14.01,2013-03-21 13:43:00,
2013-03-21 09:44:00,63.6,50.4,29.92,SE,130,0.0,0.0,62,0.12,,SKC,3.93,VWS V14.01,2013-03-21 13:44:00,
2013-03-21 09:45:00,63.5,50.3,29.92,SE,130,0.0,0.0,62,0.12,,SKC,3.93,VWS V14.01,2013-03-21 13:45:00,
2013-03-21 09:46:00,63.4,50.2,29.92,SE,130,0.0,0.0,62,0.12,,SKC,3.93,VWS V14.01,2013-03-21 13:46:00,
2013-03-21 09:47:00,63.4,50.2,29.92,SE,130,0.0,0.0,62,0.12,,SKC,3.93,VWS V14.01,2013-03-21 13:47:00,
2013-03-21 09:48:00,63.3,50.1,29.92,SE,130,0.0,0.0,62,0.12,,SKC,3.93,VWS V14.01,2013-03-21 13:48:00,
2013-03-21 09:49:00,63.2,50.0,29.92,SE,130,0.0,0.0,62,0.12,,SKC,3.93,VWS V14.01,2013-03-21 13:49:00,
2013-03-21 09:50:00,63.2,50.4,29.92,SE,130,0.0,0.0,63,0.12,,SKC,3.93,VWS V14.01,2013-03-21 13:50:00,
2013-03-21 09:51:00,63.1,50.3,29.92,SE,130,0.0,0.0,63,0.12,,SKC,3.93,VWS V14.01,2013-03-21 13:51:00,
2013-03-21 09:52:00,63.0,50.2,29.92,SE,130,0.0,0.0,63,0.12,,SKC,3.93,VWS V14.01,2013-03-21 13:52:00,
2013-03-21 09:53:00,63.0,50.2,29.92,SE,130,0.0,0.0,63,0.12,,SKC,3.93,VWS V14.01,2013-03-21 13:53:00,
2013-03-21 09:54:00,62.9,50.1,29.92,SE,130,0.0,0.0,63,0.12,,SKC,3.93,VWS V14.01,2013-03-21 13:54:00,
2013-03-21 09:55:00,62.8,50.0,29.92,SE,130,0.0,0.0,63,0.12,,SKC,3.93,VWS V14.01,2013-03-21 13:55:00,
2013-03-21 09:56:00,62.8,50.0,29.92,SE,130,0.0,0.0,63,0.12,,SKC,3.93,VWS V14.01,2013-03-21 13:56:00,
2013-03-21 09:57:00,62.7,49.9,29.92,SE,130,0.0,0.0,63,0.12,,SKC,3.93,VWS V14.01,2013-03-21 13:57:00,
2013-03-21 09:58:00,62.6,49.8,29.92,SE,130,0.0,0.0,63,0.12,,SKC,3.93,VWS V14.01,2013-03-21 13:58:00,
2013-03-21 09:59:00,62.6,49.8,29.92,SE,130,0.0,0.0,63,0.17,,SKC,3.98,VWS V14.01,2013-03-21 13:59:00,
2013-03-21 10:00:00,62.5,49.8,29.92,SE,130,0.0,0.0,63,0.17,,SKC,3.98,VWS V14.01,2013-03-21 14:00:00,
2013-03-21 10:01:00,62.5,49.8,29.92,SE,130,0.0,0.0,63,0.14,,SKC,3.98,VWS V14.01,2013-03-21 14:01:00,
2013-03-21 10:02:00,62.4,49.7,29.92,SE,130,0.0,0.0,63,0.14,,SKC,3.98,VWS V14.01,2013-03-21 14:02:00,
2013-03-21 10:03:00,62.3,49.1,29.92,SE,130,0.0,0.0,62,0.14,,SKC,3.98,VWS V14.01,2013-03-21 14:03:00,
2013-03-21 10:04:00,62.3,49.1,29.92,SE,130,0.0,0.0,62,0.14,,SKC,3.98,VWS V14.01,2013-03-21 14:04:00,
2013-03-21 10:05:00,62.3,49.6,29.92,SE,130,0.0,0.0,63,0.14,,SKC,3.98,VWS V14.01,2013-03-21 14:05:00,
2013-03-21 10:06:00,62.2,49.5,29.92,SE,130,0.0,0.0,63,0.14,,SKC,3.98,VWS V14.01,2013-03-21 14:06:00,
2013-03-21 10:07:00,62.2,49.5,29.92,SE,130,0.0,0.0,63,0.14,,SKC,3.98,VWS V14.01,2013-03-21 14:07:00,
2013-03-21 10:08:00,62.1,49.4,29.92,SE,130,0.0,0.0,63,0.14,,SKC,3.98,VWS V14.01,2013-03-21 14:08:00,
2013-03-21 10:09:00,62.1,49.4,29.92,SE,130,0.0,0.0,63,0.14,,SKC,3.98,VWS V14.01,2013-03-21 14:09:00,
2013-03-21 10:10:00,62.0,49.3,29.92,SE,130,0.0,0.0,63,0.14,,SKC,3.98,VWS V14.01,2013-03-21 14:10:00,
2013-03-21 10:11:00,62.0,49.3,29.92,SE,130,0.0,0.0,63,0.14,,SKC,3.98,VWS V14.01,2013-03-21 14:11:00,
2013-03-21 10:12:00,61.9,49.2,29.92,SE,130,0.0,0.0,63,0.14,,SKC,3.98,VWS V14.01,2013-03-21 14:12:00,
2013-03-21 10:13:00,61.9,49.2,29.92,SE,130,0.0,0.0,63,0.14,,SKC,3.98,VWS V14.01,2013-03-21 14:13:00,
2013-03-21 10:14:00,61.8,48.7,29.92,SE,130,0.0,0.0,62,0.14,,SKC,3.98,VWS V14.01,2013-03-21 14:14:00,
2013-03-21 10:15:00,61.7,48.6,29.92,SE,130,0.0,0.0,62,0.14,,SKC,3.98,VWS V14.01,2013-03-21 14:15:00,
2013-03-21 10:16:00,61.6,48.5,29.92,SE,130,0.0,0.0,62,0.14,,SKC,3.98,VWS V14.01,2013-03-21 14:16:00,
2013-03-21 10:17:00,61.6,48.5,29.92,SE,130,0.0,0.0,62,0.14,,SKC,3.98,VWS V14.01,2013-03-21 14:17:00,
2013-03-21 10:18:00,61.5,48.4,29.92,SE,130,0.0,0.0,62,0.14,,SKC,3.98,VWS V14.01,2013-03-21 14:18:00,
2013-03-21 10:19:00,61.4,48.3,29.92,SE,130,0.0,0.0,62,0.14,,SKC,3.98,VWS V14.01,2013-03-21 14:19:00,
2013-03-21 10:20:00,61.4,48.3,29.92,SE,130,0.0,0.0,62,0.14,,SKC,3.98,VWS V14.01,2013-03-21 14:20:00,
2013-03-21 10:21:00,61.4,48.7,29.92,SE,130,0.0,0.0,63,0.14,,SKC,3.98,VWS V14.01,2013-03-21 14:21:00,
2013-03-21 10:22:00,61.3,48.6,29.92,SE,130,0.0,0.0,63,0.14,,SKC,3.98,VWS V14.01,2013-03-21 14:22:00,
2013-03-21 10:23:00,61.2,48.1,29.92,SE,130,0.0,0.0,62,0.14,,SKC,3.98,VWS V14.01,2013-03-21 14:23:00,
2013-03-21 10:24:00,61.1,48.4,29.93,SE,130,0.0,0.0,63,0.14,,SKC,3.98,VWS V14.01,2013-03-21 14:24:00,
2013-03-21 10:25:00,61.0,47.9,29.93,SE,130,0.0,0.0,62,0.14,,SKC,3.98,VWS V14.01,2013-03-21 14:25:00,
2013-03-21 10:26:00,60.9,48.2,29.92,SE,130,0.0,0.0,63,0.14,,SKC,3.98,VWS V14.01,2013-03-21 14:26:00,
2013-03-21 10:27:00,60.9,47.8,29.92,SE,130,0.0,0.0,62,0.14,,SKC,3.98,VWS V14.01,2013-03-21 14:27:00,
2013-03-21 10:28:00,60.8,47.7,29.93,SE,130,0.0,0.0,62,0.14,,SKC,3.98,VWS V14.01,2013-03-21 14:28:00,
2013-03-21 10:29:00,60.8,47.7,29.93,SE,130,0.0,0.0,62,0.14,,SKC,3.98,VWS V14.01,2013-03-21 14:29:00,
2013-03-21 10:30:00,60.7,47.6,29.93,SE,130,0.0,0.0,62,0.14,,SKC,3.98,VWS V14.01,2013-03-21 14:30:00,
2013-03-21 10:31:00,60.6,47.5,29.93,SE,130,0.0,0.0,62,0.05,,SKC,3.98,VWS V14.01,2013-03-21 14:31:00,
2013-03-21 10:32:00,60.6,47.5,29.93,SE,130,0.0,0.0,62,0.05,,SKC,3.98,VWS V14.01,2013-03-21 14:32:00,
2013-03-21 10:33:00,60.6,47.5,29.93,SE,130,0.0,0.0,62,0.05,,SKC,3.98,VWS V14.01,2013-03-21 14:33:00,
2013-03-21 10:34:00,60.4,47.3,29.93,SE,130,0.0,0.0,62,0.05,,SKC,3.98,VWS V14.01,2013-03-21 14:34:00,
2013-03-21 10:35:00,60.4,47.3,29.93,SE,130,0.0,0.0,62,0.05,,SKC,3.98,VWS V14.01,2013-03-21 14:35:00,
2013-03-21 10:36:00,60.3,47.2,29.93,SE,130,0.0,0.0,62,0.05,,SKC,3.98,VWS V14.01,2013-03-21 14:36:00,
2013-03-21 10:37:00,60.3,47.2,29.93,SE,130,0.0,0.0,62,0.05,,SKC,3.98,VWS V14.01,2013-03-21 14:37:00,
2013-03-21 10:38:00,60.2,47.2,29.93,SE,130,0.0,0.0,62,0.05,,SKC,3.98,VWS V14.01,2013-03-21 14:38:00,
2013-03-21 10:39:00,60.2,47.2,29.93,SE,130,0.0,0.0,62,0.05,,SKC,3.98,VWS V14.01,2013-03-21 14:39:00,
2013-03-21 10:40:00,60.1,47.0,29.93,SE,130,0.0,0.0,62,0.05,,SKC,3.98,VWS V14.01,2013-03-21 14:40:00,
2013-03-21 10:41:00,60.1,47.0,29.93,SE,130,0.0,0.0,62,0.05,,SKC,3.98,VWS V14.01,2013-03-21 14:41:00,
2013-03-21 10:42:00,60.1,47.0,29.93,SE,130,0.0,0.0,62,0.05,,SKC,3.98,VWS V14.01,2013-03-21 14:42:00,
2013-03-21 10:43:00,60.0,47.0,29.93,SE,130,0.0,0.0,62,0.05,,SKC,3.98,VWS V14.01,2013-03-21 14:43:00,
2013-03-21 10:44:00,60.0,47.0,29.93,SE,130,0.0,0.0,62,0.05,,SKC,3.98,VWS V14.01,2013-03-21 14:44:00,
2013-03-21 10:45:00,59.9,46.9,29.93,SE,130,0.0,0.0,62,0.05,,SKC,3.98,VWS V14.01,2013-03-21 14:45:00,
2013-03-21 10:46:00,59.9,46.9,29.93,SE,130,0.0,0.0,62,0.05,,SKC,3.98,VWS V14.01,2013-03-21 14:46:00,
2013-03-21 10:47:00,59.9,46.9,29.93,SE,130,0.0,0.0,62,0.05,,SKC,3.98,VWS V14.01,2013-03-21 14:47:00,
2013-03-21 10:48:00,59.8,46.8,29.93,SE,130,0.0,0.0,62,0.05,,SKC,3.98,VWS V14.01,2013-03-21 14:48:00,
2013-03-21 10:49:00,59.8,46.8,29.93,SE,130,0.0,0.0,62,0.05,,SKC,3.98,VWS V14.01,2013-03-21 14:49:00,
2013-03-21 10:50:00,59.7,46.7,29.93,SE,130,0.0,0.0,62,0.05,,SKC,3.98,VWS V14.01,2013-03-21 14:50:00,
2013-03-21 10:51:00,59.7,46.7,29.93,SE,130,0.0,0.0,62,0.05,,SKC,3.98,VWS V14.01,2013-03-21 14:51:00,
2013-03-21 10:52:00,59.6,46.6,29.93,SE,130,0.0,0.0,62,0.05,,SKC,3.98,VWS V14.01,2013-03-21 14:52:00,
2013-03-21 10:53:00,59.6,46.6,29.93,SE,130,0.0,0.0,62,0.05,,SKC,3.98,VWS V14.01,2013-03-21 14:53:00,
2013-03-21 10:54:00,59.5,46.5,29.93,SE,130,0.0,0.0,62,0.05,,SKC,3.98,VWS V14.01,2013-03-21 14:54:00,
2013-03-21 10:55:00,59.5,46.5,29.93,SE,130,0.0,0.0,62,0.05,,SKC,3.98,VWS V14.01,2013-03-21 14:55:00,
2013-03-21 10:56:00,59.5,46.5,29.93,SE,130,0.0,0.0,62,0.05,,SKC,3.98,VWS V14.01,2013-03-21 14:56:00,
2013-03-21 10:57:00,59.4,46.4,29.93,SE,130,0.0,0.0,62,0.05,,SKC,3.98,VWS V14.01,2013-03-21 14:57:00,
2013-03-21 10:58:00,59.4,46.4,29.93,SE,130,0.0,0.0,62,0.05,,SKC,3.98,VWS V14.01,2013-03-21 14:58:00,
2013-03-21 10:59:00,59.3,45.9,29.93,SE,130,0.0,0.0,61,0.05,,SKC,3.98,VWS V14.01,2013-03-21 14:59:00,
2013-03-21 11:00:00,59.3,45.9,29.93,SE,130,0.0,0.0,61,0.05,,SKC,3.98,VWS V14.01,2013-03-21 15:00:00,
2013-03-21 11:01:00,59.3,45.4,29.93,SE,130,0.0,0.0,60,0.00,,SKC,3.98,VWS V14.01,2013-03-21 15:01:00,
2013-03-21 11:02:00,59.2,44.9,29.93,SE,130,0.0,0.0,59,0.00,,SKC,3.98,VWS V14.01,2013-03-21 15:02:00,
2013-03-21 11:03:00,59.2,44.5,29.93,SE,130,0.0,0.0,58,0.00,,SKC,3.98,VWS V14.01,2013-03-21 15:03:00,
2013-03-21 11:04:00,59.2,44.5,29.93,SE,130,0.0,0.0,58,0.00,,SKC,3.98,VWS V14.01,2013-03-21 15:04:00,
2013-03-21 11:05:00,59.2,44.0,29.93,SE,130,0.0,0.0,57,0.00,,SKC,3.98,VWS V14.01,2013-03-21 15:05:00,
2013-03-21 11:06:00,59.1,43.4,29.93,SE,130,0.0,0.0,56,0.00,,SKC,3.98,VWS V14.01,2013-03-21 15:06:00,
2013-03-21 11:07:00,59.1,43.4,29.93,SE,130,0.0,0.0,56,0.00,,SKC,3.98,VWS V14.01,2013-03-21 15:07:00,
2013-03-21 11:08:00,59.0,43.3,29.93,SE,130,0.0,0.0,56,0.00,,SKC,3.98,VWS V14.01,2013-03-21 15:08:00,
2013-03-21 11:09:00,59.0,43.3,29.93,SE,130,0.0,0.0,56,0.00,,SKC,3.98,VWS V14.01,2013-03-21 15:09:00,
2013-03-21 11:10:00,59.0,43.3,29.93,SE,130,0.0,0.0,56,0.00,,SKC,3.98,VWS V14.01,2013-03-21 15:10:00,
2013-03-21 11:11:00,58.9,43.2,29.93,SE,130,0.0,0.0,56,0.00,,SKC,3.98,VWS V14.01,2013-03-21 15:11:00,
2013-03-21 11:12:00,58.9,43.2,29.94,SE,130,0.0,0.0,56,0.00,,SKC,3.98,VWS V14.01,2013-03-21 15:12:00,
2013-03-21 11:13:00,58.9,42.8,29.94,SE,130,0.0,0.0,55,0.00,,SKC,3.98,VWS V14.01,2013-03-21 15:13:00,
2013-03-21 11:14:00,58.8,42.7,29.94,SE,130,0.0,0.0,55,0.00,,SKC,3.98,VWS V14.01,2013-03-21 15:14:00,
2013-03-21 11:15:00,58.8,42.7,29.94,SE,130,0.0,0.0,55,0.00,,SKC,3.98,VWS V14.01,2013-03-21 15:15:00,
2013-03-21 11:16:00,58.7,42.6,29.94,SE,130,0.0,0.0,55,0.00,,SKC,3.98,VWS V14.01,2013-03-21 15:16:00,
2013-03-21 11:17:00,58.7,42.6,29.94,SE,130,0.0,0.0,55,0.00,,SKC,3.98,VWS V14.01,2013-03-21 15:17:00,
2013-03-21 11:18:00,58.7,42.6,29.94,SE,130,0.0,0.0,55,0.00,,SKC,3.98,VWS V14.01,2013-03-21 15:18:00,
2013-03-21 11:19:00,58.6,42.5,29.94,SE,130,0.0,0.0,55,0.00,,SKC,3.98,VWS V14.01,2013-03-21 15:19:00,
2013-03-21 11:20:00,58.6,42.5,29.94,SE,130,0.0,0.0,55,0.00,,SKC,3.98,VWS V14.01,2013-03-21 15:20:00,
2013-03-21 11:21:00,58.6,42.5,29.94,SE,130,0.0,0.0,55,0.00,,SKC,3.98,VWS V14.01,2013-03-21 15:21:00,
2013-03-21 11:22:00,58.6,42.5,29.94,SE,130,0.0,0.0,55,0.00,,SKC,3.98,VWS V14.01,2013-03-21 15:22:00,
2013-03-21 11:23:00,58.5,42.4,29.94,SE,130,0.0,0.0,55,0.00,,SKC,3.98,VWS V14.01,2013-03-21 15:23:00,
2013-03-21 11:24:00,58.5,41.9,29.94,SE,130,0.0,0.0,54,0.00,,SKC,3.98,VWS V14.01,2013-03-21 15:24:00,
2013-03-21 11:25:00,58.5,41.5,29.94,SE,130,0.0,0.0,53,0.00,,SKC,3.98,VWS V14.01,2013-03-21 15:25:00,
2013-03-21 11:26:00,58.5,41.5,29.94,SE,130,0.0,0.0,53,0.00,,SKC,3.98,VWS V14.01,2013-03-21 15:26:00,
2013-03-21 11:27:00,58.5,41.5,29.94,SE,130,0.0,0.0,53,0.00,,SKC,3.98,VWS V14.01,2013-03-21 15:27:00,
2013-03-21 11:28:00,58.4,41.3,29.94,SE,130,0.0,0.0,53,0.00,,SKC,3.98,VWS V14.01,2013-03-21 15:28:00,
2013-03-21 11:29:00,58.3,41.3,29.94,SE,130,0.0,0.0,53,0.00,,SKC,3.98,VWS V14.01,2013-03-21 15:29:00,
2013-03-21 11:30:00,58.3,41.3,29.94,SE,130,0.0,0.0,53,0.00,,SKC,3.98,VWS V14.01,2013-03-21 15:30:00,
2013-03-21 11:31:00,58.3,41.3,29.94,SE,130,0.0,0.0,53,0.00,,SKC,3.98,VWS V14.01,2013-03-21 15:31:00,
2013-03-21 11:32:00,58.2,41.2,29.94,SE,130,0.0,0.0,53,0.00,,SKC,3.98,VWS V14.01,2013-03-21 15:32:00,
2013-03-21 11:33:00,58.2,41.2,29.94,SE,130,0.0,0.0,53,0.00,,SKC,3.98,VWS V14.01,2013-03-21 15:33:00,
2013-03-21 11:34:00,58.1,40.6,29.94,SE,130,0.0,0.0,52,0.00,,SKC,3.98,VWS V14.01,2013-03-21 15:34:00,
2013-03-21 11:35:00,58.0,40.5,29.95,SE,130,0.0,0.0,52,0.00,,SKC,3.98,VWS V14.01,2013-03-21 15:35:00,
2013-03-21 11:36:00,57.9,40.9,29.95,SE,130,0.0,0.0,53,0.00,,SKC,3.98,VWS V14.01,2013-03-21 15:36:00,
2013-03-21 11:37:00,57.8,40.8,29.95,SE,130,0.0,0.0,53,0.00,,SKC,3.98,VWS V14.01,2013-03-21 15:37:00,
2013-03-21 11:38:00,57.7,41.2,29.95,SE,130,0.0,0.0,54,0.00,,SKC,3.98,VWS V14.01,2013-03-21 15:38:00,
2013-03-21 11:39:00,57.6,41.1,29.95,SE,130,0.0,0.0,54,0.00,,SKC,3.98,VWS V14.01,2013-03-21 15:39:00,
2013-03-21 11:40:00,57.5,41.0,29.95,SE,130,0.0,0.0,54,0.00,,SKC,3.98,VWS V14.01,2013-03-21 15:40:00,
2013-03-21 11:41:00,57.5,41.0,29.95,SE,130,0.0,0.0,54,0.00,,SKC,3.98,VWS V14.01,2013-03-21 15:41:00,
2013-03-21 11:42:00,57.4,40.9,29.95,SE,130,0.0,0.0,54,0.00,,SKC,3.98,VWS V14.01,2013-03-21 15:42:00,
2013-03-21 11:43:00,57.4,40.4,29.95,SE,130,0.0,0.0,53,0.00,,SKC,3.98,VWS V14.01,2013-03-21 15:43:00,
2013-03-21 11:44:00,57.3,40.3,29.95,SE,130,0.0,0.0,53,0.00,,SKC,3.98,VWS V14.01,2013-03-21 15:44:00,
2013-03-21 11:45:00,57.3,40.3,29.95,SE,130,0.0,0.0,53,0.00,,SKC,3.98,VWS V14.01,2013-03-21 15:45:00,
2013-03-21 11:46:00,57.2,40.2,29.95,SE,130,0.0,0.0,53,0.00,,SKC,3.98,VWS V14.01,2013-03-21 15:46:00,
2013-03-21 11:47:00,57.2,39.8,29.95,SE,130,0.0,0.0,52,0.00,,SKC,3.98,VWS V14.01,2013-03-21 15:47:00,
2013-03-21 11:48:00,57.2,39.8,29.95,SE,130,0.0,0.0,52,0.00,,SKC,3.98,VWS V14.01,2013-03-21 15:48:00,
2013-03-21 11:49:00,57.2,39.8,29.95,SE,130,0.0,0.0,52,0.00,,SKC,3.98,VWS V14.01,2013-03-21 15:49:00,
2013-03-21 11:50:00,57.1,39.7,29.95,SE,130,0.0,0.0,52,0.00,,SKC,3.98,VWS V14.01,2013-03-21 15:50:00,
2013-03-21 11:51:00,57.1,39.7,29.95,SE,130,0.0,0.0,52,0.00,,SKC,3.98,VWS V14.01,2013-03-21 15:51:00,
2013-03-21 11:52:00,57.1,39.7,29.95,SE,130,0.0,0.0,52,0.00,,SKC,3.98,VWS V14.01,2013-03-21 15:52:00,
2013-03-21 11:53:00,57.0,39.6,29.95,SE,130,0.0,0.0,52,0.00,,SKC,3.98,VWS V14.01,2013-03-21 15:53:00,
2013-03-21 11:54:00,57.0,39.6,29.95,SE,130,0.0,0.0,52,0.00,,SKC,3.98,VWS V14.01,2013-03-21 15:54:00,
2013-03-21 11:55:00,57.0,39.1,29.95,SE,130,0.0,0.0,51,0.00,,SKC,3.98,VWS V14.01,2013-03-21 15:55:00,
2013-03-21 11:56:00,57.0,38.6,29.95,SE,130,0.0,0.0,50,0.00,,SKC,3.98,VWS V14.01,2013-03-21 15:56:00,
2013-03-21 11:57:00,57.0,38.0,29.95,SE,130,0.0,0.0,49,0.00,,SKC,3.98,VWS V14.01,2013-03-21 15:57:00,
2013-03-21 11:58:00,57.0,38.0,29.95,SE,130,0.0,0.0,49,0.00,,SKC,3.98,VWS V14.01,2013-03-21 15:58:00,
2013-03-21 11:59:00,57.0,37.5,29.95,SE,130,0.0,0.0,48,0.00,,SKC,3.98,VWS V14.01,2013-03-21 15:59:00,
2013-03-21 12:00:00,57.0,37.5,29.95,SE,130,0.0,0.0,48,0.00,,SKC,3.98,VWS V14.01,2013-03-21 16:00:00,
2013-03-21 12:01:00,56.9,36.9,29.95,SE,130,0.0,0.0,47,0.00,,SKC,3.98,VWS V14.01,2013-03-21 16:01:00,
2013-03-21 12:02:00,56.9,36.9,29.95,SE,130,0.0,0.0,47,0.00,,SKC,3.98,VWS V14.01,2013-03-21 16:02:00,
2013-03-21 12:03:00,56.8,37.3,29.95,SE,130,0.0,0.0,48,0.00,,SKC,3.98,VWS V14.01,2013-03-21 16:03:00,
2013-03-21 12:04:00,56.8,37.3,29.95,SE,130,0.0,0.0,48,0.00,,SKC,3.98,VWS V14.01,2013-03-21 16:04:00,
2013-03-21 12:05:00,56.8,37.3,29.95,SE,130,0.0,0.0,48,0.00,,SKC,3.98,VWS V14.01,2013-03-21 16:05:00,
2013-03-21 12:06:00,56.7,36.7,29.95,SE,130,0.0,0.0,47,0.00,,SKC,3.98,VWS V14.01,2013-03-21 16:06:00,
2013-03-21 12:07:00,56.8,36.8,29.95,SE,130,0.0,0.0,47,0.00,,SKC,3.98,VWS V14.01,2013-03-21 16:07:00,
2013-03-21 12:08:00,56.7,36.2,29.95,SE,130,0.0,0.0,46,0.00,,SKC,3.98,VWS V14.01,2013-03-21 16:08:00,
2013-03-21 12:09:00,56.7,36.2,29.95,SE,130,0.0,0.0,46,0.00,,SKC,3.98,VWS V14.01,2013-03-21 16:09:00,
2013-03-21 12:10:00,56.8,35.7,29.95,SE,130,0.0,0.0,45,0.00,,SKC,3.98,VWS V14.01,2013-03-21 16:10:00,
2013-03-21 12:11:00,56.7,35.6,29.95,SE,130,0.0,0.0,45,0.00,,SKC,3.98,VWS V14.01,2013-03-21 16:11:00,
2013-03-21 12:12:00,56.7,35.6,29.95,SE,130,0.0,0.0,45,0.00,,SKC,3.98,VWS V14.01,2013-03-21 16:12:00,
2013-03-21 12:13:00,56.6,35.5,29.95,SE,130,0.0,0.0,45,0.00,,SKC,3.98,VWS V14.01,2013-03-21 16:13:00,
2013-03-21 12:14:00,56.6,35.5,29.95,SE,130,0.0,0.0,45,0.00,,SKC,3.98,VWS V14.01,2013-03-21 16:14:00,
2013-03-21 12:15:00,56.6,35.0,29.95,SE,130,0.0,0.0,44,0.00,,SKC,3.98,VWS V14.01,2013-03-21 16:15:00,
2013-03-21 12:16:00,56.6,35.0,29.95,SE,130,0.0,0.0,44,0.00,,SKC,3.98,VWS V14.01,2013-03-21 16:16:00,
2013-03-21 12:17:00,56.5,34.9,29.95,SE,130,0.0,0.0,44,0.00,,SKC,3.98,VWS V14.01,2013-03-21 16:17:00,
2013-03-21 12:18:00,56.5,34.3,29.95,SE,130,0.0,0.0,43,0.00,,SKC,3.98,VWS V14.01,2013-03-21 16:18:00,
2013-03-21 12:19:00,56.5,34.3,29.95,SE,130,0.0,0.0,43,0.00,,SKC,3.98,VWS V14.01,2013-03-21 16:19:00,
2013-03-21 12:20:00,56.4,34.2,29.96,SE,130,0.0,0.0,43,0.00,,SKC,3.98,VWS V14.01,2013-03-21 16:20:00,
2013-03-21 12:21:00,56.4,33.6,29.96,SE,130,0.0,0.0,42,0.00,,SKC,3.98,VWS V14.01,2013-03-21 16:21:00,
2013-03-21 12:22:00,56.4,33.6,29.96,SE,130,0.0,0.0,42,0.00,,SKC,3.98,VWS V14.01,2013-03-21 16:22:00,
2013-03-21 12:23:00,56.4,33.6,29.96,SE,130,0.0,0.0,42,0.00,,SKC,3.98,VWS V14.01,2013-03-21 16:23:00,
2013-03-21 12:24:00,56.3,32.9,29.96,SE,130,0.0,0.0,41,0.00,,SKC,3.98,VWS V14.01,2013-03-21 16:24:00,
2013-03-21 12:25:00,56.3,32.9,29.96,SE,130,0.0,0.0,41,0.00,,SKC,3.98,VWS V14.01,2013-03-21 16:25:00,
2013-03-21 12:26:00,56.2,32.8,29.96,SE,130,0.0,0.0,41,0.00,,SKC,3.98,VWS V14.01,2013-03-21 16:26:00,
2013-03-21 12:27:00,56.1,32.7,29.95,SE,130,0.0,0.0,41,0.00,,SKC,3.98,VWS V14.01,2013-03-21 16:27:00,
2013-03-21 12:28:00,56.0,32.7,29.95,SE,130,0.0,0.0,41,0.00,,SKC,3.98,VWS V14.01,2013-03-21 16:28:00,
2013-03-21 12:29:00,56.0,32.0,29.95,SE,130,0.0,0.0,40,0.00,,SKC,3.98,VWS V14.01,2013-03-21 16:29:00,
2013-03-21 12:30:00,56.0,32.0,29.95,SE,130,0.0,0.0,40,0.00,,SKC,3.98,VWS V14.01,2013-03-21 16:30:00,
2013-03-21 12:31:00,56.0,31.4,29.95,SE,130,0.0,0.0,39,0.00,,SKC,3.98,VWS V14.01,2013-03-21 16:31:00,
2013-03-21 12:32:00,56.0,31.4,29.95,SE,130,0.0,0.0,39,0.00,,SKC,3.98,VWS V14.01,2013-03-21 16:32:00,
2013-03-21 12:33:00,55.9,31.3,29.95,SE,130,0.0,0.0,39,0.00,,SKC,3.98,VWS V14.01,2013-03-21 16:33:00,
2013-03-21 12:34:00,55.9,31.3,29.95,SE,130,0.0,0.0,39,0.00,,SKC,3.98,VWS V14.01,2013-03-21 16:34:00,
2013-03-21 12:35:00,55.9,31.3,29.95,SE,130,0.0,0.0,39,0.00,,SKC,3.98,VWS V14.01,2013-03-21 16:35:00,
2013-03-21 12:36:00,55.9,31.3,29.95,SE,130,0.0,0.0,39,0.00,,SKC,3.98,VWS V14.01,2013-03-21 16:36:00,
2013-03-21 12:37:00,55.8,31.2,29.95,SE,130,0.0,0.0,39,0.00,,SKC,3.98,VWS V14.01,2013-03-21 16:37:00,
2013-03-21 12:38:00,55.8,31.2,29.95,SE,130,0.0,0.0,39,0.00,,SKC,3.98,VWS V14.01,2013-03-21 16:38:00,
2013-03-21 12:39:00,55.7,31.1,29.95,SE,130,0.0,0.0,39,0.00,,SKC,3.98,VWS V14.01,2013-03-21 16:39:00,
2013-03-21 12:40:00,55.7,31.1,29.95,SE,130,0.0,0.0,39,0.00,,SKC,3.98,VWS V14.01,2013-03-21 16:40:00,
2013-03-21 12:41:00,55.7,31.1,29.95,SE,130,0.0,0.0,39,0.00,,SKC,3.98,VWS V14.01,2013-03-21 16:41:00,
2013-03-21 12:42:00,55.7,31.1,29.95,SE,130,0.0,0.0,39,0.00,,SKC,3.98,VWS V14.01,2013-03-21 16:42:00,
2013-03-21 12:43:00,55.6,30.4,29.95,SE,130,0.0,0.0,38,0.00,,SKC,3.98,VWS V14.01,2013-03-21 16:43:00,
2013-03-21 12:44:00,55.6,30.4,29.95,SE,130,0.0,0.0,38,0.00,,SKC,3.98,VWS V14.01,2013-03-21 16:44:00,
2013-03-21 12:45:00,55.6,30.4,29.95,SE,130,0.0,0.0,38,0.00,,SKC,3.98,VWS V14.01,2013-03-21 16:45:00,
2013-03-21 12:46:00,55.6,30.4,29.95,SE,130,0.0,0.0,38,0.00,,SKC,3.98,VWS V14.01,2013-03-21 16:46:00,
2013-03-21 12:47:00,55.5,30.3,29.95,SE,130,0.0,0.0,38,0.00,,SKC,3.98,VWS V14.01,2013-03-21 16:47:00,
2013-03-21 12:48:00,55.5,29.7,29.95,SE,130,0.0,0.0,37,0.00,,SKC,3.98,VWS V14.01,2013-03-21 16:48:00,
2013-03-21 12:49:00,55.5,29.7,29.95,SE,130,0.0,0.0,37,0.00,,SKC,3.98,VWS V14.01,2013-03-21 16:49:00,
2013-03-21 12:50:00,55.6,29.8,29.95,SE,130,0.0,0.0,37,0.00,,SKC,3.98,VWS V14.01,2013-03-21 16:50:00,
2013-03-21 12:51:00,55.6,29.1,29.95,SE,130,0.0,0.0,36,0.00,,SKC,3.98,VWS V14.01,2013-03-21 16:51:00,
2013-03-21 12:52:00,55.6,29.1,29.95,SE,130,0.0,0.0,36,0.00,,SKC,3.98,VWS V14.01,2013-03-21 16:52:00,
2013-03-21 12:53:00,55.6,29.1,29.95,SE,130,0.0,0.0,36,0.00,,SKC,3.98,VWS V14.01,2013-03-21 16:53:00,
2013-03-21 12:54:00,55.6,28.4,29.95,SE,130,0.0,0.0,35,0.00,,SKC,3.98,VWS V14.01,2013-03-21 16:54:00,
2013-03-21 12:55:00,55.6,28.4,29.95,SE,130,0.0,0.0,35,0.00,,SKC,3.98,VWS V14.01,2013-03-21 16:55:00,
2013-03-21 12:56:00,55.6,28.4,29.95,SE,130,0.0,0.0,35,0.00,,SKC,3.98,VWS V14.01,2013-03-21 16:56:00,
2013-03-21 12:57:00,55.6,28.4,29.95,SE,130,0.0,0.0,35,0.00,,SKC,3.98,VWS V14.01,2013-03-21 16:57:00,
2013-03-21 12:58:00,55.5,27.6,29.95,SE,130,0.0,0.0,34,0.00,,SKC,3.98,VWS V14.01,2013-03-21 16:58:00,
2013-03-21 12:59:00,55.6,27.7,29.95,SE,130,0.0,0.0,34,0.00,,SKC,3.98,VWS V14.01,2013-03-21 16:59:00,
2013-03-21 13:00:00,55.5,27.6,29.95,SE,130,0.0,0.0,34,0.00,,SKC,3.98,VWS V14.01,2013-03-21 17:00:00,
2013-03-21 13:01:00,55.5,27.6,29.95,SE,130,0.0,0.0,34,0.00,,SKC,3.98,VWS V14.01,2013-03-21 17:01:00,
2013-03-21 13:02:00,55.5,27.6,29.95,SE,130,0.0,0.0,34,0.00,,SKC,3.98,VWS V14.01,2013-03-21 17:02:00,
2013-03-21 13:03:00,55.5,27.6,29.96,SE,130,0.0,0.0,34,0.00,,SKC,3.98,VWS V14.01,2013-03-21 17:03:00,
2013-03-21 13:04:00,55.5,27.6,29.95,SE,130,0.0,0.0,34,0.00,,SKC,3.98,VWS V14.01,2013-03-21 17:04:00,
2013-03-21 13:05:00,55.5,27.6,29.95,SE,130,0.0,0.0,34,0.00,,SKC,3.98,VWS V14.01,2013-03-21 17:05:00,
2013-03-21 13:06:00,55.5,27.6,29.95,SE,130,0.0,0.0,34,0.00,,SKC,3.98,VWS V14.01,2013-03-21 17:06:00,
2013-03-21 13:07:00,55.5,27.6,29.95,SE,130,0.0,0.0,34,0.00,,SKC,3.98,VWS V14.01,2013-03-21 17:07:00,
2013-03-21 13:08:00,55.4,27.5,29.95,SE,130,0.0,0.0,34,0.00,,SKC,3.98,VWS V14.01,2013-03-21 17:08:00,
2013-03-21 13:09:00,55.4,27.5,29.95,SE,130,0.0,0.0,34,0.00,,SKC,3.98,VWS V14.01,2013-03-21 17:09:00,
2013-03-21 13:10:00,55.4,26.8,29.95,SE,130,0.0,0.0,33,0.00,,SKC,3.98,VWS V14.01,2013-03-21 17:10:00,
2013-03-21 13:11:00,55.4,26.8,29.95,SE,130,0.0,0.0,33,0.00,,SKC,3.98,VWS V14.01,2013-03-21 17:11:00,
2013-03-21 13:12:00,55.4,26.8,29.96,SE,130,0.0,0.0,33,0.00,,SKC,3.98,VWS V14.01,2013-03-21 17:12:00,
2013-03-21 13:13:00,55.3,26.7,29.96,SE,130,0.0,0.0,33,0.00,,SKC,3.98,VWS V14.01,2013-03-21 17:13:00,
2013-03-21 13:14:00,55.3,26.7,29.96,SE,130,0.0,0.0,33,0.00,,SKC,3.98,VWS V14.01,2013-03-21 17:14:00,
2013-03-21 13:15:00,55.3,26.7,29.96,SE,130,0.0,0.0,33,0.00,,SKC,3.98,VWS V14.01,2013-03-21 17:15:00,
2013-03-21 13:16:00,55.3,26.7,29.96,SE,130,0.0,0.0,33,0.00,,SKC,3.98,VWS V14.01,2013-03-21 17:16:00,
2013-03-21 13:17:00,55.3,26.7,29.96,SE,130,0.0,0.0,33,0.00,,SKC,3.98,VWS V14.01,2013-03-21 17:17:00,
2013-03-21 13:18:00,55.3,26.7,29.96,SE,130,0.0,0.0,33,0.00,,SKC,3.98,VWS V14.01,2013-03-21 17:18:00,
2013-03-21 13:19:00,55.3,26.7,29.96,SE,130,0.0,0.0,33,0.00,,SKC,3.98,VWS V14.01,2013-03-21 17:19:00,
2013-03-21 13:20:00,55.3,26.0,29.96,SE,130,0.0,0.0,32,0.00,,SKC,3.98,VWS V14.01,2013-03-21 17:20:00,
2013-03-21 13:21:00,55.3,26.0,29.96,SE,130,0.0,0.0,32,0.00,,SKC,3.98,VWS V14.01,2013-03-21 17:21:00,
2013-03-21 13:22:00,55.3,26.0,29.96,SE,130,0.0,0.0,32,0.00,,SKC,3.98,VWS V14.01,2013-03-21 17:22:00,
2013-03-21 13:23:00,55.2,25.9,29.95,SE,130,0.0,0.0,32,0.00,,SKC,3.98,VWS V14.01,2013-03-21 17:23:00,
2013-03-21 13:24:00,55.2,25.9,29.95,SE,130,0.0,0.0,32,0.00,,SKC,3.98,VWS V14.01,2013-03-21 17:24:00,
2013-03-21 13:25:00,55.2,25.9,29.95,SE,130,0.0,0.0,32,0.00,,SKC,3.98,VWS V14.01,2013-03-21 17:25:00,
2013-03-21 13:26:00,55.2,25.9,29.96,SE,130,0.0,0.0,32,0.00,,SKC,3.98,VWS V14.01,2013-03-21 17:26:00,
2013-03-21 13:27:00,55.2,25.9,29.95,SE,130,0.0,0.0,32,0.00,,SKC,3.98,VWS V14.01,2013-03-21 17:27:00,
2013-03-21 13:28:00,55.2,25.9,29.95,SE,130,0.0,0.0,32,0.00,,SKC,3.98,VWS V14.01,2013-03-21 17:28:00,
2013-03-21 13:29:00,55.2,25.1,29.95,SE,130,0.0,0.0,31,0.00,,SKC,3.98,VWS V14.01,2013-03-21 17:29:00,
2013-03-21 13:30:00,55.2,25.1,29.95,SE,130,0.0,0.0,31,0.00,,SKC,3.98,VWS V14.01,2013-03-21 17:30:00,
2013-03-21 13:31:00,55.2,25.1,29.95,SE,130,0.0,0.0,31,0.00,,SKC,3.98,VWS V14.01,2013-03-21 17:31:00,
2013-03-21 13:32:00,55.2,25.1,29.95,SE,130,0.0,0.0,31,0.00,,SKC,3.98,VWS V14.01,2013-03-21 17:32:00,
2013-03-21 13:33:00,55.2,25.1,29.95,SE,130,0.0,0.0,31,0.00,,SKC,3.98,VWS V14.01,2013-03-21 17:33:00,
2013-03-21 13:34:00,55.2,25.1,29.95,SE,130,0.0,0.0,31,0.00,,SKC,3.98,VWS V14.01,2013-03-21 17:34:00,
2013-03-21 13:35:00,55.2,24.3,29.95,SE,130,0.0,0.0,30,0.00,,SKC,3.98,VWS V14.01,2013-03-21 17:35:00,
2013-03-21 13:36:00,55.2,24.3,29.95,SE,130,0.0,0.0,30,0.00,,SKC,3.98,VWS V14.01,2013-03-21 17:36:00,
2013-03-21 13:37:00,55.2,24.3,29.95,SE,130,0.0,0.0,30,0.00,,SKC,3.98,VWS V14.01,2013-03-21 17:37:00,
2013-03-21 13:38:00,55.2,24.3,29.95,SE,130,0.0,0.0,30,0.00,,SKC,3.98,VWS V14.01,2013-03-21 17:38:00,
2013-03-21 13:39:00,55.2,24.3,29.95,SE,130,0.0,0.0,30,0.00,,SKC,3.98,VWS V14.01,2013-03-21 17:39:00,
2013-03-21 13:40:00,55.2,24.3,29.95,SE,130,0.0,0.0,30,0.00,,SKC,3.98,VWS V14.01,2013-03-21 17:40:00,
2013-03-21 13:41:00,55.2,24.3,29.95,SE,130,0.0,0.0,30,0.00,,SKC,3.98,VWS V14.01,2013-03-21 17:41:00,
2013-03-21 13:42:00,55.2,24.3,29.95,SE,130,0.0,0.0,30,0.00,,SKC,3.98,VWS V14.01,2013-03-21 17:42:00,
2013-03-21 13:43:00,55.2,24.3,29.95,SE,130,0.0,0.0,30,0.00,,SKC,3.98,VWS V14.01,2013-03-21 17:43:00,
2013-03-21 13:44:00,55.2,23.5,29.95,SE,130,0.0,0.0,29,0.00,,SKC,3.98,VWS V14.01,2013-03-21 17:44:00,
2013-03-21 13:45:00,55.1,23.4,29.95,SE,130,0.0,0.0,29,0.00,,SKC,3.98,VWS V14.01,2013-03-21 17:45:00,
2013-03-21 13:46:00,55.1,23.4,29.95,SE,130,0.0,0.0,29,0.00,,SKC,3.98,VWS V14.01,2013-03-21 17:46:00,
2013-03-21 13:47:00,55.1,23.4,29.95,SE,130,0.0,0.0,29,0.00,,SKC,3.98,VWS V14.01,2013-03-21 17:47:00,
2013-03-21 13:48:00,55.1,23.4,29.95,SE,130,0.0,0.0,29,0.00,,SKC,3.98,VWS V14.01,2013-03-21 17:48:00,
2013-03-21 13:49:00,55.1,23.4,29.95,SE,130,0.0,0.0,29,0.00,,SKC,3.98,VWS V14.01,2013-03-21 17:49:00,
2013-03-21 13:50:00,55.1,23.4,29.95,SE,130,0.0,0.0,29,0.00,,SKC,3.98,VWS V14.01,2013-03-21 17:50:00,
2013-03-21 13:51:00,55.0,23.4,29.95,SE,130,0.0,0.0,29,0.00,,SKC,3.98,VWS V14.01,2013-03-21 17:51:00,
2013-03-21 13:52:00,55.1,23.4,29.95,SE,130,0.0,0.0,29,0.00,,SKC,3.98,VWS V14.01,2013-03-21 17:52:00,
2013-03-21 13:53:00,55.1,23.4,29.95,SE,130,0.0,0.0,29,0.00,,SKC,3.98,VWS V14.01,2013-03-21 17:53:00,
2013-03-21 13:54:00,55.0,23.4,29.95,SE,130,0.0,0.0,29,0.00,,SKC,3.98,VWS V14.01,2013-03-21 17:54:00,
2013-03-21 13:55:00,55.0,23.4,29.95,SE,130,0.0,0.0,29,0.00,,SKC,3.98,VWS V14.01,2013-03-21 17:55:00,
2013-03-21 13:56:00,55.0,23.4,29.95,SE,130,0.0,0.0,29,0.00,,SKC,3.98,VWS V14.01,2013-03-21 17:56:00,
2013-03-21 13:57:00,55.0,22.5,29.95,SE,130,0.0,0.0,28,0.00,,SKC,3.98,VWS V14.01,2013-03-21 17:57:00,
2013-03-21 13:58:00,55.0,22.5,29.95,SE,130,0.0,0.0,28,0.00,,SKC,3.98,VWS V14.01,2013-03-21 17:58:00,
2013-03-21 13:59:00,55.1,22.6,29.95,SE,130,0.0,0.0,28,0.00,,SKC,3.98,VWS V14.01,2013-03-21 17:59:00,
2013-03-21 14:00:00,55.0,22.5,29.95,SE,130,0.0,0.0,28,0.00,,SKC,3.98,VWS V14.01,2013-03-21 18:00:00,
2013-03-21 14:01:00,55.0,22.5,29.95,SE,130,0.0,0.0,28,0.00,,SKC,3.98,VWS V14.01,2013-03-21 18:01:00,
2013-03-21 14:02:00,55.0,22.5,29.95,SE,130,0.0,0.0,28,0.00,,SKC,3.98,VWS V14.01,2013-03-21 18:02:00,
2013-03-21 14:03:00,55.0,22.5,29.95,SE,130,0.0,0.0,28,0.00,,SKC,3.98,VWS V14.01,2013-03-21 18:03:00,
2013-03-21 14:04:00,55.0,22.5,29.95,SE,130,0.0,0.0,28,0.01,,SKC,3.99,VWS V14.01,2013-03-21 18:04:00,
2013-03-21 14:05:00,54.9,22.4,29.95,SE,130,0.0,0.0,28,0.01,,SKC,3.99,VWS V14.01,2013-03-21 18:05:00,
2013-03-21 14:06:00,54.9,22.4,29.95,SE,130,0.0,0.0,28,0.04,,SKC,4.02,VWS V14.01,2013-03-21 18:06:00,
2013-03-21 14:07:00,54.8,22.3,29.95,SE,130,0.0,0.0,28,0.19,,SKC,4.17,VWS V14.01,2013-03-21 18:07:00,
2013-03-21 14:08:00,54.8,22.3,29.95,SE,130,0.0,0.0,28,0.42,,SKC,4.40,VWS V14.01,2013-03-21 18:08:00,
2013-03-21 14:09:00,54.8,22.3,29.95,SE,130,0.0,0.0,28,0.66,,SKC,4.64,VWS V14.01,2013-03-21 18:09:00,
2013-03-21 14:10:00,54.7,22.3,29.95,SE,130,0.0,0.0,28,0.84,,SKC,4.82,VWS V14.01,2013-03-21 18:10:00,
2013-03-21 14:11:00,54.7,22.3,29.95,SE,130,0.0,0.0,28,1.00,,SKC,4.98,VWS V14.01,2013-03-21 18:11:00,
2013-03-21 14:12:00,54.7,22.3,29.95,SE,130,0.0,0.0,28,1.07,,SKC,5.05,VWS V14.01,2013-03-21 18:12:00,
2013-03-21 14:13:00,54.7,22.3,29.95,SE,130,0.0,0.0,28,1.10,,SKC,5.08,VWS V14.01,2013-03-21 18:13:00,
2013-03-21 14:14:00,54.7,22.3,29.95,SE,130,0.0,0.0,28,1.11,,SKC,5.09,VWS V14.01,2013-03-21 18:14:00,
2013-03-21 14:15:00,54.7,22.3,29.95,SE,130,0.0,0.0,28,1.14,,SKC,5.12,VWS V14.01,2013-03-21 18:15:00,
2013-03-21 14:16:00,54.6,22.2,29.95,SE,130,0.0,0.0,28,1.14,,SKC,5.12,VWS V14.01,2013-03-21 18:16:00,
2013-03-21 14:17:00,54.7,21.4,29.95,SE,130,0.0,0.0,27,1.18,,SKC,5.16,VWS V14.01,2013-03-21 18:17:00,
2013-03-21 14:18:00,54.6,21.3,29.95,SE,130,0.0,0.0,27,1.19,,SKC,5.17,VWS V14.01,2013-03-21 18:18:00,
2013-03-21 14:19:00,54.7,21.4,29.95,SE,130,0.0,0.0,27,1.19,,SKC,5.17,VWS V14.01,2013-03-21 18:19:00,
2013-03-21 14:20:00,54.7,21.4,29.95,SE,130,0.0,0.0,27,1.19,,SKC,5.17,VWS V14.01,2013-03-21 18:20:00,
2013-03-21 14:21:00,54.7,21.4,29.95,SE,130,0.0,0.0,27,1.19,,SKC,5.17,VWS V14.01,2013-03-21 18:21:00,
2013-03-21 14:22:00,54.7,21.4,29.95,SE,130,0.0,0.0,27,1.19,,SKC,5.17,VWS V14.01,2013-03-21 18:22:00,
2013-03-21 14:23:00,54.6,21.3,29.95,SE,130,0.0,0.0,27,1.19,,SKC,5.17,VWS V14.01,2013-03-21 18:23:00,
2013-03-21 14:24:00,54.6,21.3,29.95,SE,130,0.0,0.0,27,1.19,,SKC,5.17,VWS V14.01,2013-03-21 18:24:00,
2013-03-21 14:25:00,54.6,21.3,29.95,SE,130,0.0,0.0,27,1.19,,SKC,5.17,VWS V14.01,2013-03-21 18:25:00,
2013-03-21 14:26:00,54.6,21.3,29.95,SE,130,0.0,0.0,27,1.19,,SKC,5.17,VWS V14.01,2013-03-21 18:26:00,
2013-03-21 14:27:00,54.6,21.3,29.95,SE,130,0.0,0.0,27,1.19,,SKC,5.17,VWS V14.01,2013-03-21 18:27:00,
2013-03-21 14:28:00,54.6,21.3,29.95,SE,130,0.0,0.0,27,1.19,,SKC,5.17,VWS V14.01,2013-03-21 18:28:00,
2013-03-21 14:29:00,54.6,21.3,29.95,SE,130,0.0,0.0,27,1.19,,SKC,5.17,VWS V14.01,2013-03-21 18:29:00,
2013-03-21 14:30:00,54.5,21.2,29.95,SE,130,0.0,0.0,27,1.19,,SKC,5.17,VWS V14.01,2013-03-21 18:30:00,
2013-03-21 14:31:00,54.5,21.2,29.95,SE,130,0.0,0.0,27,1.19,,SKC,5.17,VWS V14.01,2013-03-21 18:31:00,
2013-03-21 14:32:00,54.5,21.2,29.95,SE,130,0.0,0.0,27,1.19,,SKC,5.17,VWS V14.01,2013-03-21 18:32:00,
2013-03-21 14:33:00,54.4,21.1,29.95,SE,130,0.0,0.0,27,1.19,,SKC,5.17,VWS V14.01,2013-03-21 18:33:00,
2013-03-21 14:34:00,54.4,21.1,29.95,SE,130,0.0,0.0,27,1.19,,SKC,5.17,VWS V14.01,2013-03-21 18:34:00,
2013-03-21 14:35:00,54.4,21.1,29.95,SE,130,0.0,0.0,27,1.19,,SKC,5.17,VWS V14.01,2013-03-21 18:35:00,
2013-03-21 14:36:00,54.3,21.0,29.95,SE,130,0.0,0.0,27,1.19,,SKC,5.17,VWS V14.01,2013-03-21 18:36:00,
2013-03-21 14:37:00,54.3,21.0,29.95,SE,130,0.0,0.0,27,1.19,,SKC,5.17,VWS V14.01,2013-03-21 18:37:00,
2013-03-21 14:38:00,54.2,21.0,29.95,SE,130,0.0,0.0,27,1.19,,SKC,5.17,VWS V14.01,2013-03-21 18:38:00,
2013-03-21 14:39:00,54.2,21.0,29.95,SE,130,0.0,0.0,27,1.19,,SKC,5.17,VWS V14.01,2013-03-21 18:39:00,
2013-03-21 14:40:00,54.2,21.0,29.95,SE,130,0.0,0.0,27,1.19,,SKC,5.17,VWS V14.01,2013-03-21 18:40:00,
2013-03-21 14:41:00,54.2,21.0,29.94,SE,130,0.0,0.0,27,1.19,,SKC,5.17,VWS V14.01,2013-03-21 18:41:00,
2013-03-21 14:42:00,54.2,21.0,29.95,SE,130,0.0,0.0,27,1.19,,SKC,5.17,VWS V14.01,2013-03-21 18:42:00,
2013-03-21 14:43:00,54.2,20.1,29.94,SE,130,0.0,0.0,26,1.19,,SKC,5.17,VWS V14.01,2013-03-21 18:43:00,
2013-03-21 14:44:00,54.2,20.1,29.95,SE,130,0.0,0.0,26,1.19,,SKC,5.17,VWS V14.01,2013-03-21 18:44:00,
2013-03-21 14:45:00,54.2,20.1,29.94,SE,130,0.0,0.0,26,1.19,,SKC,5.17,VWS V14.01,2013-03-21 18:45:00,
2013-03-21 14:46:00,54.2,20.1,29.94,SE,130,0.0,0.0,26,1.19,,SKC,5.17,VWS V14.01,2013-03-21 18:46:00,
2013-03-21 14:47:00,54.2,20.1,29.94,SE,130,0.0,0.0,26,1.19,,SKC,5.17,VWS V14.01,2013-03-21 18:47:00,
2013-03-21 14:48:00,54.2,20.1,29.94,SE,130,0.0,0.0,26,1.19,,SKC,5.17,VWS V14.01,2013-03-21 18:48:00,
2013-03-21 14:49:00,54.2,20.1,29.94,SE,130,0.0,0.0,26,1.19,,SKC,5.17,VWS V14.01,2013-03-21 18:49:00,
2013-03-21 14:50:00,54.2,19.2,29.94,SE,130,0.0,0.0,25,1.19,,SKC,5.17,VWS V14.01,2013-03-21 18:50:00,
2013-03-21 14:51:00,54.2,19.2,29.94,SE,130,0.0,0.0,25,1.19,,SKC,5.17,VWS V14.01,2013-03-21 18:51:00,
2013-03-21 14:52:00,54.2,19.2,29.94,SE,130,0.0,0.0,25,1.19,,SKC,5.17,VWS V14.01,2013-03-21 18:52:00,
2013-03-21 14:53:00,54.2,19.2,29.94,SE,130,0.0,0.0,25,1.19,,SKC,5.17,VWS V14.01,2013-03-21 18:53:00,
2013-03-21 14:54:00,54.2,19.2,29.94,SE,130,0.0,0.0,25,1.19,,SKC,5.17,VWS V14.01,2013-03-21 18:54:00,
2013-03-21 14:55:00,54.1,19.1,29.94,SE,130,0.0,0.0,25,1.19,,SKC,5.17,VWS V14.01,2013-03-21 18:55:00,
2013-03-21 14:56:00,54.1,20.0,29.94,SE,130,0.0,0.0,26,1.19,,SKC,5.17,VWS V14.01,2013-03-21 18:56:00,
2013-03-21 14:57:00,54.0,19.9,29.94,SE,130,0.0,0.0,26,1.19,,SKC,5.17,VWS V14.01,2013-03-21 18:57:00,
2013-03-21 14:58:00,53.9,19.8,29.94,SE,130,0.0,0.0,26,1.19,,SKC,5.17,VWS V14.01,2013-03-21 18:58:00,
2013-03-21 14:59:00,53.8,19.7,29.94,SE,130,0.0,0.0,26,1.19,,SKC,5.17,VWS V14.01,2013-03-21 18:59:00,
2013-03-21 15:00:00,53.8,19.7,29.94,SE,130,0.0,0.0,26,1.19,,SKC,5.17,VWS V14.01,2013-03-21 19:00:00,
2013-03-21 15:01:00,53.7,19.6,29.94,SE,130,0.0,0.0,26,1.19,,SKC,5.17,VWS V14.01,2013-03-21 19:01:00,
2013-03-21 15:02:00,53.7,19.6,29.94,SE,130,0.0,0.0,26,1.19,,SKC,5.17,VWS V14.01,2013-03-21 19:02:00,
2013-03-21 15:03:00,53.6,19.6,29.94,SE,130,0.0,0.0,26,1.19,,SKC,5.17,VWS V14.01,2013-03-21 19:03:00,
2013-03-21 15:04:00,53.6,19.6,29.94,SE,130,0.0,0.0,26,1.19,,SKC,5.17,VWS V14.01,2013-03-21 19:04:00,
2013-03-21 15:05:00,53.5,20.4,29.94,SE,130,0.0,0.0,27,1.19,,SKC,5.17,VWS V14.01,2013-03-21 19:05:00,
2013-03-21 15:06:00,53.5,20.4,29.94,SE,130,0.0,0.0,27,1.19,,SKC,5.17,VWS V14.01,2013-03-21 19:06:00,
2013-03-21 15:07:00,53.4,20.3,29.94,SE,130,0.0,0.0,27,1.19,,SKC,5.17,VWS V14.01,2013-03-21 19:07:00,
2013-03-21 15:08:00,53.4,20.3,29.94,SE,130,0.0,0.0,27,1.19,,SKC,5.17,VWS V14.01,2013-03-21 19:08:00,
2013-03-21 15:09:00,53.3,19.3,29.94,SE,130,0.0,0.0,26,1.19,,SKC,5.17,VWS V14.01,2013-03-21 19:09:00,
2013-03-21 15:10:00,53.3,19.3,29.94,SE,130,0.0,0.0,26,1.19,,SKC,5.17,VWS V14.01,2013-03-21 19:10:00,
2013-03-21 15:11:00,53.3,19.3,29.94,SE,130,0.0,0.0,26,1.19,,SKC,5.17,VWS V14.01,2013-03-21 19:11:00,
2013-03-21 15:12:00,53.3,19.3,29.94,SE,130,0.0,0.0,26,1.19,,SKC,5.17,VWS V14.01,2013-03-21 19:12:00,
2013-03-21 15:13:00,53.3,19.3,29.94,SE,130,0.0,0.0,26,1.19,,SKC,5.17,VWS V14.01,2013-03-21 19:13:00,
2013-03-21 15:14:00,53.3,19.3,29.94,SE,130,0.0,0.0,26,1.19,,SKC,5.17,VWS V14.01,2013-03-21 19:14:00,
2013-03-21 15:15:00,53.3,19.3,29.94,SE,130,0.0,0.0,26,1.19,,SKC,5.17,VWS V14.01,2013-03-21 19:15:00,
2013-03-21 15:16:00,53.3,19.3,29.94,SE,130,0.0,0.0,26,1.19,,SKC,5.17,VWS V14.01,2013-03-21 19:16:00,
2013-03-21 15:17:00,53.3,19.3,29.94,SE,130,0.0,0.0,26,1.19,,SKC,5.17,VWS V14.01,2013-03-21 19:17:00,
2013-03-21 15:18:00,53.3,19.3,29.94,SE,130,0.0,0.0,26,1.19,,SKC,5.17,VWS V14.01,2013-03-21 19:18:00,
2013-03-21 15:19:00,53.4,19.4,29.94,SE,130,0.0,0.0,26,1.19,,SKC,5.17,VWS V14.01,2013-03-21 19:19:00,
2013-03-21 15:20:00,53.4,19.4,29.94,SE,130,0.0,0.0,26,1.19,,SKC,5.17,VWS V14.01,2013-03-21 19:20:00,
2013-03-21 15:21:00,53.3,19.3,29.94,SE,130,0.0,0.0,26,1.19,,SKC,5.17,VWS V14.01,2013-03-21 19:21:00,
2013-03-21 15:22:00,53.4,19.4,29.94,SE,130,0.0,0.0,26,1.19,,SKC,5.17,VWS V14.01,2013-03-21 19:22:00,
2013-03-21 15:23:00,53.3,18.4,29.94,SE,130,0.0,0.0,25,1.19,,SKC,5.17,VWS V14.01,2013-03-21 19:23:00,
2013-03-21 15:24:00,53.4,18.5,29.94,SE,130,0.0,0.0,25,1.19,,SKC,5.17,VWS V14.01,2013-03-21 19:24:00,
2013-03-21 15:25:00,53.3,18.4,29.94,SE,130,0.0,0.0,25,1.19,,SKC,5.17,VWS V14.01,2013-03-21 19:25:00,
2013-03-21 15:26:00,53.3,18.4,29.94,SE,130,0.0,0.0,25,1.19,,SKC,5.17,VWS V14.01,2013-03-21 19:26:00,
2013-03-21 15:27:00,53.3,18.4,29.94,SE,130,0.0,0.0,25,1.19,,SKC,5.17,VWS V14.01,2013-03-21 19:27:00,
2013-03-21 15:28:00,53.3,18.4,29.94,SE,130,0.0,0.0,25,1.19,,SKC,5.17,VWS V14.01,2013-03-21 19:28:00,
2013-03-21 15:29:00,53.3,18.4,29.94,SE,130,0.0,0.0,25,1.19,,SKC,5.17,VWS V14.01,2013-03-21 19:29:00,
2013-03-21 15:30:00,53.3,18.4,29.94,SE,130,0.0,0.0,25,1.19,,SKC,5.17,VWS V14.01,2013-03-21 19:30:00,
2013-03-21 15:31:00,53.3,18.4,29.94,SE,130,0.0,0.0,25,0.00,,SKC,5.17,VWS V14.01,2013-03-21 19:31:00,
2013-03-21 15:32:00,53.3,18.4,29.94,SE,130,0.0,0.0,25,0.00,,SKC,5.17,VWS V14.01,2013-03-21 19:32:00,
2013-03-21 15:33:00,53.2,18.3,29.94,SE,130,0.0,0.0,25,0.00,,SKC,5.17,VWS V14.01,2013-03-21 19:33:00,
2013-03-21 15:34:00,53.2,18.3,29.94,SE,130,0.0,0.0,25,0.00,,SKC,5.17,VWS V14.01,2013-03-21 19:34:00,
2013-03-21 15:35:00,53.2,18.3,29.94,SE,130,0.0,0.0,25,0.00,,SKC,5.17,VWS V14.01,2013-03-21 19:35:00,
2013-03-21 15:36:00,53.1,18.2,29.94,SE,130,0.0,0.0,25,0.00,,SKC,5.17,VWS V14.01,2013-03-21 19:36:00,
2013-03-21 15:37:00,53.1,18.2,29.94,SE,130,0.0,0.0,25,0.00,,SKC,5.17,VWS V14.01,2013-03-21 19:37:00,
2013-03-21 15:38:00,53.1,18.2,29.94,SE,130,0.0,0.0,25,0.00,,SKC,5.17,VWS V14.01,2013-03-21 19:38:00,
2013-03-21 15:39:00,53.1,18.2,29.94,SE,130,0.0,0.0,25,0.00,,SKC,5.17,VWS V14.01,2013-03-21 19:39:00,
2013-03-21 15:40:00,53.0,18.1,29.94,SE,130,0.0,0.0,25,0.00,,SKC,5.17,VWS V14.01,2013-03-21 19:40:00,
2013-03-21 15:41:00,53.0,18.1,29.94,SE,130,0.0,0.0,25,0.00,,SKC,5.17,VWS V14.01,2013-03-21 19:41:00,
2013-03-21 15:42:00,53.0,18.1,29.94,SE,130,0.0,0.0,25,0.00,,SKC,5.17,VWS V14.01,2013-03-21 19:42:00,
2013-03-21 15:43:00,53.0,18.1,29.94,SE,130,0.0,0.0,25,0.00,,SKC,5.17,VWS V14.01,2013-03-21 19:43:00,
2013-03-21 15:44:00,53.0,18.1,29.94,SE,130,0.0,0.0,25,0.00,,SKC,5.17,VWS V14.01,2013-03-21 19:44:00,
2013-03-21 15:45:00,52.9,18.0,29.94,SE,130,0.0,0.0,25,0.00,,SKC,5.17,VWS V14.01,2013-03-21 19:45:00,
2013-03-21 15:46:00,52.9,18.0,29.94,SE,130,0.0,0.0,25,0.00,,SKC,5.17,VWS V14.01,2013-03-21 19:46:00,
2013-03-21 15:47:00,52.9,18.0,29.94,SE,130,0.0,0.0,25,0.00,,SKC,5.17,VWS V14.01,2013-03-21 19:47:00,
2013-03-21 15:48:00,52.9,18.0,29.94,SE,130,0.0,0.0,25,0.00,,SKC,5.17,VWS V14.01,2013-03-21 19:48:00,
2013-03-21 15:49:00,52.9,18.0,29.94,SE,130,0.0,0.0,25,0.00,,SKC,5.17,VWS V14.01,2013-03-21 19:49:00,
2013-03-21 15:50:00,52.8,18.0,29.94,SE,130,0.0,0.0,25,0.00,,SKC,5.17,VWS V14.01,2013-03-21 19:50:00,
2013-03-21 15:51:00,52.8,18.0,29.94,SE,130,0.0,0.0,25,0.00,,SKC,5.17,VWS V14.01,2013-03-21 19:51:00,
2013-03-21 15:52:00,52.8,18.0,29.94,SE,130,0.0,0.0,25,0.00,,SKC,5.17,VWS V14.01,2013-03-21 19:52:00,
2013-03-21 15:53:00,52.8,18.0,29.94,SE,130,0.0,0.0,25,0.00,,SKC,5.17,VWS V14.01,2013-03-21 19:53:00,
2013-03-21 15:54:00,52.8,18.0,29.94,SE,130,0.0,0.0,25,0.00,,SKC,5.17,VWS V14.01,2013-03-21 19:54:00,
2013-03-21 15:55:00,52.8,18.0,29.93,SE,130,0.0,0.0,25,0.00,,SKC,5.17,VWS V14.01,2013-03-21 19:55:00,
2013-03-21 15:56:00,52.8,18.0,29.94,SE,130,0.0,0.0,25,0.00,,SKC,5.17,VWS V14.01,2013-03-21 19:56:00,
2013-03-21 15:57:00,52.8,18.0,29.94,SE,130,0.0,0.0,25,0.00,,SKC,5.17,VWS V14.01,2013-03-21 19:57:00,
2013-03-21 15:58:00,52.8,18.0,29.94,SE,130,0.0,0.0,25,0.00,,SKC,5.17,VWS V14.01,2013-03-21 19:58:00,
2013-03-21 15:59:00,52.8,18.0,29.93,SE,130,0.0,0.0,25,0.00,,SKC,5.17,VWS V14.01,2013-03-21 19:59:00,
2013-03-21 16:00:00,52.8,18.0,29.93,SE,130,0.0,0.0,25,0.00,,SKC,5.17,VWS V14.01,2013-03-21 20:00:00,
2013-03-21 16:01:00,52.8,18.0,29.93,SE,130,0.0,0.0,25,0.00,,SKC,5.17,VWS V14.01,2013-03-21 20:01:00,
2013-03-21 16:02:00,52.9,18.0,29.93,SE,130,0.0,0.0,25,0.00,,SKC,5.17,VWS V14.01,2013-03-21 20:02:00,
2013-03-21 16:03:00,52.9,17.1,29.93,SE,130,0.0,0.0,24,0.00,,SKC,5.17,VWS V14.01,2013-03-21 20:03:00,
2013-03-21 16:04:00,53.0,17.2,29.93,SE,130,0.0,0.0,24,0.00,,SKC,5.17,VWS V14.01,2013-03-21 20:04:00,
2013-03-21 16:05:00,53.0,17.2,29.93,SE,130,0.0,0.0,24,0.00,,SKC,5.17,VWS V14.01,2013-03-21 20:05:00,
2013-03-21 16:06:00,52.9,17.1,29.93,SE,130,0.0,0.0,24,0.00,,SKC,5.17,VWS V14.01,2013-03-21 20:06:00,
2013-03-21 16:07:00,52.9,17.1,29.93,SE,130,0.0,0.0,24,0.00,,SKC,5.17,VWS V14.01,2013-03-21 20:07:00,
2013-03-21 16:08:00,52.9,17.1,29.93,SE,130,0.0,0.0,24,0.00,,SKC,5.17,VWS V14.01,2013-03-21 20:08:00,
2013-03-21 16:09:00,52.9,17.1,29.93,SE,130,0.0,0.0,24,0.00,,SKC,5.17,VWS V14.01,2013-03-21 20:09:00,
2013-03-21 16:10:00,52.9,17.1,29.93,SE,130,0.0,0.0,24,0.00,,SKC,5.17,VWS V14.01,2013-03-21 20:10:00,
2013-03-21 16:11:00,52.9,17.1,29.93,SE,130,0.0,0.0,24,0.00,,SKC,5.17,VWS V14.01,2013-03-21 20:11:00,
2013-03-21 16:12:00,52.9,17.1,29.93,SE,130,0.0,0.0,24,0.00,,SKC,5.17,VWS V14.01,2013-03-21 20:12:00,
2013-03-21 16:13:00,52.9,17.1,29.93,SE,130,0.0,0.0,24,0.00,,SKC,5.17,VWS V14.01,2013-03-21 20:13:00,
2013-03-21 16:14:00,52.9,17.1,29.93,SE,130,0.0,0.0,24,0.00,,SKC,5.17,VWS V14.01,2013-03-21 20:14:00,
2013-03-21 16:15:00,52.8,17.0,29.93,SE,130,0.0,0.0,24,0.00,,SKC,5.17,VWS V14.01,2013-03-21 20:15:00,
2013-03-21 16:16:00,52.8,17.0,29.93,SE,130,0.0,0.0,24,0.00,,SKC,5.17,VWS V14.01,2013-03-21 20:16:00,
2013-03-21 16:17:00,52.8,17.0,29.93,SE,130,0.0,0.0,24,0.00,,SKC,5.17,VWS V14.01,2013-03-21 20:17:00,
2013-03-21 16:18:00,52.8,17.0,29.93,SE,130,0.0,0.0,24,0.00,,SKC,5.17,VWS V14.01,2013-03-21 20:18:00,
2013-03-21 16:19:00,52.8,17.0,29.93,SE,130,0.0,0.0,24,0.00,,SKC,5.17,VWS V14.01,2013-03-21 20:19:00,
2013-03-21 16:20:00,52.8,17.0,29.93,SE,130,0.0,0.0,24,0.00,,SKC,5.17,VWS V14.01,2013-03-21 20:20:00,
2013-03-21 16:21:00,52.9,17.1,29.93,SE,130,0.0,0.0,24,0.00,,SKC,5.17,VWS V14.01,2013-03-21 20:21:00,
2013-03-21 16:22:00,52.9,17.1,29.93,SE,130,0.0,0.0,24,0.00,,SKC,5.17,VWS V14.01,2013-03-21 20:22:00,
2013-03-21 16:23:00,52.9,17.1,29.93,SE,130,0.0,0.0,24,0.00,,SKC,5.17,VWS V14.01,2013-03-21 20:23:00,
2013-03-21 16:24:00,52.9,17.1,29.93,SE,130,0.0,0.0,24,0.00,,SKC,5.17,VWS V14.01,2013-03-21 20:24:00,
2013-03-21 16:25:00,52.9,17.1,29.93,SE,130,0.0,0.0,24,0.00,,SKC,5.17,VWS V14.01,2013-03-21 20:25:00,
2013-03-21 16:26:00,52.9,17.1,29.93,SE,130,0.0,0.0,24,0.00,,SKC,5.17,VWS V14.01,2013-03-21 20:26:00,
2013-03-21 16:27:00,52.9,17.1,29.93,SE,130,0.0,0.0,24,0.00,,SKC,5.17,VWS V14.01,2013-03-21 20:27:00,
2013-03-21 16:28:00,52.8,17.0,29.93,SE,130,0.0,0.0,24,0.00,,SKC,5.17,VWS V14.01,2013-03-21 20:28:00,
2013-03-21 16:29:00,52.8,17.0,29.93,SE,130,0.0,0.0,24,0.00,,SKC,5.17,VWS V14.01,2013-03-21 20:29:00,
2013-03-21 16:30:00,52.8,17.0,29.93,SE,130,0.0,0.0,24,0.00,,SKC,5.17,VWS V14.01,2013-03-21 20:30:00,
2013-03-21 16:31:00,52.8,17.0,29.93,SE,130,0.0,0.0,24,0.00,,SKC,5.17,VWS V14.01,2013-03-21 20:31:00,
2013-03-21 16:32:00,52.8,17.0,29.93,SE,130,0.0,0.0,24,0.00,,SKC,5.17,VWS V14.01,2013-03-21 20:32:00,
2013-03-21 16:33:00,52.9,17.1,29.93,SE,130,0.0,0.0,24,0.00,,SKC,5.17,VWS V14.01,2013-03-21 20:33:00,
2013-03-21 16:34:00,52.8,17.0,29.93,SE,130,0.0,0.0,24,0.00,,SKC,5.17,VWS V14.01,2013-03-21 20:34:00,
2013-03-21 16:35:00,52.8,17.0,29.93,SE,130,0.0,0.0,24,0.00,,SKC,5.17,VWS V14.01,2013-03-21 20:35:00,
2013-03-21 16:36:00,52.8,17.0,29.93,SE,130,0.0,0.0,24,0.00,,SKC,5.17,VWS V14.01,2013-03-21 20:36:00,
2013-03-21 16:37:00,52.8,17.0,29.93,SE,130,0.0,0.0,24,0.00,,SKC,5.17,VWS V14.01,2013-03-21 20:37:00,
2013-03-21 16:38:00,52.8,17.0,29.93,SE,130,0.0,0.0,24,0.00,,SKC,5.17,VWS V14.01,2013-03-21 20:38:00,
2013-03-21 16:39:00,52.8,17.0,29.93,SE,130,0.0,0.0,24,0.00,,SKC,5.17,VWS V14.01,2013-03-21 20:39:00,
2013-03-21 16:40:00,52.8,17.0,29.93,SE,130,0.0,0.0,24,0.00,,SKC,5.17,VWS V14.01,2013-03-21 20:40:00,
2013-03-21 16:41:00,52.8,17.0,29.93,SE,130,0.0,0.0,24,0.00,,SKC,5.17,VWS V14.01,2013-03-21 20:41:00,
2013-03-21 16:42:00,52.8,17.0,29.93,SE,130,0.0,0.0,24,0.00,,SKC,5.17,VWS V14.01,2013-03-21 20:42:00,
2013-03-21 16:43:00,52.7,16.9,29.93,SE,130,0.0,0.0,24,0.00,,SKC,5.17,VWS V14.01,2013-03-21 20:43:00,
2013-03-21 16:44:00,52.7,16.9,29.93,SE,130,0.0,0.0,24,0.00,,SKC,5.17,VWS V14.01,2013-03-21 20:44:00,
2013-03-21 16:45:00,52.7,16.9,29.93,SE,130,0.0,0.0,24,0.00,,SKC,5.17,VWS V14.01,2013-03-21 20:45:00,
2013-03-21 16:46:00,52.8,16.0,29.93,SE,130,0.0,0.0,23,0.00,,SKC,5.17,VWS V14.01,2013-03-21 20:46:00,
2013-03-21 16:47:00,52.8,16.0,29.93,SE,130,0.0,0.0,23,0.00,,SKC,5.17,VWS V14.01,2013-03-21 20:47:00,
2013-03-21 16:48:00,52.8,16.0,29.93,SE,130,0.0,0.0,23,0.00,,SKC,5.17,VWS V14.01,2013-03-21 20:48:00,
2013-03-21 16:49:00,52.8,16.0,29.93,SE,130,0.0,0.0,23,0.00,,SKC,5.17,VWS V14.01,2013-03-21 20:49:00,
2013-03-21 16:50:00,52.8,16.0,29.93,SE,130,0.0,0.0,23,0.00,,SKC,5.17,VWS V14.01,2013-03-21 20:50:00,
2013-03-21 16:51:00,52.8,16.0,29.93,SE,130,0.0,0.0,23,0.00,,SKC,5.17,VWS V14.01,2013-03-21 20:51:00,
2013-03-21 16:52:00,52.8,16.0,29.93,SE,130,0.0,0.0,23,0.00,,SKC,5.17,VWS V14.01,2013-03-21 20:52:00,
2013-03-21 16:53:00,52.8,16.0,29.93,SE,130,0.0,0.0,23,0.00,,SKC,5.17,VWS V14.01,2013-03-21 20:53:00,
2013-03-21 16:54:00,52.8,16.0,29.93,SE,130,0.0,0.0,23,0.00,,SKC,5.17,VWS V14.01,2013-03-21 20:54:00,
2013-03-21 16:55:00,52.8,16.0,29.93,SE,130,0.0,0.0,23,0.00,,SKC,5.17,VWS V14.01,2013-03-21 20:55:00,
2013-03-21 16:56:00,52.8,16.0,29.93,SE,130,0.0,0.0,23,0.00,,SKC,5.17,VWS V14.01,2013-03-21 20:56:00,
2013-03-21 16:57:00,52.8,16.0,29.93,SE,130,0.0,0.0,23,0.00,,SKC,5.17,VWS V14.01,2013-03-21 20:57:00,
2013-03-21 16:58:00,52.8,16.0,29.93,SE,130,0.0,0.0,23,0.00,,SKC,5.17,VWS V14.01,2013-03-21 20:58:00,
2013-03-21 16:59:00,52.8,16.0,29.93,SE,130,0.0,0.0,23,0.00,,SKC,5.17,VWS V14.01,2013-03-21 20:59:00,
2013-03-21 17:00:00,52.8,16.0,29.93,SE,130,0.0,0.0,23,0.00,,SKC,5.17,VWS V14.01,2013-03-21 21:00:00,
2013-03-21 17:01:00,52.7,16.0,29.93,SE,130,0.0,0.0,23,0.00,,SKC,5.17,VWS V14.01,2013-03-21 21:01:00,
2013-03-21 17:02:00,52.7,16.0,29.93,SE,130,0.0,0.0,23,0.00,,SKC,5.17,VWS V14.01,2013-03-21 21:02:00,
2013-03-21 17:03:00,52.7,16.0,29.93,SE,130,0.0,0.0,23,0.00,,SKC,5.17,VWS V14.01,2013-03-21 21:03:00,
2013-03-21 17:04:00,52.7,16.0,29.93,SE,130,0.0,0.0,23,0.00,,SKC,5.17,VWS V14.01,2013-03-21 21:04:00,
2013-03-21 17:05:00,52.6,15.9,29.93,SE,130,0.0,0.0,23,0.00,,SKC,5.17,VWS V14.01,2013-03-21 21:05:00,
2013-03-21 17:06:00,52.6,15.9,29.93,SE,130,0.0,0.0,23,0.00,,SKC,5.17,VWS V14.01,2013-03-21 21:06:00,
2013-03-21 17:07:00,52.6,15.9,29.93,SE,130,0.0,0.0,23,0.00,,SKC,5.17,VWS V14.01,2013-03-21 21:07:00,
2013-03-21 17:08:00,52.6,15.9,29.93,SE,130,0.0,0.0,23,0.00,,SKC,5.17,VWS V14.01,2013-03-21 21:08:00,
2013-03-21 17:09:00,52.5,15.8,29.92,SE,130,0.0,0.0,23,0.00,,SKC,5.17,VWS V14.01,2013-03-21 21:09:00,
2013-03-21 17:10:00,52.5,15.8,29.92,SE,130,0.0,0.0,23,0.00,,SKC,5.17,VWS V14.01,2013-03-21 21:10:00,
2013-03-21 17:11:00,52.4,16.7,29.92,SE,130,0.0,0.0,24,0.00,,SKC,5.17,VWS V14.01,2013-03-21 21:11:00,
2013-03-21 17:12:00,52.4,16.7,29.92,SE,130,0.0,0.0,24,0.00,,SKC,5.17,VWS V14.01,2013-03-21 21:12:00,
2013-03-21 17:13:00,52.4,16.7,29.92,SE,130,0.0,0.0,24,0.00,,SKC,5.17,VWS V14.01,2013-03-21 21:13:00,
2013-03-21 17:14:00,52.3,16.6,29.92,SE,130,0.0,0.0,24,0.00,,SKC,5.17,VWS V14.01,2013-03-21 21:14:00,
2013-03-21 17:15:00,52.3,16.6,29.92,SE,130,0.0,0.0,24,0.00,,SKC,5.17,VWS V14.01,2013-03-21 21:15:00,
2013-03-21 17:16:00,52.3,16.6,29.92,SE,130,0.0,0.0,24,0.00,,SKC,5.17,VWS V14.01,2013-03-21 21:16:00,
2013-03-21 17:17:00,52.3,16.6,29.92,SE,130,0.0,0.0,24,0.00,,SKC,5.17,VWS V14.01,2013-03-21 21:17:00,
2013-03-21 17:18:00,52.3,16.6,29.92,SE,130,0.0,0.0,24,0.00,,SKC,5.17,VWS V14.01,2013-03-21 21:18:00,
2013-03-21 17:19:00,52.2,16.5,29.92,SE,130,0.0,0.0,24,0.00,,SKC,5.17,VWS V14.01,2013-03-21 21:19:00,
2013-03-21 17:20:00,52.2,16.5,29.92,SE,130,0.0,0.0,24,0.00,,SKC,5.17,VWS V14.01,2013-03-21 21:20:00,
2013-03-21 17:21:00,52.2,16.5,29.92,SE,130,0.0,0.0,24,0.00,,SKC,5.17,VWS V14.01,2013-03-21 21:21:00,
2013-03-21 17:22:00,52.2,16.5,29.92,SE,130,0.0,0.0,24,0.00,,SKC,5.17,VWS V14.01,2013-03-21 21:22:00,
2013-03-21 17:23:00,52.1,16.4,29.92,SE,130,0.0,0.0,24,0.00,,SKC,5.17,VWS V14.01,2013-03-21 21:23:00,
2013-03-21 17:24:00,52.1,16.4,29.92,SE,130,0.0,0.0,24,0.00,,SKC,5.17,VWS V14.01,2013-03-21 21:24:00,
2013-03-21 17:25:00,52.1,16.4,29.92,SE,130,0.0,0.0,24,0.00,,SKC,5.17,VWS V14.01,2013-03-21 21:25:00,
2013-03-21 17:26:00,52.1,16.4,29.92,SE,130,0.0,0.0,24,0.00,,SKC,5.17,VWS V14.01,2013-03-21 21:26:00,
2013-03-21 17:27:00,52.0,16.4,29.92,SE,130,0.0,0.0,24,0.00,,SKC,5.17,VWS V14.01,2013-03-21 21:27:00,
2013-03-21 17:28:00,52.0,16.4,29.92,SE,130,0.0,0.0,24,0.00,,SKC,5.17,VWS V14.01,2013-03-21 21:28:00,
2013-03-21 17:29:00,52.0,16.4,29.92,SE,130,0.0,0.0,24,0.00,,SKC,5.17,VWS V14.01,2013-03-21 21:29:00,
2013-03-21 17:30:00,52.0,16.4,29.92,SE,130,0.0,0.0,24,0.00,,SKC,5.17,VWS V14.01,2013-03-21 21:30:00,
2013-03-21 17:31:00,52.0,16.4,29.92,SE,130,0.0,0.0,24,0.00,,SKC,5.17,VWS V14.01,2013-03-21 21:31:00,
2013-03-21 17:32:00,52.0,16.4,29.92,SE,130,0.0,0.0,24,0.00,,SKC,5.17,VWS V14.01,2013-03-21 21:32:00,
2013-03-21 17:33:00,52.0,16.4,29.92,SE,130,0.0,0.0,24,0.00,,SKC,5.17,VWS V14.01,2013-03-21 21:33:00,
2013-03-21 17:34:00,51.9,16.3,29.92,SE,130,0.0,0.0,24,0.00,,SKC,5.17,VWS V14.01,2013-03-21 21:34:00,
2013-03-21 17:35:00,52.0,16.4,29.92,SE,130,0.0,0.0,24,0.00,,SKC,5.17,VWS V14.01,2013-03-21 21:35:00,
2013-03-21 17:36:00,51.9,16.3,29.92,SE,130,0.0,0.0,24,0.00,,SKC,5.17,VWS V14.01,2013-03-21 21:36:00,
2013-03-21 17:37:00,51.9,16.3,29.92,SE,130,0.0,0.0,24,0.00,,SKC,5.17,VWS V14.01,2013-03-21 21:37:00,
2013-03-21 17:38:00,51.9,16.3,29.92,SE,130,0.0,0.0,24,0.00,,SKC,5.17,VWS V14.01,2013-03-21 21:38:00,
2013-03-21 17:39:00,51.9,16.3,29.92,SE,130,0.0,0.0,24,0.00,,SKC,5.17,VWS V14.01,2013-03-21 21:39:00,
2013-03-21 17:40:00,51.9,16.3,29.92,SE,130,0.0,0.0,24,0.00,,SKC,5.17,VWS V14.01,2013-03-21 21:40:00,
2013-03-21 17:41:00,51.9,16.3,29.92,SE,130,0.0,0.0,24,0.00,,SKC,5.17,VWS V14.01,2013-03-21 21:41:00,
2013-03-21 17:42:00,51.8,16.2,29.92,SE,130,0.0,0.0,24,0.00,,SKC,5.17,VWS V14.01,2013-03-21 21:42:00,
2013-03-21 17:43:00,51.8,16.2,29.92,SE,130,0.0,0.0,24,0.00,,SKC,5.17,VWS V14.01,2013-03-21 21:43:00,
2013-03-21 17:44:00,51.8,16.2,29.92,SE,130,0.0,0.0,24,0.00,,SKC,5.17,VWS V14.01,2013-03-21 21:44:00,
2013-03-21 17:45:00,51.8,16.2,29.92,SE,130,0.0,0.0,24,0.00,,SKC,5.17,VWS V14.01,2013-03-21 21:45:00,
2013-03-21 17:46:00,51.8,16.2,29.92,SE,130,0.0,0.0,24,0.00,,SKC,5.17,VWS V14.01,2013-03-21 21:46:00,
2013-03-21 17:47:00,51.8,16.2,29.92,SE,130,0.0,0.0,24,0.00,,SKC,5.17,VWS V14.01,2013-03-21 21:47:00,
2013-03-21 17:48:00,51.9,16.3,29.92,SE,130,0.0,0.0,24,0.00,,SKC,5.17,VWS V14.01,2013-03-21 21:48:00,
2013-03-21 17:49:00,51.9,16.3,29.92,SE,130,0.0,0.0,24,0.00,,SKC,5.17,VWS V14.01,2013-03-21 21:49:00,
2013-03-21 17:50:00,51.8,16.2,29.92,SE,130,0.0,0.0,24,0.00,,SKC,5.17,VWS V14.01,2013-03-21 21:50:00,
2013-03-21 17:51:00,51.9,15.3,29.92,SE,130,0.0,0.0,23,0.00,,SKC,5.17,VWS V14.01,2013-03-21 21:51:00,
2013-03-21 17:52:00,51.9,15.3,29.92,SE,130,0.0,0.0,23,0.00,,SKC,5.17,VWS V14.01,2013-03-21 21:52:00,
2013-03-21 17:53:00,51.9,15.3,29.92,SE,130,0.0,0.0,23,0.00,,SKC,5.17,VWS V14.01,2013-03-21 21:53:00,
2013-03-21 17:54:00,51.9,15.3,29.92,SE,130,0.0,0.0,23,0.00,,SKC,5.17,VWS V14.01,2013-03-21 21:54:00,
2013-03-21 17:55:00,51.9,15.3,29.92,SE,130,0.0,0.0,23,0.00,,SKC,5.17,VWS V14.01,2013-03-21 21:55:00,
2013-03-21 17:56:00,51.9,15.3,29.92,SE,130,0.0,0.0,23,0.00,,SKC,5.17,VWS V14.01,2013-03-21 21:56:00,
2013-03-21 17:57:00,51.9,15.3,29.92,SE,130,0.0,0.0,23,0.00,,SKC,5.17,VWS V14.01,2013-03-21 21:57:00,
2013-03-21 17:58:00,52.0,15.4,29.92,SE,130,0.0,0.0,23,0.00,,SKC,5.17,VWS V14.01,2013-03-21 21:58:00,
2013-03-21 17:59:00,51.9,15.3,29.92,SE,130,0.0,0.0,23,0.00,,SKC,5.17,VWS V14.01,2013-03-21 21:59:00,
2013-03-21 18:00:00,51.9,15.3,29.92,SE,130,0.0,0.0,23,0.00,,SKC,5.17,VWS V14.01,2013-03-21 22:00:00,
2013-03-21 18:01:00,51.9,15.3,29.92,SE,130,0.0,0.0,23,0.00,,SKC,5.17,VWS V14.01,2013-03-21 22:01:00,
2013-03-21 18:02:00,52.0,15.4,29.92,SE,130,0.0,0.0,23,0.00,,SKC,5.17,VWS V14.01,2013-03-21 22:02:00,
2013-03-21 18:03:00,52.0,15.4,29.92,SE,130,0.0,0.0,23,0.00,,SKC,5.17,VWS V14.01,2013-03-21 22:03:00,
2013-03-21 18:04:00,52.0,15.4,29.92,SE,130,0.0,0.0,23,0.00,,SKC,5.17,VWS V14.01,2013-03-21 22:04:00,
2013-03-21 18:05:00,52.0,15.4,29.92,SE,130,0.0,0.0,23,0.00,,SKC,5.17,VWS V14.01,2013-03-21 22:05:00,
2013-03-21 18:06:00,52.0,15.4,29.91,SE,130,0.0,0.0,23,0.00,,SKC,5.17,VWS V14.01,2013-03-21 22:06:00,
2013-03-21 18:07:00,52.0,15.4,29.91,SE,130,0.0,0.0,23,0.00,,SKC,5.17,VWS V14.01,2013-03-21 22:07:00,
2013-03-21 18:08:00,52.0,15.4,29.91,SE,130,0.0,0.0,23,0.00,,SKC,5.17,VWS V14.01,2013-03-21 22:08:00,
2013-03-21 18:09:00,52.0,15.4,29.91,SE,130,0.0,0.0,23,0.00,,SKC,5.17,VWS V14.01,2013-03-21 22:09:00,
2013-03-21 18:10:00,52.0,15.4,29.91,SE,130,0.0,0.0,23,0.00,,SKC,5.17,VWS V14.01,2013-03-21 22:10:00,
2013-03-21 18:11:00,52.0,15.4,29.91,SE,130,0.0,0.0,23,0.00,,SKC,5.17,VWS V14.01,2013-03-21 22:11:00,
2013-03-21 18:12:00,52.0,15.4,29.91,SE,130,0.0,0.0,23,0.00,,SKC,5.17,VWS V14.01,2013-03-21 22:12:00,
2013-03-21 18:13:00,52.0,15.4,29.91,SE,130,0.0,0.0,23,0.00,,SKC,5.17,VWS V14.01,2013-03-21 22:13:00,
2013-03-21 18:14:00,52.0,15.4,29.91,SE,130,0.0,0.0,23,0.00,,SKC,5.17,VWS V14.01,2013-03-21 22:14:00,
2013-03-21 18:15:00,52.0,15.4,29.91,SE,130,0.0,0.0,23,0.00,,SKC,5.17,VWS V14.01,2013-03-21 22:15:00,
2013-03-21 18:16:00,52.0,15.4,29.91,SE,130,0.0,0.0,23,0.00,,SKC,5.17,VWS V14.01,2013-03-21 22:16:00,
2013-03-21 18:17:00,51.9,15.3,29.91,SE,130,0.0,0.0,23,0.00,,SKC,5.17,VWS V14.01,2013-03-21 22:17:00,
2013-03-21 18:18:00,51.9,15.3,29.91,SE,130,0.0,0.0,23,0.00,,SKC,5.17,VWS V14.01,2013-03-21 22:18:00,
2013-03-21 18:19:00,51.9,15.3,29.91,SE,130,0.0,0.0,23,0.00,,SKC,5.17,VWS V14.01,2013-03-21 22:19:00,
2013-03-21 18:20:00,51.9,15.3,29.91,SE,130,0.0,0.0,23,0.00,,SKC,5.17,VWS V14.01,2013-03-21 22:20:00,
2013-03-21 18:21:00,51.9,15.3,29.91,SE,130,0.0,0.0,23,0.00,,SKC,5.17,VWS V14.01,2013-03-21 22:21:00,
2013-03-21 18:22:00,52.0,15.4,29.91,SE,130,0.0,0.0,23,0.00,,SKC,5.17,VWS V14.01,2013-03-21 22:22:00,
2013-03-21 18:23:00,52.0,15.4,29.91,SE,130,0.0,0.0,23,0.00,,SKC,5.17,VWS V14.01,2013-03-21 22:23:00,
2013-03-21 18:24:00,52.0,15.4,29.91,SE,130,0.0,0.0,23,0.00,,SKC,5.17,VWS V14.01,2013-03-21 22:24:00,
2013-03-21 18:25:00,52.0,15.4,29.91,SE,130,0.0,0.0,23,0.00,,SKC,5.17,VWS V14.01,2013-03-21 22:25:00,
2013-03-21 18:26:00,52.0,15.4,29.91,SE,130,0.0,0.0,23,0.00,,SKC,5.17,VWS V14.01,2013-03-21 22:26:00,
2013-03-21 18:27:00,52.0,15.4,29.91,SE,130,0.0,0.0,23,0.00,,SKC,5.17,VWS V14.01,2013-03-21 22:27:00,
2013-03-21 18:28:00,52.0,15.4,29.91,SE,130,0.0,0.0,23,0.00,,SKC,5.17,VWS V14.01,2013-03-21 22:28:00,
2013-03-21 18:29:00,52.1,15.4,29.91,SE,130,0.0,0.0,23,0.00,,SKC,5.17,VWS V14.01,2013-03-21 22:29:00,
2013-03-21 18:30:00,52.0,14.4,29.91,SE,130,0.0,0.0,22,0.00,,SKC,5.17,VWS V14.01,2013-03-21 22:30:00,
2013-03-21 18:31:00,52.0,15.4,29.91,SE,130,0.0,0.0,23,0.00,,SKC,5.17,VWS V14.01,2013-03-21 22:31:00,
2013-03-21 18:32:00,52.0,15.4,29.91,SE,130,0.0,0.0,23,0.00,,SKC,5.17,VWS V14.01,2013-03-21 22:32:00,
2013-03-21 18:33:00,52.0,14.4,29.91,SE,130,0.0,0.0,22,0.00,,SKC,5.17,VWS V14.01,2013-03-21 22:33:00,
2013-03-21 18:34:00,52.0,14.4,29.91,SE,130,0.0,0.0,22,0.00,,SKC,5.17,VWS V14.01,2013-03-21 22:34:00,
2013-03-21 18:35:00,52.0,14.4,29.91,SE,130,0.0,0.0,22,0.00,,SKC,5.17,VWS V14.01,2013-03-21 22:35:00,
2013-03-21 18:36:00,52.0,14.4,29.91,SE,130,0.0,0.0,22,0.00,,SKC,5.17,VWS V14.01,2013-03-21 22:36:00,
2013-03-21 18:37:00,52.0,14.4,29.91,SE,130,0.0,0.0,22,0.00,,SKC,5.17,VWS V14.01,2013-03-21 22:37:00,
2013-03-21 18:38:00,52.0,14.4,29.91,SE,130,0.0,0.0,22,0.00,,SKC,5.17,VWS V14.01,2013-03-21 22:38:00,
2013-03-21 18:39:00,52.0,14.4,29.91,SE,130,0.0,0.0,22,0.00,,SKC,5.17,VWS V14.01,2013-03-21 22:39:00,
2013-03-21 18:40:00,52.0,14.4,29.91,SE,130,0.0,0.0,22,0.00,,SKC,5.17,VWS V14.01,2013-03-21 22:40:00,
2013-03-21 18:41:00,52.0,14.4,29.91,SE,130,0.0,0.0,22,0.00,,SKC,5.17,VWS V14.01,2013-03-21 22:41:00,
2013-03-21 18:42:00,52.0,14.4,29.91,SE,130,0.0,0.0,22,0.00,,SKC,5.17,VWS V14.01,2013-03-21 22:42:00,
2013-03-21 18:43:00,52.1,14.4,29.91,SE,130,0.0,0.0,22,0.00,,SKC,5.17,VWS V14.01,2013-03-21 22:43:00,
2013-03-21 18:44:00,52.0,14.4,29.91,SE,130,0.0,0.0,22,0.00,,SKC,5.17,VWS V14.01,2013-03-21 22:44:00,
2013-03-21 18:45:00,52.1,14.4,29.91,SE,130,0.0,0.0,22,0.00,,SKC,5.17,VWS V14.01,2013-03-21 22:45:00,
2013-03-21 18:46:00,52.0,14.4,29.92,SE,130,0.0,0.0,22,0.00,,SKC,5.17,VWS V14.01,2013-03-21 22:46:00,
2013-03-21 18:47:00,52.1,14.4,29.92,SE,130,0.0,0.0,22,0.00,,SKC,5.17,VWS V14.01,2013-03-21 22:47:00,
2013-03-21 18:48:00,52.1,14.4,29.92,SE,130,0.0,0.0,22,0.00,,SKC,5.17,VWS V14.01,2013-03-21 22:48:00,
2013-03-21 18:49:00,52.1,14.4,29.92,SE,130,0.0,0.0,22,0.00,,SKC,5.17,VWS V14.01,2013-03-21 22:49:00,
2013-03-21 18:50:00,52.2,14.5,29.92,SE,130,0.0,0.0,22,0.00,,SKC,5.17,VWS V14.01,2013-03-21 22:50:00,
2013-03-21 18:51:00,52.2,14.5,29.92,SE,130,0.0,0.0,22,0.00,,SKC,5.17,VWS V14.01,2013-03-21 22:51:00,
2013-03-21 18:52:00,52.2,14.5,29.92,SE,130,0.0,0.0,22,0.00,,SKC,5.17,VWS V14.01,2013-03-21 22:52:00,
2013-03-21 18:53:00,52.2,14.5,29.92,SE,130,0.0,0.0,22,0.00,,SKC,5.17,VWS V14.01,2013-03-21 22:53:00,
2013-03-21 18:54:00,52.2,14.5,29.91,SE,130,0.0,0.0,22,0.00,,SKC,5.17,VWS V14.01,2013-03-21 22:54:00,
2013-03-21 18:55:00,52.2,14.5,29.92,SE,130,0.0,0.0,22,0.00,,SKC,5.17,VWS V14.01,2013-03-21 22:55:00,
2013-03-21 18:56:00,52.2,14.5,29.92,SE,130,0.0,0.0,22,0.00,,SKC,5.17,VWS V14.01,2013-03-21 22:56:00,
2013-03-21 18:57:00,52.2,14.5,29.91,SE,130,0.0,0.0,22,0.00,,SKC,5.17,VWS V14.01,2013-03-21 22:57:00,
2013-03-21 18:58:00,52.2,14.5,29.91,SE,130,0.0,0.0,22,0.00,,SKC,5.17,VWS V14.01,2013-03-21 22:58:00,
2013-03-21 18:59:00,52.2,14.5,29.92,SE,130,0.0,0.0,22,0.00,,SKC,5.17,VWS V14.01,2013-03-21 22:59:00,
2013-03-21 19:00:00,52.2,14.5,29.92,SE,130,0.0,0.0,22,0.00,,SKC,5.17,VWS V14.01,2013-03-21 23:00:00,
2013-03-21 19:01:00,52.2,14.5,29.92,SE,130,0.0,0.0,22,0.00,,SKC,5.17,VWS V14.01,2013-03-21 23:01:00,
2013-03-21 19:02:00,52.2,14.5,29.92,SE,130,0.0,0.0,22,0.00,,SKC,5.17,VWS V14.01,2013-03-21 23:02:00,
2013-03-21 19:03:00,52.2,14.5,29.92,SE,130,0.0,0.0,22,0.00,,SKC,5.17,VWS V14.01,2013-03-21 23:03:00,
2013-03-21 19:04:00,52.2,14.5,29.92,SE,130,0.0,0.0,22,0.00,,SKC,5.17,VWS V14.01,2013-03-21 23:04:00,
2013-03-21 19:05:00,52.2,14.5,29.92,SE,130,0.0,0.0,22,0.00,,SKC,5.17,VWS V14.01,2013-03-21 23:05:00,
2013-03-21 19:06:00,52.2,14.5,29.92,SE,130,0.0,0.0,22,0.00,,SKC,5.17,VWS V14.01,2013-03-21 23:06:00,
2013-03-21 19:07:00,52.2,14.5,29.92,SE,130,0.0,0.0,22,0.00,,SKC,5.17,VWS V14.01,2013-03-21 23:07:00,
2013-03-21 19:08:00,52.3,14.6,29.92,SE,130,0.0,0.0,22,0.00,,SKC,5.17,VWS V14.01,2013-03-21 23:08:00,
2013-03-21 19:09:00,52.2,14.5,29.92,SE,130,0.0,0.0,22,0.00,,SKC,5.17,VWS V14.01,2013-03-21 23:09:00,
2013-03-21 19:10:00,52.3,14.6,29.92,SE,130,0.0,0.0,22,0.00,,SKC,5.17,VWS V14.01,2013-03-21 23:10:00,
2013-03-21 19:11:00,52.2,14.5,29.92,SE,130,0.0,0.0,22,0.00,,SKC,5.17,VWS V14.01,2013-03-21 23:11:00,
2013-03-21 19:12:00,52.3,14.6,29.92,SE,130,0.0,0.0,22,0.00,,SKC,5.17,VWS V14.01,2013-03-21 23:12:00,
2013-03-21 19:13:00,52.2,14.5,29.92,SE,130,0.0,0.0,22,0.00,,SKC,5.17,VWS V14.01,2013-03-21 23:13:00,
2013-03-21 19:14:00,52.3,14.6,29.92,SE,130,0.0,0.0,22,0.00,,SKC,5.17,VWS V14.01,2013-03-21 23:14:00,
2013-03-21 19:15:00,52.3,14.6,29.92,SE,130,0.0,0.0,22,0.00,,SKC,5.17,VWS V14.01,2013-03-21 23:15:00,
2013-03-21 19:16:00,52.3,14.6,29.92,SE,130,0.0,0.0,22,0.00,,SKC,5.17,VWS V14.01,2013-03-21 23:16:00,
2013-03-21 19:17:00,52.3,14.6,29.92,SE,130,0.0,0.0,22,0.00,,SKC,5.17,VWS V14.01,2013-03-21 23:17:00,
2013-03-21 19:18:00,52.3,14.6,29.92,SE,130,0.0,0.0,22,0.00,,SKC,5.17,VWS V14.01,2013-03-21 23:18:00,
2013-03-21 19:19:00,52.3,14.6,29.92,SE,130,0.0,0.0,22,0.00,,SKC,5.17,VWS V14.01,2013-03-21 23:19:00,
2013-03-21 19:20:00,52.3,14.6,29.92,SE,130,0.0,0.0,22,0.00,,SKC,5.17,VWS V14.01,2013-03-21 23:20:00,
2013-03-21 19:21:00,52.3,14.6,29.92,SE,130,0.0,0.0,22,0.00,,SKC,5.17,VWS V14.01,2013-03-21 23:21:00,
2013-03-21 19:22:00,52.3,14.6,29.92,SE,130,0.0,0.0,22,0.00,,SKC,5.17,VWS V14.01,2013-03-21 23:22:00,
2013-03-21 19:23:00,52.3,14.6,29.92,SE,130,0.0,0.0,22,0.00,,SKC,5.17,VWS V14.01,2013-03-21 23:23:00,
2013-03-21 19:24:00,52.3,14.6,29.92,SE,130,0.0,0.0,22,0.00,,SKC,5.17,VWS V14.01,2013-03-21 23:24:00,
2013-03-21 19:25:00,52.3,14.6,29.92,SE,130,0.0,0.0,22,0.00,,SKC,5.17,VWS V14.01,2013-03-21 23:25:00,
2013-03-21 19:26:00,52.3,14.6,29.92,SE,130,0.0,0.0,22,0.00,,SKC,5.17,VWS V14.01,2013-03-21 23:26:00,
2013-03-21 19:27:00,52.3,14.6,29.92,SE,130,0.0,0.0,22,0.00,,SKC,5.17,VWS V14.01,2013-03-21 23:27:00,
2013-03-21 19:28:00,52.3,14.6,29.92,SE,130,0.0,0.0,22,0.00,,SKC,5.17,VWS V14.01,2013-03-21 23:28:00,
2013-03-21 19:29:00,52.3,14.6,29.92,SE,130,0.0,0.0,22,0.00,,SKC,5.17,VWS V14.01,2013-03-21 23:29:00,
2013-03-21 19:30:00,52.3,14.6,29.92,SE,130,0.0,0.0,22,0.00,,SKC,5.17,VWS V14.01,2013-03-21 23:30:00,
2013-03-21 19:31:00,52.3,14.6,29.92,SE,130,0.0,0.0,22,0.00,,SKC,5.17,VWS V14.01,2013-03-21 23:31:00,
2013-03-21 19:32:00,52.3,14.6,29.92,SE,130,0.0,0.0,22,0.00,,SKC,5.17,VWS V14.01,2013-03-21 23:32:00,
2013-03-21 19:33:00,52.3,14.6,29.92,SE,130,0.0,0.0,22,0.00,,SKC,5.17,VWS V14.01,2013-03-21 23:33:00,
2013-03-21 19:34:00,52.3,14.6,29.92,SE,130,0.0,0.0,22,0.00,,SKC,5.17,VWS V14.01,2013-03-21 23:34:00,
2013-03-21 19:35:00,52.3,14.6,29.92,SE,130,0.0,0.0,22,0.00,,SKC,5.17,VWS V14.01,2013-03-21 23:35:00,
2013-03-21 19:36:00,52.3,14.6,29.92,SE,130,0.0,0.0,22,0.00,,SKC,5.17,VWS V14.01,2013-03-21 23:36:00,
2013-03-21 19:37:00,52.3,14.6,29.92,SE,130,0.0,0.0,22,0.00,,SKC,5.17,VWS V14.01,2013-03-21 23:37:00,
2013-03-21 19:38:00,52.3,14.6,29.92,SE,130,0.0,0.0,22,0.00,,SKC,5.17,VWS V14.01,2013-03-21 23:38:00,
2013-03-21 19:39:00,52.3,14.6,29.92,SE,130,0.0,0.0,22,0.00,,SKC,5.17,VWS V14.01,2013-03-21 23:39:00,
2013-03-21 19:40:00,52.3,14.6,29.93,SE,130,0.0,0.0,22,0.00,,SKC,5.17,VWS V14.01,2013-03-21 23:40:00,
2013-03-21 19:41:00,52.3,14.6,29.93,SE,130,0.0,0.0,22,0.00,,SKC,5.17,VWS V14.01,2013-03-21 23:41:00,
2013-03-21 19:42:00,52.3,14.6,29.93,SE,130,0.0,0.0,22,0.00,,SKC,5.17,VWS V14.01,2013-03-21 23:42:00,
2013-03-21 19:43:00,52.3,14.6,29.93,SE,130,0.0,0.0,22,0.00,,SKC,5.17,VWS V14.01,2013-03-21 23:43:00,
2013-03-21 19:44:00,52.3,14.6,29.93,SE,130,0.0,0.0,22,0.00,,SKC,5.17,VWS V14.01,2013-03-21 23:44:00,
2013-03-21 19:45:00,52.3,14.6,29.93,SE,130,0.0,0.0,22,0.00,,SKC,5.17,VWS V14.01,2013-03-21 23:45:00,
2013-03-21 19:46:00,52.3,14.6,29.93,SE,130,0.0,0.0,22,0.00,,SKC,5.17,VWS V14.01,2013-03-21 23:46:00,
2013-03-21 19:47:00,52.3,14.6,29.93,SE,130,0.0,0.0,22,0.00,,SKC,5.17,VWS V14.01,2013-03-21 23:47:00,
2013-03-21 19:48:00,52.3,14.6,29.93,SE,130,0.0,0.0,22,0.00,,SKC,5.17,VWS V14.01,2013-03-21 23:48:00,
2013-03-21 19:49:00,52.3,14.6,29.93,SE,130,0.0,0.0,22,0.00,,SKC,5.17,VWS V14.01,2013-03-21 23:49:00,
2013-03-21 19:50:00,52.3,14.6,29.93,SE,130,0.0,0.0,22,0.00,,SKC,5.17,VWS V14.01,2013-03-21 23:50:00,
2013-03-21 19:51:00,52.3,14.6,29.93,SE,130,0.0,0.0,22,0.00,,SKC,5.17,VWS V14.01,2013-03-21 23:51:00,
2013-03-21 19:52:00,52.2,14.5,29.93,SE,130,0.0,0.0,22,0.00,,SKC,5.17,VWS V14.01,2013-03-21 23:52:00,
2013-03-21 19:53:00,52.2,14.5,29.94,SE,130,0.0,0.0,22,0.00,,SKC,5.17,VWS V14.01,2013-03-21 23:53:00,
2013-03-21 19:54:00,52.2,14.5,29.94,SE,130,0.0,0.0,22,0.00,,SKC,5.17,VWS V14.01,2013-03-21 23:54:00,
2013-03-21 19:55:00,52.2,14.5,29.94,SE,130,0.0,0.0,22,0.00,,SKC,5.17,VWS V14.01,2013-03-21 23:55:00,
2013-03-21 19:56:00,52.1,14.4,29.94,SE,130,0.0,0.0,22,0.00,,SKC,5.17,VWS V14.01,2013-03-21 23:56:00,
2013-03-21 19:57:00,52.1,14.4,29.94,SE,130,0.0,0.0,22,0.00,,SKC,5.17,VWS V14.01,2013-03-21 23:57:00,
2013-03-21 19:58:00,52.1,14.4,29.94,SE,130,0.0,0.0,22,0.00,,SKC,5.17,VWS V14.01,2013-03-21 23:58:00,
2013-03-21 19:59:00,52.1,14.4,29.94,SE,130,0.0,0.0,22,0.00,,SKC,5.17,VWS V14.01,2013-03-21 23:59:00,
2013-03-21 20:00:00,52.1,14.4,29.94,SE,130,0.0,0.0,22,0.00,,SKC,5.17,VWS V14.01,2013-03-22 00:00:00,
2013-03-21 20:01:00,52.1,14.4,29.93,SE,130,0.0,0.0,22,0.00,,SKC,5.17,VWS V14.01,2013-03-22 00:01:00,
2013-03-21 20:02:00,52.0,14.4,29.93,SE,130,0.0,0.0,22,0.00,,SKC,5.17,VWS V14.01,2013-03-22 00:02:00,
2013-03-21 20:03:00,52.0,14.4,29.94,SE,130,0.0,0.0,22,0.00,,SKC,5.17,VWS V14.01,2013-03-22 00:03:00,
2013-03-21 20:04:00,52.0,14.4,29.94,SE,130,0.0,0.0,22,0.00,,SKC,5.17,VWS V14.01,2013-03-22 00:04:00,
2013-03-21 20:05:00,52.1,14.4,29.94,SE,130,0.0,0.0,22,0.00,,SKC,5.17,VWS V14.01,2013-03-22 00:05:00,
2013-03-21 20:06:00,52.1,14.4,29.94,SE,130,0.0,0.0,22,0.00,,SKC,5.17,VWS V14.01,2013-03-22 00:06:00,
2013-03-21 20:07:00,52.1,14.4,29.94,SE,130,0.0,0.0,22,0.00,,SKC,5.17,VWS V14.01,2013-03-22 00:07:00,
2013-03-21 20:08:00,52.1,14.4,29.94,SE,130,0.0,0.0,22,0.00,,SKC,5.17,VWS V14.01,2013-03-22 00:08:00,
2013-03-21 20:09:00,52.1,14.4,29.94,SE,130,0.0,0.0,22,0.00,,SKC,5.17,VWS V14.01,2013-03-22 00:09:00,
2013-03-21 20:10:00,52.1,14.4,29.94,SE,130,0.0,0.0,22,0.00,,SKC,5.17,VWS V14.01,2013-03-22 00:10:00,
2013-03-21 20:11:00,52.1,14.4,29.94,SE,130,0.0,0.0,22,0.00,,SKC,5.17,VWS V14.01,2013-03-22 00:11:00,
2013-03-21 20:12:00,52.1,14.4,29.94,SE,130,0.0,0.0,22,0.00,,SKC,5.17,VWS V14.01,2013-03-22 00:12:00,
2013-03-21 20:13:00,52.1,14.4,29.94,SE,130,0.0,0.0,22,0.00,,SKC,5.17,VWS V14.01,2013-03-22 00:13:00,
2013-03-21 20:14:00,52.1,14.4,29.94,SE,130,0.0,0.0,22,0.00,,SKC,5.17,VWS V14.01,2013-03-22 00:14:00,
2013-03-21 20:15:00,52.1,14.4,29.94,SE,130,0.0,0.0,22,0.00,,SKC,5.17,VWS V14.01,2013-03-22 00:15:00,
2013-03-21 20:16:00,52.1,14.4,29.94,SE,130,0.0,0.0,22,0.00,,SKC,5.17,VWS V14.01,2013-03-22 00:16:00,
2013-03-21 20:17:00,52.1,14.4,29.94,SE,130,0.0,0.0,22,0.00,,SKC,5.17,VWS V14.01,2013-03-22 00:17:00,
2013-03-21 20:18:00,52.1,14.4,29.94,SE,130,0.0,0.0,22,0.00,,SKC,5.17,VWS V14.01,2013-03-22 00:18:00,
2013-03-21 20:19:00,52.1,14.4,29.94,SE,130,0.0,0.0,22,0.00,,SKC,5.17,VWS V14.01,2013-03-22 00:19:00,
2013-03-21 20:20:00,52.1,14.4,29.94,SE,130,0.0,0.0,22,0.00,,SKC,5.17,VWS V14.01,2013-03-22 00:20:00,
2013-03-21 20:21:00,52.1,14.4,29.94,SE,130,0.0,0.0,22,0.00,,SKC,5.17,VWS V14.01,2013-03-22 00:21:00,
2013-03-21 20:22:00,52.1,14.4,29.94,SE,130,0.0,0.0,22,0.00,,SKC,5.17,VWS V14.01,2013-03-22 00:22:00,
2013-03-21 20:23:00,52.2,14.5,29.94,SE,130,0.0,0.0,22,0.00,,SKC,5.17,VWS V14.01,2013-03-22 00:23:00,
2013-03-21 20:24:00,52.2,14.5,29.94,SE,130,0.0,0.0,22,0.00,,SKC,5.17,VWS V14.01,2013-03-22 00:24:00,
2013-03-21 20:25:00,52.2,14.5,29.94,SE,130,0.0,0.0,22,0.00,,SKC,5.17,VWS V14.01,2013-03-22 00:25:00,
2013-03-21 20:26:00,52.2,14.5,29.95,SE,130,0.0,0.0,22,0.00,,SKC,5.17,VWS V14.01,2013-03-22 00:26:00,
2013-03-21 20:27:00,52.2,14.5,29.95,SE,130,0.0,0.0,22,0.00,,SKC,5.17,VWS V14.01,2013-03-22 00:27:00,
2013-03-21 20:28:00,52.2,13.5,29.95,SE,130,0.0,0.0,21,0.00,,SKC,5.17,VWS V14.01,2013-03-22 00:28:00,
2013-03-21 20:29:00,52.3,13.5,29.95,SE,130,0.0,0.0,21,0.00,,SKC,5.17,VWS V14.01,2013-03-22 00:29:00,
2013-03-21 20:30:00,52.3,13.5,29.95,SE,130,0.0,0.0,21,0.00,,SKC,5.17,VWS V14.01,2013-03-22 00:30:00,
2013-03-21 20:31:00,52.3,13.5,29.95,SE,130,0.0,0.0,21,0.00,,SKC,5.17,VWS V14.01,2013-03-22 00:31:00,
2013-03-21 20:32:00,52.3,13.5,29.95,SE,130,0.0,0.0,21,0.00,,SKC,5.17,VWS V14.01,2013-03-22 00:32:00,
2013-03-21 20:33:00,52.3,13.5,29.95,SE,130,0.0,0.0,21,0.00,,SKC,5.17,VWS V14.01,2013-03-22 00:33:00,
2013-03-21 20:34:00,52.3,13.5,29.95,SE,130,0.0,0.0,21,0.00,,SKC,5.17,VWS V14.01,2013-03-22 00:34:00,
2013-03-21 20:35:00,52.3,13.5,29.95,SE,130,0.0,0.0,21,0.00,,SKC,5.17,VWS V14.01,2013-03-22 00:35:00,
2013-03-21 20:36:00,52.3,13.5,29.95,SE,130,0.0,0.0,21,0.00,,SKC,5.17,VWS V14.01,2013-03-22 00:36:00,
2013-03-21 20:37:00,52.3,13.5,29.95,SE,130,0.0,0.0,21,0.00,,SKC,5.17,VWS V14.01,2013-03-22 00:37:00,
2013-03-21 20:38:00,52.3,13.5,29.95,SE,130,0.0,0.0,21,0.00,,SKC,5.17,VWS V14.01,2013-03-22 00:38:00,
2013-03-21 20:39:00,52.3,13.5,29.95,SE,130,0.0,0.0,21,0.00,,SKC,5.17,VWS V14.01,2013-03-22 00:39:00,
2013-03-21 20:40:00,52.4,13.6,29.95,SE,130,0.0,0.0,21,0.00,,SKC,5.17,VWS V14.01,2013-03-22 00:40:00,
2013-03-21 20:41:00,52.4,13.6,29.95,SE,130,0.0,0.0,21,0.00,,SKC,5.17,VWS V14.01,2013-03-22 00:41:00,
2013-03-21 20:42:00,52.4,13.6,29.95,SE,130,0.0,0.0,21,0.00,,SKC,5.17,VWS V14.01,2013-03-22 00:42:00,
2013-03-21 20:43:00,52.4,13.6,29.95,SE,130,0.0,0.0,21,0.00,,SKC,5.17,VWS V14.01,2013-03-22 00:43:00,
2013-03-21 20:44:00,52.4,13.6,29.95,SE,130,0.0,0.0,21,0.00,,SKC,5.17,VWS V14.01,2013-03-22 00:44:00,
2013-03-21 20:45:00,52.4,13.6,29.95,SE,130,0.0,0.0,21,0.00,,SKC,5.17,VWS V14.01,2013-03-22 00:45:00,
2013-03-21 20:46:00,52.4,13.6,29.95,SE,130,0.0,0.0,21,0.00,,SKC,5.17,VWS V14.01,2013-03-22 00:46:00,
2013-03-21 20:47:00,52.4,13.6,29.95,SE,130,0.0,0.0,21,0.00,,SKC,5.17,VWS V14.01,2013-03-22 00:47:00,
2013-03-21 20:48:00,52.4,13.6,29.95,SE,130,0.0,0.0,21,0.00,,SKC,5.17,VWS V14.01,2013-03-22 00:48:00,
2013-03-21 20:49:00,52.4,13.6,29.96,SE,130,0.0,0.0,21,0.00,,SKC,5.17,VWS V14.01,2013-03-22 00:49:00,
2013-03-21 20:50:00,52.4,13.6,29.96,SE,130,0.0,0.0,21,0.00,,SKC,5.17,VWS V14.01,2013-03-22 00:50:00,
2013-03-21 20:51:00,52.4,13.6,29.96,SE,130,0.0,0.0,21,0.00,,SKC,5.17,VWS V14.01,2013-03-22 00:51:00,
2013-03-21 20:52:00,52.4,13.6,29.96,SE,130,0.0,0.0,21,0.00,,SKC,5.17,VWS V14.01,2013-03-22 00:52:00,
2013-03-21 20:53:00,52.4,13.6,29.96,SE,130,0.0,0.0,21,0.00,,SKC,5.17,VWS V14.01,2013-03-22 00:53:00,
2013-03-21 20:54:00,52.4,13.6,29.96,SE,130,0.0,0.0,21,0.00,,SKC,5.17,VWS V14.01,2013-03-22 00:54:00,
2013-03-21 20:55:00,52.4,13.6,29.96,SE,130,0.0,0.0,21,0.00,,SKC,5.17,VWS V14.01,2013-03-22 00:55:00,
2013-03-21 20:56:00,52.4,13.6,29.96,SE,130,0.0,0.0,21,0.00,,SKC,5.17,VWS V14.01,2013-03-22 00:56:00,
2013-03-21 20:57:00,52.5,13.7,29.96,SE,130,0.0,0.0,21,0.00,,SKC,5.17,VWS V14.01,2013-03-22 00:57:00,
2013-03-21 20:58:00,52.5,13.7,29.96,SE,130,0.0,0.0,21,0.00,,SKC,5.17,VWS V14.01,2013-03-22 00:58:00,
2013-03-21 20:59:00,52.5,13.7,29.96,SE,130,0.0,0.0,21,0.00,,SKC,5.17,VWS V14.01,2013-03-22 00:59:00,
2013-03-21 21:00:00,52.6,13.8,29.96,SE,130,0.0,0.0,21,0.00,,SKC,5.17,VWS V14.01,2013-03-22 01:00:00,
2013-03-21 21:01:00,52.6,13.8,29.96,SE,130,0.0,0.0,21,0.00,,SKC,5.17,VWS V14.01,2013-03-22 01:01:00,
2013-03-21 21:02:00,52.6,13.8,29.96,SE,130,0.0,0.0,21,0.00,,SKC,5.17,VWS V14.01,2013-03-22 01:02:00,
2013-03-21 21:03:00,52.7,13.9,29.96,SE,130,0.0,0.0,21,0.00,,SKC,5.17,VWS V14.01,2013-03-22 01:03:00,
2013-03-21 21:04:00,52.7,13.9,29.96,SE,130,0.0,0.0,21,0.00,,SKC,5.17,VWS V14.01,2013-03-22 01:04:00,
2013-03-21 21:05:00,52.7,13.9,29.96,SE,130,0.0,0.0,21,0.00,,SKC,5.17,VWS V14.01,2013-03-22 01:05:00,
2013-03-21 21:06:00,52.8,14.0,29.96,SE,130,0.0,0.0,21,0.00,,SKC,5.17,VWS V14.01,2013-03-22 01:06:00,
2013-03-21 21:07:00,52.8,14.0,29.96,SE,130,0.0,0.0,21,0.00,,SKC,5.17,VWS V14.01,2013-03-22 01:07:00,
2013-03-21 21:08:00,52.8,14.0,29.96,SE,130,0.0,0.0,21,0.00,,SKC,5.17,VWS V14.01,2013-03-22 01:08:00,
2013-03-21 21:09:00,52.9,12.9,29.96,SE,130,0.0,0.0,20,0.00,,SKC,5.17,VWS V14.01,2013-03-22 01:09:00,
2013-03-21 21:10:00,52.9,12.9,29.97,SE,130,0.0,0.0,20,0.00,,SKC,5.17,VWS V14.01,2013-03-22 01:10:00,
2013-03-21 21:11:00,52.9,12.9,29.96,SE,130,0.0,0.0,20,0.00,,SKC,5.17,VWS V14.01,2013-03-22 01:11:00,
2013-03-21 21:12:00,53.0,13.0,29.97,SE,130,0.0,0.0,20,0.00,,SKC,5.17,VWS V14.01,2013-03-22 01:12:00,
2013-03-21 21:13:00,53.0,13.0,29.97,SE,130,0.0,0.0,20,0.00,,SKC,5.17,VWS V14.01,2013-03-22 01:13:00,
2013-03-21 21:14:00,53.1,13.1,29.97,SE,130,0.0,0.0,20,0.00,,SKC,5.17,VWS V14.01,2013-03-22 01:14:00,
2013-03-21 21:15:00,53.1,13.1,29.97,SE,130,0.0,0.0,20,0.00,,SKC,5.17,VWS V14.01,2013-03-22 01:15:00,
2013-03-21 21:16:00,53.2,13.2,29.97,SE,130,0.0,0.0,20,0.00,,SKC,5.17,VWS V14.01,2013-03-22 01:16:00,
2013-03-21 21:17:00,53.2,13.2,29.97,SE,130,0.0,0.0,20,0.00,,SKC,5.17,VWS V14.01,2013-03-22 01:17:00,
2013-03-21 21:18:00,53.3,13.3,29.97,SE,130,0.0,0.0,20,0.00,,SKC,5.17,VWS V14.01,2013-03-22 01:18:00,
2013-03-21 21:19:00,53.3,13.3,29.97,SE,130,0.0,0.0,20,0.00,,SKC,5.17,VWS V14.01,2013-03-22 01:19:00,
2013-03-21 21:20:00,53.4,13.4,29.97,SE,130,0.0,0.0,20,0.00,,SKC,5.17,VWS V14.01,2013-03-22 01:20:00,
2013-03-21 21:21:00,53.4,13.4,29.97,SE,130,0.0,0.0,20,0.00,,SKC,5.17,VWS V14.01,2013-03-22 01:21:00,
2013-03-21 21:22:00,53.4,13.4,29.97,SE,130,0.0,0.0,20,0.00,,SKC,5.17,VWS V14.01,2013-03-22 01:22:00,
2013-03-21 21:23:00,53.5,13.4,29.97,SE,130,0.0,0.0,20,0.00,,SKC,5.17,VWS V14.01,2013-03-22 01:23:00,
2013-03-21 21:24:00,53.5,13.4,29.97,SE,130,0.0,0.0,20,0.00,,SKC,5.17,VWS V14.01,2013-03-22 01:24:00,
2013-03-21 21:25:00,53.6,13.5,29.97,SE,130,0.0,0.0,20,0.00,,SKC,5.17,VWS V14.01,2013-03-22 01:25:00,
2013-03-21 21:26:00,53.6,13.5,29.97,SE,130,0.0,0.0,20,0.00,,SKC,5.17,VWS V14.01,2013-03-22 01:26:00,
2013-03-21 21:27:00,53.6,13.5,29.97,SE,130,0.0,0.0,20,0.00,,SKC,5.17,VWS V14.01,2013-03-22 01:27:00,
2013-03-21 21:28:00,53.7,13.6,29.97,SE,130,0.0,0.0,20,0.00,,SKC,5.17,VWS V14.01,2013-03-22 01:28:00,
2013-03-21 21:29:00,53.7,13.6,29.97,SE,130,0.0,0.0,20,0.00,,SKC,5.17,VWS V14.01,2013-03-22 01:29:00,
2013-03-21 21:30:00,53.8,13.7,29.97,SE,130,0.0,0.0,20,0.00,,SKC,5.17,VWS V14.01,2013-03-22 01:30:00,
2013-03-21 21:31:00,53.8,13.7,29.97,SE,130,0.0,0.0,20,0.00,,SKC,5.17,VWS V14.01,2013-03-22 01:31:00,
2013-03-21 21:32:00,53.9,13.8,29.97,SE,130,0.0,0.0,20,0.00,,SKC,5.17,VWS V14.01,2013-03-22 01:32:00,
2013-03-21 21:33:00,53.9,13.8,29.97,SE,130,0.0,0.0,20,0.00,,SKC,5.17,VWS V14.01,2013-03-22 01:33:00,
2013-03-21 21:34:00,53.9,13.8,29.97,SE,130,0.0,0.0,20,0.00,,SKC,5.17,VWS V14.01,2013-03-22 01:34:00,
2013-03-21 21:35:00,54.0,12.7,29.97,SE,130,0.0,0.0,19,0.00,,SKC,5.17,VWS V14.01,2013-03-22 01:35:00,
2013-03-21 21:36:00,54.0,12.7,29.97,SE,130,0.0,0.0,19,0.00,,SKC,5.17,VWS V14.01,2013-03-22 01:36:00,
2013-03-21 21:37:00,54.1,12.8,29.97,SE,130,0.0,0.0,19,0.00,,SKC,5.17,VWS V14.01,2013-03-22 01:37:00,
2013-03-21 21:38:00,54.1,12.8,29.97,SE,130,0.0,0.0,19,0.00,,SKC,5.17,VWS V14.01,2013-03-22 01:38:00,
2013-03-21 21:39:00,54.1,12.8,29.97,SE,130,0.0,0.0,19,0.00,,SKC,5.17,VWS V14.01,2013-03-22 01:39:00,
2013-03-21 21:40:00,54.2,12.9,29.97,SE,130,0.0,0.0,19,0.00,,SKC,5.17,VWS V14.01,2013-03-22 01:40:00,
2013-03-21 21:41:00,54.2,12.9,29.97,SE,130,0.0,0.0,19,0.00,,SKC,5.17,VWS V14.01,2013-03-22 01:41:00,
2013-03-21 21:42:00,54.2,12.9,29.97,SE,130,0.0,0.0,19,0.00,,SKC,5.17,VWS V14.01,2013-03-22 01:42:00,
2013-03-21 21:43:00,54.2,12.9,29.97,SE,130,0.0,0.0,19,0.00,,SKC,5.17,VWS V14.01,2013-03-22 01:43:00,
2013-03-21 21:44:00,54.2,12.9,29.97,SE,130,0.0,0.0,19,0.00,,SKC,5.17,VWS V14.01,2013-03-22 01:44:00,
2013-03-21 21:45:00,54.3,12.9,29.97,SE,130,0.0,0.0,19,0.00,,SKC,5.17,VWS V14.01,2013-03-22 01:45:00,
2013-03-21 21:46:00,54.3,12.9,29.97,SE,130,0.0,0.0,19,0.00,,SKC,5.17,VWS V14.01,2013-03-22 01:46:00,
2013-03-21 21:47:00,54.4,13.0,29.97,SE,130,0.0,0.0,19,0.00,,SKC,5.17,VWS V14.01,2013-03-22 01:47:00,
2013-03-21 21:48:00,54.4,13.0,29.97,SE,130,0.0,0.0,19,0.00,,SKC,5.17,VWS V14.01,2013-03-22 01:48:00,
2013-03-21 21:49:00,54.4,13.0,29.97,SE,130,0.0,0.0,19,0.00,,SKC,5.17,VWS V14.01,2013-03-22 01:49:00,
2013-03-21 21:50:00,54.5,13.1,29.98,SE,130,0.0,0.0,19,0.00,,SKC,5.17,VWS V14.01,2013-03-22 01:50:00,
2013-03-21 21:51:00,54.6,13.2,29.98,SE,130,0.0,0.0,19,0.00,,SKC,5.17,VWS V14.01,2013-03-22 01:51:00,
2013-03-21 21:52:00,54.6,13.2,29.98,SE,130,0.0,0.0,19,0.00,,SKC,5.17,VWS V14.01,2013-03-22 01:52:00,
2013-03-21 21:53:00,54.8,13.4,29.98,SE,130,0.0,0.0,19,0.00,,SKC,5.17,VWS V14.01,2013-03-22 01:53:00,
2013-03-21 21:54:00,54.8,12.1,29.98,SE,130,0.0,0.0,18,0.00,,SKC,5.17,VWS V14.01,2013-03-22 01:54:00,
2013-03-21 21:55:00,54.9,12.2,29.98,SE,130,0.0,0.0,18,0.00,,SKC,5.17,VWS V14.01,2013-03-22 01:55:00,
2013-03-21 21:56:00,55.0,12.3,29.98,SE,130,0.0,0.0,18,0.00,,SKC,5.17,VWS V14.01,2013-03-22 01:56:00,
2013-03-21 21:57:00,55.0,12.3,29.98,SE,130,0.0,0.0,18,0.00,,SKC,5.17,VWS V14.01,2013-03-22 01:57:00,
2013-03-21 21:58:00,55.1,12.4,29.98,SE,130,0.0,0.0,18,0.00,,SKC,5.17,VWS V14.01,2013-03-22 01:58:00,
2013-03-21 21:59:00,55.1,12.4,29.98,SE,130,0.0,0.0,18,0.00,,SKC,5.17,VWS V14.01,2013-03-22 01:59:00,
2013-03-21 22:00:00,55.2,12.5,29.98,SE,130,0.0,0.0,18,0.00,,SKC,5.17,VWS V14.01,2013-03-22 02:00:00,
2013-03-21 22:01:00,55.3,12.5,29.98,SE,130,0.0,0.0,18,0.00,,SKC,5.17,VWS V14.01,2013-03-22 02:01:00,
2013-03-21 22:02:00,55.4,12.6,29.98,SE,130,0.0,0.0,18,0.00,,SKC,5.17,VWS V14.01,2013-03-22 02:02:00,
2013-03-21 22:03:00,55.5,12.7,29.98,SE,130,0.0,0.0,18,0.00,,SKC,5.17,VWS V14.01,2013-03-22 02:03:00,
2013-03-21 22:04:00,55.6,12.8,29.98,SE,130,0.0,0.0,18,0.00,,SKC,5.17,VWS V14.01,2013-03-22 02:04:00,
2013-03-21 22:05:00,55.7,12.9,29.98,SE,130,0.0,0.0,18,0.00,,SKC,5.17,VWS V14.01,2013-03-22 02:05:00,
2013-03-21 22:06:00,55.9,13.0,29.98,SE,130,0.0,0.0,18,0.00,,SKC,5.17,VWS V14.01,2013-03-22 02:06:00,
2013-03-21 22:07:00,55.9,13.0,29.98,SE,130,0.0,0.0,18,0.00,,SKC,5.17,VWS V14.01,2013-03-22 02:07:00,
2013-03-21 22:08:00,56.0,13.1,29.98,SE,130,0.0,0.0,18,0.00,,SKC,5.17,VWS V14.01,2013-03-22 02:08:00,
2013-03-21 22:09:00,56.1,11.9,29.98,SE,130,0.0,0.0,17,0.00,,SKC,5.17,VWS V14.01,2013-03-22 02:09:00,
2013-03-21 22:10:00,56.2,12.0,29.98,SE,130,0.0,0.0,17,0.00,,SKC,5.17,VWS V14.01,2013-03-22 02:10:00,
2013-03-21 22:11:00,56.3,12.1,29.98,SE,130,0.0,0.0,17,0.00,,SKC,5.17,VWS V14.01,2013-03-22 02:11:00,
2013-03-21 22:12:00,56.4,12.1,29.98,SE,130,0.0,0.0,17,0.00,,SKC,5.17,VWS V14.01,2013-03-22 02:12:00,
2013-03-21 22:13:00,56.4,12.1,29.98,SE,130,0.0,0.0,17,0.00,,SKC,5.17,VWS V14.01,2013-03-22 02:13:00,
2013-03-21 22:14:00,56.5,12.2,29.98,SE,130,0.0,0.0,17,0.00,,SKC,5.17,VWS V14.01,2013-03-22 02:14:00,
2013-03-21 22:15:00,56.5,12.2,29.98,SE,130,0.0,0.0,17,0.00,,SKC,5.17,VWS V14.01,2013-03-22 02:15:00,
2013-03-21 22:16:00,56.6,12.3,29.98,SE,130,0.0,0.0,17,0.00,,SKC,5.17,VWS V14.01,2013-03-22 02:16:00,
2013-03-21 22:17:00,56.7,12.4,29.98,SE,130,0.0,0.0,17,0.00,,SKC,5.17,VWS V14.01,2013-03-22 02:17:00,
2013-03-21 22:18:00,56.7,12.4,29.98,SE,130,0.0,0.0,17,0.00,,SKC,5.17,VWS V14.01,2013-03-22 02:18:00,
2013-03-21 22:19:00,56.8,12.5,29.98,SE,130,0.0,0.0,17,0.00,,SKC,5.17,VWS V14.01,2013-03-22 02:19:00,
2013-03-21 22:20:00,56.9,12.6,29.98,SE,130,0.0,0.0,17,0.00,,SKC,5.17,VWS V14.01,2013-03-22 02:20:00,
2013-03-21 22:21:00,57.0,12.6,29.98,SE,130,0.0,0.0,17,0.00,,SKC,5.17,VWS V14.01,2013-03-22 02:21:00,
2013-03-21 22:22:00,57.1,12.7,29.98,SE,130,0.0,0.0,17,0.00,,SKC,5.17,VWS V14.01,2013-03-22 02:22:00,
2013-03-21 22:23:00,57.3,12.9,29.98,SE,130,0.0,0.0,17,0.00,,SKC,5.17,VWS V14.01,2013-03-22 02:23:00,
2013-03-21 22:24:00,57.4,13.0,29.98,SE,130,0.0,0.0,17,0.00,,SKC,5.17,VWS V14.01,2013-03-22 02:24:00,
2013-03-21 22:25:00,57.4,11.6,29.98,SE,130,0.0,0.0,16,0.00,,SKC,5.17,VWS V14.01,2013-03-22 02:25:00,
2013-03-21 22:26:00,57.6,11.8,29.98,SE,130,0.0,0.0,16,0.00,,SKC,5.17,VWS V14.01,2013-03-22 02:26:00,
2013-03-21 22:27:00,57.6,11.8,29.99,SE,130,0.0,0.0,16,0.00,,SKC,5.17,VWS V14.01,2013-03-22 02:27:00,
2013-03-21 22:28:00,57.8,11.9,29.99,SE,130,0.0,0.0,16,0.00,,SKC,5.17,VWS V14.01,2013-03-22 02:28:00,
2013-03-21 22:29:00,57.9,12.0,29.98,SE,130,0.0,0.0,16,0.00,,SKC,5.17,VWS V14.01,2013-03-22 02:29:00,
2013-03-21 22:30:00,58.0,12.1,29.99,SE,130,0.0,0.0,16,0.00,,SKC,5.17,VWS V14.01,2013-03-22 02:30:00,
2013-03-21 22:31:00,58.1,12.2,29.99,SE,130,0.0,0.0,16,0.00,,SKC,5.17,VWS V14.01,2013-03-22 02:31:00,
2013-03-21 22:32:00,58.3,12.3,29.99,SE,130,0.0,0.0,16,0.00,,SKC,5.17,VWS V14.01,2013-03-22 02:32:00,
2013-03-21 22:33:00,58.4,12.4,29.99,SE,130,0.0,0.0,16,0.00,,SKC,5.17,VWS V14.01,2013-03-22 02:33:00,
2013-03-21 22:34:00,58.5,11.0,29.99,SE,130,0.0,0.0,15,0.00,,SKC,5.17,VWS V14.01,2013-03-22 02:34:00,
2013-03-21 22:35:00,58.6,11.1,29.99,SE,130,0.0,0.0,15,0.00,,SKC,5.17,VWS V14.01,2013-03-22 02:35:00,
2013-03-21 22:36:00,58.7,11.2,29.99,SE,130,0.0,0.0,15,0.00,,SKC,5.17,VWS V14.01,2013-03-22 02:36:00,
2013-03-21 22:37:00,58.8,11.3,29.99,SE,130,0.0,0.0,15,0.00,,SKC,5.17,VWS V14.01,2013-03-22 02:37:00,
2013-03-21 22:38:00,58.8,11.3,29.99,SE,130,0.0,0.0,15,0.00,,SKC,5.17,VWS V14.01,2013-03-22 02:38:00,
2013-03-21 22:39:00,59.0,11.4,29.99,SE,130,0.0,0.0,15,0.00,,SKC,5.17,VWS V14.01,2013-03-22 02:39:00,
2013-03-21 22:40:00,59.0,11.4,29.99,SE,130,0.0,0.0,15,0.00,,SKC,5.17,VWS V14.01,2013-03-22 02:40:00,
2013-03-21 22:41:00,59.2,11.6,29.99,SE,130,0.0,0.0,15,0.00,,SKC,5.17,VWS V14.01,2013-03-22 02:41:00,
2013-03-21 22:42:00,59.4,11.8,29.99,SE,130,0.0,0.0,15,0.00,,SKC,5.17,VWS V14.01,2013-03-22 02:42:00,
2013-03-21 22:43:00,59.5,11.8,29.99,SE,130,0.0,0.0,15,0.00,,SKC,5.17,VWS V14.01,2013-03-22 02:43:00,
2013-03-21 22:44:00,59.6,11.9,29.99,SE,130,0.0,0.0,15,0.00,,SKC,5.17,VWS V14.01,2013-03-22 02:44:00,
2013-03-21 22:45:00,59.7,12.0,29.99,SE,130,0.0,0.0,15,0.00,,SKC,5.17,VWS V14.01,2013-03-22 02:45:00,
2013-03-21 22:46:00,59.9,12.2,29.99,SE,130,0.0,0.0,15,0.00,,SKC,5.17,VWS V14.01,2013-03-22 02:46:00,
2013-03-21 22:47:00,60.1,10.8,29.99,SE,130,0.0,0.0,14,0.00,,SKC,5.17,VWS V14.01,2013-03-22 02:47:00,
2013-03-21 22:48:00,60.3,10.9,29.99,SE,130,0.0,0.0,14,0.00,,SKC,5.17,VWS V14.01,2013-03-22 02:48:00,
2013-03-21 22:49:00,60.4,11.0,29.99,SE,130,0.0,0.0,14,0.00,,SKC,5.17,VWS V14.01,2013-03-22 02:49:00,
2013-03-21 22:50:00,60.6,11.2,29.99,SE,130,0.0,0.0,14,0.00,,SKC,5.17,VWS V14.01,2013-03-22 02:50:00,
2013-03-21 22:51:00,60.7,11.2,29.99,SE,130,0.0,0.0,14,0.00,,SKC,5.17,VWS V14.01,2013-03-22 02:51:00,
2013-03-21 22:52:00,60.9,11.4,29.99,SE,130,0.0,0.0,14,0.00,,SKC,5.17,VWS V14.01,2013-03-22 02:52:00,
2013-03-21 22:53:00,60.9,11.4,29.99,SE,130,0.0,0.0,14,0.00,,SKC,5.17,VWS V14.01,2013-03-22 02:53:00,
2013-03-21 22:54:00,61.1,11.6,29.99,SE,130,0.0,0.0,14,0.00,,SKC,5.17,VWS V14.01,2013-03-22 02:54:00,
2013-03-21 22:55:00,61.2,11.6,29.99,SE,130,0.0,0.0,14,0.00,,SKC,5.17,VWS V14.01,2013-03-22 02:55:00,
2013-03-21 22:56:00,61.3,11.7,29.99,SE,130,0.0,0.0,14,0.00,,SKC,5.17,VWS V14.01,2013-03-22 02:56:00,
2013-03-21 22:57:00,61.4,11.8,29.99,SE,130,0.0,0.0,14,0.00,,SKC,5.17,VWS V14.01,2013-03-22 02:57:00,
2013-03-21 22:58:00,61.6,12.0,29.99,SE,130,0.0,0.0,14,0.00,,SKC,5.17,VWS V14.01,2013-03-22 02:58:00,
2013-03-21 22:59:00,61.7,12.1,29.99,SE,130,0.0,0.0,14,0.00,,SKC,5.17,VWS V14.01,2013-03-22 02:59:00,
2013-03-21 23:00:00,61.9,12.2,29.99,SE,130,0.0,0.0,14,0.00,,SKC,5.17,VWS V14.01,2013-03-22 03:00:00,
2013-03-21 23:01:00,62.0,13.9,29.99,SE,130,0.0,0.0,15,0.00,,SKC,5.17,VWS V14.01,2013-03-22 03:01:00,
2013-03-21 23:02:00,62.2,14.0,29.99,SE,130,0.0,0.0,15,0.00,,SKC,5.17,VWS V14.01,2013-03-22 03:02:00,
2013-03-21 23:03:00,62.3,14.1,30.00,SE,130,0.0,0.0,15,0.00,,SKC,5.17,VWS V14.01,2013-03-22 03:03:00,
2013-03-21 23:04:00,62.6,14.3,30.00,SE,130,0.0,0.0,15,0.00,,SKC,5.17,VWS V14.01,2013-03-22 03:04:00,
2013-03-21 23:05:00,62.9,14.6,29.99,SE,130,0.0,0.0,15,0.00,,SKC,5.17,VWS V14.01,2013-03-22 03:05:00,
2013-03-21 23:06:00,63.1,14.7,29.99,SE,130,0.0,0.0,15,0.00,,SKC,5.17,VWS V14.01,2013-03-22 03:06:00,
2013-03-21 23:07:00,63.4,15.0,29.99,SE,130,0.0,0.0,15,0.00,,SKC,5.17,VWS V14.01,2013-03-22 03:07:00,
2013-03-21 23:08:00,63.6,15.1,29.99,SE,130,0.0,0.0,15,0.00,,SKC,5.17,VWS V14.01,2013-03-22 03:08:00,
2013-03-21 23:09:00,63.8,16.8,29.99,SE,130,0.0,0.0,16,0.00,,SKC,5.17,VWS V14.01,2013-03-22 03:09:00,
2013-03-21 23:10:00,63.9,18.3,29.99,SE,130,0.0,0.0,17,0.00,,SKC,5.17,VWS V14.01,2013-03-22 03:10:00,
2013-03-21 23:11:00,64.0,20.9,30.00,SE,130,0.0,0.0,19,0.00,,SKC,5.17,VWS V14.01,2013-03-22 03:11:00,
2013-03-21 23:12:00,64.1,21.0,30.00,SE,130,0.0,0.0,19,0.00,,SKC,5.17,VWS V14.01,2013-03-22 03:12:00,
2013-03-21 23:13:00,64.3,21.2,30.00,SE,130,0.0,0.0,19,0.00,,SKC,5.17,VWS V14.01,2013-03-22 03:13:00,
2013-03-21 23:14:00,64.4,23.6,30.00,SE,130,0.0,0.0,21,0.00,,SKC,5.17,VWS V14.01,2013-03-22 03:14:00,
2013-03-21 23:15:00,64.6,24.9,30.00,SE,130,0.0,0.0,22,0.00,,SKC,5.17,VWS V14.01,2013-03-22 03:15:00,
2013-03-21 23:16:00,64.5,25.9,30.00,SE,130,0.0,0.0,23,0.00,,SKC,5.17,VWS V14.01,2013-03-22 03:16:00,
2013-03-21 23:17:00,64.7,27.1,30.00,SE,130,0.0,0.0,24,0.00,,SKC,5.17,VWS V14.01,2013-03-22 03:17:00,
2013-03-21 23:18:00,64.8,27.2,30.00,SE,130,0.0,0.0,24,0.00,,SKC,5.17,VWS V14.01,2013-03-22 03:18:00,
2013-03-21 23:19:00,64.9,29.2,30.00,SE,130,0.0,0.0,26,0.00,,SKC,5.17,VWS V14.01,2013-03-22 03:19:00,
2013-03-21 23:20:00,65.0,32.0,30.00,SE,130,0.0,0.0,29,0.00,,SKC,5.17,VWS V14.01,2013-03-22 03:20:00,
2013-03-21 23:21:00,65.1,32.9,30.00,SE,130,0.0,0.0,30,0.00,,SKC,5.17,VWS V14.01,2013-03-22 03:21:00,
2013-03-21 23:22:00,65.3,33.9,30.00,SE,130,0.0,0.0,31,0.00,,SKC,5.17,VWS V14.01,2013-03-22 03:22:00,
2013-03-21 23:23:00,65.4,34.0,30.00,SE,130,0.0,0.0,31,0.00,,SKC,5.17,VWS V14.01,2013-03-22 03:23:00,
2013-03-21 23:24:00,65.6,35.8,30.00,SE,130,0.0,0.0,33,0.00,,SKC,5.17,VWS V14.01,2013-03-22 03:24:00,
2013-03-21 23:25:00,65.8,35.2,30.00,SE,130,0.0,0.0,32,0.00,,SKC,5.17,VWS V14.01,2013-03-22 03:25:00,
2013-03-21 23:26:00,66.0,36.1,30.00,SE,130,0.0,0.0,33,0.00,,SKC,5.17,VWS V14.01,2013-03-22 03:26:00,
2013-03-21 23:27:00,66.3,37.1,30.00,SE,130,0.0,0.0,34,0.00,,SKC,5.17,VWS V14.01,2013-03-22 03:27:00,
2013-03-21 23:28:00,66.6,38.8,30.00,SE,130,0.0,0.0,36,0.00,,SKC,5.17,VWS V14.01,2013-03-22 03:28:00,
2013-03-21 23:29:00,67.0,38.5,29.99,SE,130,0.0,0.0,35,0.00,,SKC,5.17,VWS V14.01,2013-03-22 03:29:00,
2013-03-21 23:30:00,67.3,39.5,29.99,SE,130,0.0,0.0,36,0.00,,SKC,5.17,VWS V14.01,2013-03-22 03:30:00,
2013-03-21 23:31:00,67.6,42.4,30.00,SE,130,0.0,0.0,40,0.00,,SKC,5.17,VWS V14.01,2013-03-22 03:31:00,
2013-03-21 23:32:00,67.8,43.9,30.00,SE,130,0.0,0.0,42,0.00,,SKC,5.17,VWS V14.01,2013-03-22 03:32:00,
2013-03-21 23:33:00,68.2,44.9,30.00,SE,130,0.0,0.0,43,0.00,,SKC,5.17,VWS V14.01,2013-03-22 03:33:00,
2013-03-21 23:34:00,68.4,47.4,30.00,SE,130,0.0,0.0,47,0.00,,SKC,5.17,VWS V14.01,2013-03-22 03:34:00,
2013-03-21 23:35:00,68.7,50.9,30.00,SE,130,0.0,0.0,53,0.00,,SKC,5.17,VWS V14.01,2013-03-22 03:35:00,
2013-03-21 23:36:00,68.9,51.1,30.00,SE,130,0.0,0.0,53,0.00,,SKC,5.17,VWS V14.01,2013-03-22 03:36:00,
2013-03-21 23:37:00,69.2,51.9,30.00,SE,130,0.0,0.0,54,0.00,,SKC,5.17,VWS V14.01,2013-03-22 03:37:00,
2013-03-21 23:38:00,69.6,52.7,30.00,SE,130,0.0,0.0,55,0.00,,SKC,5.17,VWS V14.01,2013-03-22 03:38:00,
2013-03-21 23:39:00,69.9,53.5,30.00,SE,130,0.0,0.0,56,0.00,,SKC,5.17,VWS V14.01,2013-03-22 03:39:00,
2013-03-21 23:40:00,70.2,54.8,30.00,SE,130,0.0,0.0,58,0.00,,SKC,5.17,VWS V14.01,2013-03-22 03:40:00,
2013-03-21 23:41:00,70.5,55.5,30.00,SE,130,0.0,0.0,59,0.00,,SKC,5.17,VWS V14.01,2013-03-22 03:41:00,
2013-03-21 23:42:00,70.8,56.2,30.00,SE,130,0.0,0.0,60,0.00,,SKC,5.17,VWS V14.01,2013-03-22 03:42:00,
2013-03-21 23:43:00,71.1,56.5,30.00,SE,129,0.0,0.0,60,0.00,,SKC,5.17,VWS V14.01,2013-03-22 03:43:00,
2013-03-21 23:44:00,71.3,56.7,30.00,SE,129,0.0,0.0,60,0.00,,SKC,5.17,VWS V14.01,2013-03-22 03:44:00,
2013-03-21 23:45:00,71.5,56.9,30.00,SE,130,0.0,0.0,60,0.00,,SKC,5.17,VWS V14.01,2013-03-22 03:45:00,
2013-03-21 23:46:00,71.7,57.5,30.00,SE,130,0.0,0.0,61,0.00,,SKC,5.17,VWS V14.01,2013-03-22 03:46:00,
2013-03-21 23:47:00,71.9,57.7,30.00,SE,130,0.0,0.0,61,0.00,,SKC,5.17,VWS V14.01,2013-03-22 03:47:00,
2013-03-21 23:48:00,72.1,57.9,30.00,SE,130,0.0,0.0,61,0.00,,SKC,5.17,VWS V14.01,2013-03-22 03:48:00,
2013-03-21 23:49:00,72.2,57.6,30.00,SE,130,0.0,0.0,60,0.00,,SKC,5.17,VWS V14.01,2013-03-22 03:49:00,
2013-03-21 23:50:00,72.4,57.8,30.00,SE,129,0.0,0.0,60,0.00,,SKC,5.17,VWS V14.01,2013-03-22 03:50:00,
2013-03-21 23:51:00,72.6,58.4,30.00,SE,129,0.0,0.0,61,0.00,,SKC,5.17,VWS V14.01,2013-03-22 03:51:00,
2013-03-21 23:52:00,72.9,58.7,30.00,SE,130,0.0,0.0,61,0.00,,SKC,5.17,VWS V14.01,2013-03-22 03:52:00,
2013-03-21 23:53:00,73.0,58.8,30.00,SE,130,0.0,0.0,61,0.00,,SKC,5.17,VWS V14.01,2013-03-22 03:53:00,
2013-03-21 23:54:00,73.2,59.0,30.00,SE,130,0.0,0.0,61,0.00,,SKC,5.17,VWS V14.01,2013-03-22 03:54:00,
2013-03-21 23:55:00,73.4,59.2,30.00,SE,129,0.0,0.0,61,0.00,,SKC,5.17,VWS V14.01,2013-03-22 03:55:00,
2013-03-21 23:56:00,73.6,59.3,30.00,SE,130,0.0,0.0,61,0.00,,SKC,5.17,VWS V14.01,2013-03-22 03:56:00,
2013-03-21 23:57:00,73.7,59.4,30.00,SE,130,0.0,0.0,61,0.00,,SKC,5.17,VWS V14.01,2013-03-22 03:57:00,
2013-03-21 23:58:00,73.9,59.6,30.00,SE,130,0.0,0.0,61,0.00,,SKC,5.17,VWS V14.01,2013-03-22 03:58:00,
2013-03-21 23:59:00,74.1,59.8,30.00,SE,130,0.0,0.0,61,0.00,,SKC,5.17,VWS V14.01,2013-03-22 03:59:00,